[[{"header":{"parameterUnit":"m.s-1","parameterCategory":1,"la1":30.6,"la2":28.766,"lo1":-90.7593,"lo2":-88.6598,"dy":0.0162,"dx":0.0183,"nx":116,"ny":114,"refTime":"2023-04-06T12:00:00:Z","depth":0,"parameterNumber":2,"parameterNumberName":"U-component_of_WINDS"},"data":[0.0,0.0,0.0,0.0,0.0,0.0,0.0,0.0,0.0,0.0,0.0,0.0,0.0,0.0,0.0,0.0,0.0,0.0,0.0,0.0,0.0,0.0,0.0,0.0,0.0,0.0,0.0,0.0,0.0,0.0,0.0,0.0,0.0,0.0,0.0,0.0,0.0,0.0,0.0,0.0,0.0,0.0,0.0,0.0,0.0,0.0,0.0,0.0,0.0,0.0,0.0,0.0,0.0,0.0,0.0,0.0,0.0,0.0,0.0,0.0,0.0,0.0,0.0,0.0,0.0,0.0,0.0,0.0,0.0,0.0,0.0,0.0,0.0,0.0,0.0,0.0,0.0,0.0,0.0,0.0,0.0,0.0,0.0,0.0,0.0,0.0,0.0,0.0,0.0,0.0,0.0,0.0,0.0,0.0,0.0,0.0,0.0,0.0,0.0,0.0,0.0,0.0,0.0,0.0,0.0,0.0,0.0,0.0,0.0,0.0,0.0,0.0,0.0,0.0,0.0,0.0,0.0,0.0,0.0,0.0,0.0,0.0,0.0,0.0,0.0,0.0,0.0,0.0,0.0,0.0,0.0,0.0,0.0,0.0,0.0,0.0,0.0,0.0,0.0,0.0,0.0,0.0,0.0,0.0,0.0,0.0,0.0,0.0,0.0,0.0,0.0,0.0,0.0,0.0,0.0,0.0,0.0,0.0,0.0,0.0,0.0,0.0,0.0,0.0,0.0,0.0,0.0,0.0,0.0,0.0,0.0,0.0,0.0,0.0,0.0,0.0,0.0,0.0,0.0,0.0,0.0,0.0,0.0,0.0,0.0,0.0,0.0,0.0,0.0,0.0,0.0,0.0,0.0,0.0,0.0,0.0,0.0,0.0,0.0,0.0,0.0,0.0,0.0,0.0,0.0,0.0,0.0,0.0,0.0,0.0,0.0,0.0,0.0,0.0,0.0,0.0,0.0,0.0,0.0,0.0,0.0,0.0,0.0,0.0,0.0,0.0,0.0,0.0,0.0,0.0,0.0,0.0,0.0,0.0,0.0,0.0,0.0,0.0,0.0,0.0,0.0,0.0,0.0,0.0,0.0,0.0,0.0,0.0,0.0,0.0,0.0,0.0,0.0,0.0,0.0,0.0,0.0,0.0,0.0,0.0,0.0,0.0,0.0,0.0,0.0,0.0,0.0,0.0,0.0,0.0,0.0,0.0,0.0,0.0,0.0,0.0,0.0,0.0,0.0,0.0,0.0,0.0,0.0,0.0,0.0,0.0,0.0,0.0,0.0,0.0,0.0,0.0,0.0,0.0,0.0,0.0,0.0,0.0,0.0,0.0,0.0,0.0,0.0,0.0,0.0,0.0,0.0,0.0,0.0,0.0,0.0,0.0,0.0,0.0,0.0,0.0,0.0,0.0,0.0,0.0,0.0,0.0,0.0,0.0,0.0,0.0,0.0,0.0,0.0,0.0,0.0,0.0,0.0,0.0,0.0,0.0,0.0,0.0,0.0,0.0,0.0,0.0,0.0,0.0,0.0,0.0,0.0,0.0,0.0,0.0,0.0,0.0,0.0,0.0,0.0,0.0,0.0,0.0,0.0,0.0,0.0,0.0,0.0,0.0,0.0,0.0,0.0,0.0,0.0,0.0,0.0,0.0,0.0,0.0,0.0,0.0,0.0,0.0,0.0,0.0,0.0,0.0,0.0,0.0,0.0,0.0,0.0,0.0,0.0,0.0,0.0,0.0,0.0,0.0,0.0,0.0,0.0,0.0,0.0,0.0,0.0,0.0,0.0,0.0,0.0,0.0,0.0,0.0,0.0,0.0,0.0,0.0,0.0,0.0,0.0,0.0,0.0,0.0,0.0,0.0,0.0,0.0,0.0,0.0,0.0,0.0,0.0,0.0,0.0,0.0,0.0,0.0,0.0,0.0,0.0,0.0,0.0,0.0,0.0,0.0,0.0,0.0,0.0,0.0,0.0,0.0,0.0,0.0,0.0,0.0,0.0,0.0,0.0,0.0,0.0,0.0,0.0,0.0,0.0,0.0,0.0,0.0,0.0,0.0,0.0,0.0,0.0,0.0,0.0,0.0,0.0,0.0,0.0,0.0,0.0,0.0,0.0,0.0,0.0,0.0,0.0,0.0,0.0,0.0,0.0,0.0,0.0,0.0,0.0,0.0,0.0,0.0,0.0,0.0,0.0,0.0,0.0,0.0,0.0,0.0,0.0,0.0,0.0,0.0,0.0,0.0,0.0,0.0,0.0,0.0,0.0,0.0,0.0,0.0,0.0,0.0,0.0,0.0,0.0,0.0,0.0,0.0,0.0,0.0,0.0,0.0,0.0,0.0,0.0,0.0,0.0,0.0,0.0,0.0,0.0,0.0,0.0,0.0,0.0,0.0,0.0,0.0,0.0,0.0,0.0,0.0,0.0,0.0,0.0,0.0,0.0,0.0,0.0,0.0,0.0,0.0,0.0,0.0,0.0,0.0,0.0,0.0,0.0,0.0,0.0,0.0,0.0,0.0,0.0,0.0,0.0,0.0,0.0,0.0,0.0,0.0,0.0,0.0,0.0,0.0,0.0,0.0,0.0,0.0,0.0,0.0,0.0,0.0,0.0,0.0,0.0,0.0,0.0,0.0,0.0,0.0,0.0,0.0,0.0,0.0,0.0,0.0,0.0,0.0,0.0,0.0,0.0,0.0,0.0,0.0,0.0,0.0,0.0,0.0,0.0,0.0,0.0,0.0,0.0,0.0,0.0,0.0,0.0,0.0,0.0,0.0,0.0,0.0,0.0,0.0,0.0,0.0,0.0,0.0,0.0,0.0,0.0,0.0,0.0,0.0,0.0,0.0,0.0,0.0,0.0,0.0,0.0,0.0,0.0,0.0,0.0,0.0,0.0,0.0,0.0,0.0,0.0,0.0,0.0,0.0,0.0,0.0,0.0,0.0,0.0,0.0,0.0,0.0,0.0,0.0,0.0,0.0,0.0,0.0,0.0,0.0,0.0,0.0,0.0,0.0,0.0,0.0,0.0,0.0,0.0,0.0,0.0,0.0,0.0,0.0,0.0,0.0,0.0,0.0,0.0,0.0,0.0,0.0,0.0,0.0,0.0,0.0,0.0,0.0,0.0,0.0,0.0,0.0,0.0,0.0,0.0,0.0,0.0,0.0,0.0,0.0,0.0,0.0,0.0,0.0,0.0,0.0,0.0,0.0,0.0,0.0,0.0,0.0,0.0,0.0,0.0,0.0,0.0,0.0,0.0,0.0,0.0,0.0,0.0,0.0,0.0,0.0,0.0,0.0,0.0,0.0,0.0,0.0,0.0,0.0,0.0,0.0,0.0,0.0,0.0,0.0,0.0,0.0,0.0,0.0,0.0,0.0,0.0,0.0,0.0,0.0,0.0,0.0,0.0,0.0,0.0,0.0,0.0,0.0,0.0,0.0,0.0,0.0,0.0,0.0,0.0,0.0,0.0,0.0,0.0,0.0,0.0,0.0,0.0,0.0,0.0,0.0,0.0,0.0,0.0,0.0,0.0,0.0,0.0,0.0,0.0,0.0,0.0,0.0,0.0,0.0,0.0,0.0,0.0,0.0,0.0,0.0,0.0,0.0,0.0,0.0,0.0,0.0,0.0,0.0,0.0,0.0,0.0,0.0,0.0,0.0,0.0,0.0,0.0,0.0,0.0,0.0,0.0,0.0,0.0,0.0,0.0,0.0,0.0,0.0,0.0,0.0,0.0,0.0,0.0,0.0,0.0,0.0,0.0,0.0,0.0,0.0,0.0,0.0,0.0,0.0,0.0,0.0,0.0,0.0,0.0,0.0,0.0,0.0,0.0,0.0,0.0,0.0,0.0,0.0,0.0,0.0,0.0,0.0,0.0,0.0,0.0,0.0,0.0,0.0,0.0,0.0,0.0,0.0,0.0,0.0,0.0,0.0,0.0,0.0,0.0,0.0,0.0,0.0,0.0,0.0,0.0,0.0,0.0,0.0,0.0,0.0,0.0,0.0,0.0,0.0,0.0,0.0,0.0,0.0,0.0,0.0,0.0,0.0,0.0,0.0,0.0,0.0,0.0,0.0,0.0,0.0,0.0,0.0,0.0,0.0,0.0,0.0,0.0,0.0,0.0,0.0,0.0,0.0,0.0,0.0,0.0,0.0,0.0,0.0,0.0,0.0,0.0,0.0,0.0,0.0,0.0,0.0,0.0,0.0,0.0,0.0,0.0,0.0,0.0,0.0,0.0,0.0,0.0,0.0,0.0,0.0,0.0,0.0,0.0,0.0,0.0,0.0,0.0,0.0,0.0,0.0,0.0,0.0,0.0,0.0,0.0,0.0,0.0,0.0,0.0,0.0,0.0,0.0,0.0,0.0,0.0,0.0,0.0,0.0,0.0,0.0,0.0,0.0,0.0,0.0,0.0,0.0,0.0,0.0,0.0,0.0,0.0,0.0,0.0,0.0,0.0,0.0,0.0,0.0,0.0,0.0,0.0,0.0,0.0,0.0,0.0,0.0,0.0,0.0,0.0,0.0,0.0,0.0,0.0,0.0,0.0,0.0,0.0,0.0,0.0,0.0,0.0,0.0,0.0,0.0,0.0,0.0,0.0,0.0,0.0,0.0,0.0,0.0,0.0,0.0,0.0,0.0,0.0,0.0,0.0,0.0,0.0,0.0,0.0,0.0,0.0,0.0,0.0,0.0,0.0,0.0,0.0,0.0,0.0,0.0,0.0,0.0,0.0,0.0,0.0,0.0,0.0,0.0,0.0,0.0,0.0,0.0,0.0,0.0,0.0,0.0,0.0,0.0,0.0,0.0,0.0,0.0,0.0,0.0,0.0,0.0,0.0,0.0,0.0,0.0,0.0,0.0,0.0,0.0,0.0,0.0,0.0,0.0,0.0,0.0,0.0,0.0,0.0,0.0,0.0,0.0,0.0,0.0,0.0,0.0,0.0,0.0,0.0,0.0,0.0,0.0,0.0,0.0,0.0,0.0,0.0,0.0,0.0,0.0,0.0,0.0,0.0,0.0,0.0,0.0,0.0,0.0,0.0,0.0,0.0,0.0,0.0,0.0,0.0,0.0,0.0,0.0,0.0,0.0,0.0,0.0,0.0,0.0,0.0,0.0,0.0,0.0,0.0,0.0,0.0,0.0,0.0,0.0,0.0,0.0,0.0,0.0,0.0,0.0,0.0,0.0,0.0,0.0,0.0,0.0,0.0,0.0,0.0,0.0,0.0,0.0,0.0,0.0,0.0,0.0,0.0,0.0,0.0,0.0,0.0,0.0,0.0,0.0,0.0,0.0,0.0,0.0,0.0,0.0,0.0,0.0,0.0,0.0,0.0,0.0,0.0,0.0,0.0,0.0,0.0,0.0,0.0,0.0,0.0,0.0,0.0,0.0,0.0,0.0,0.0,0.0,0.0,0.0,0.0,0.0,0.0,0.0,0.0,0.0,0.0,0.0,0.0,0.0,0.0,0.0,0.0,0.0,0.0,0.0,0.0,0.0,0.0,0.0,0.0,0.0,0.0,0.0,0.0,0.0,0.0,0.0,0.0,0.0,0.0,0.0,0.0,0.0,0.0,0.0,0.0,0.0,0.0,0.0,0.0,0.0,0.0,0.0,0.0,0.0,0.0,0.0,0.0,0.0,0.0,0.0,0.0,0.0,0.0,0.0,0.0,0.0,0.0,0.0,0.0,0.0,0.0,0.0,0.0,0.0,0.0,0.0,0.0,0.0,0.0,0.0,0.0,0.0,0.0,0.0,0.0,0.0,0.0,0.0,0.0,0.0,0.0,0.0,0.0,0.0,0.0,0.0,0.0,0.0,0.0,0.0,0.0,0.0,0.0,0.0,0.0,0.0,0.0,0.0,0.0,0.0,0.0,0.0,0.0,0.0,0.0,0.0,0.0,0.0,0.0,0.0,0.0,0.0,0.0,0.0,0.0,0.0,0.0,0.0,0.0,0.0,0.0,0.0,0.0,0.0,0.0,0.0,0.0,0.0,0.0,0.0,0.0,0.0,0.0,0.0,0.0,0.0,0.0,0.0,0.0,0.0,0.0,0.0,0.0,0.0,0.0,0.0,0.0,0.0,0.0,0.0,0.0,0.0,0.0,0.0,2.3354,2.4015,0.0,0.0,0.0,0.0,0.0,0.0,0.0,0.0,0.0,0.0,0.0,0.0,0.0,0.0,0.0,0.0,0.0,0.0,0.0,0.0,0.0,0.0,0.0,0.0,0.0,0.0,0.0,0.0,0.0,0.0,0.0,0.0,0.0,0.0,0.0,0.0,0.0,1.3919,1.3814,1.3862,1.4,1.4,1.4525,1.5515,0.0,0.0,0.0,0.0,0.0,0.0,0.0,0.0,0.0,0.0,0.0,0.0,0.0,0.0,0.0,0.0,0.0,0.0,0.0,0.0,0.0,0.0,0.0,0.0,0.0,0.0,0.0,0.0,0.0,0.0,0.0,0.0,0.0,0.0,0.0,0.0,0.0,0.0,0.0,0.0,0.0,0.0,0.0,0.0,0.0,0.0,0.0,0.0,0.0,0.0,0.0,0.0,0.0,0.0,0.0,0.0,0.0,0.0,0.0,0.0,0.0,0.0,0.0,0.0,0.0,0.0,0.0,0.0,0.0,0.0,2.3642,2.4395,0.0,0.0,0.0,0.0,0.0,0.0,0.0,0.0,0.0,0.0,0.0,0.0,0.0,0.0,0.0,0.0,0.0,0.0,0.0,0.0,0.0,0.0,0.0,1.0581,1.0656,1.0871,1.1122,1.1425,0.0,0.0,0.0,0.0,0.0,0.0,1.2326,1.2758,1.3004,1.3056,1.2893,1.2763,1.2665,1.2516,1.3379,1.5035,1.512,0.0,0.0,0.0,0.0,0.0,0.0,0.0,0.0,0.0,0.0,0.0,0.0,0.0,0.0,0.0,0.0,0.0,0.0,0.0,0.0,0.0,0.0,0.0,0.0,0.0,0.0,0.0,0.0,0.0,0.0,0.0,0.0,0.0,0.0,0.0,0.0,0.0,0.0,0.0,0.0,0.0,0.0,0.0,0.0,0.0,0.0,0.0,0.0,0.0,0.0,0.0,0.0,0.0,0.0,0.0,0.0,0.0,0.0,0.0,0.0,0.0,0.0,0.0,2.2958,2.2973,2.3019,2.2804,2.2857,2.3164,2.4337,2.499,2.5248,2.5541,0.0,0.0,0.0,0.0,0.0,0.0,0.0,0.0,0.0,0.0,0.0,0.0,0.0,0.0,0.0,0.0,0.0,0.0,0.0,0.0,1.0081,1.0081,1.018,1.0372,1.0589,1.079,1.1023,0.0,0.0,0.0,0.0,0.0,1.2051,1.2325,1.2097,1.132,1.1305,1.1606,1.2185,1.1482,1.1877,1.3192,1.3646,1.4412,1.5369,0.0,0.0,0.0,0.0,0.0,0.0,0.0,0.0,0.0,0.0,0.0,0.0,0.0,0.0,0.0,0.0,0.0,0.0,0.0,0.0,0.0,0.0,0.0,0.0,0.0,0.0,0.0,0.0,0.0,0.0,0.0,0.0,0.0,0.0,0.0,0.0,0.0,0.0,0.0,0.0,0.0,1.817,1.848,0.0,0.0,0.0,0.0,0.0,0.0,0.0,0.0,0.0,0.0,0.0,0.0,0.0,2.1921,2.226,2.195,2.198,2.2333,2.2039,2.2053,2.2363,2.2825,2.3061,2.315,2.3876,0.0,2.4167,2.3922,0.0,0.0,0.0,0.0,0.0,0.0,0.0,0.0,0.0,0.0,0.0,0.0,0.0,0.0,0.0,0.0,0.0,0.0,0.0,0.0,0.0,0.9994,1.0032,1.0127,1.0451,1.0606,1.051,1.0875,0.0,0.0,0.0,1.1468,1.1785,1.1883,1.1603,1.0891,1.0749,1.0651,1.0642,1.0288,1.0403,1.0957,1.1311,1.243,1.4066,1.4611,0.0,0.0,0.0,0.0,0.0,0.0,0.0,0.0,0.0,0.0,0.0,0.0,0.0,0.0,0.0,0.0,0.0,0.0,0.0,0.0,0.0,0.0,0.0,0.0,0.0,0.0,0.0,0.0,0.0,0.0,0.0,0.0,0.0,0.0,0.0,0.0,0.0,0.0,0.0,1.8516,1.8679,1.9172,1.9457,1.9868,0.0,0.0,0.0,0.0,0.0,0.0,0.0,0.0,0.0,2.1906,2.1774,2.1759,2.1906,2.1774,2.1862,2.2214,2.2037,2.2156,2.2498,2.2751,2.3063,2.3389,2.3685,2.3901,2.4079,2.4289,2.4975,2.5899,0.0,0.0,0.0,0.0,2.6493,2.6587,0.0,0.0,0.0,0.0,0.0,0.0,0.0,0.0,0.0,0.0,0.0,0.0,0.9537,0.9484,0.9467,0.9543,0.9866,0.999,0.9792,1.0186,1.0428,1.0493,1.056,1.0748,1.1091,1.0849,1.0521,1.0129,0.9866,0.9603,0.9363,0.9157,0.9204,0.9431,0.9548,1.0672,1.2557,1.3442,1.4143,1.4717,0.0,0.0,0.0,0.0,0.0,0.0,0.0,0.0,0.0,0.0,0.0,0.0,0.0,0.0,0.0,0.0,0.0,0.0,0.0,0.0,0.0,0.0,0.0,0.0,0.0,0.0,0.0,0.0,0.0,0.0,0.0,0.0,0.0,0.0,0.0,0.0,0.0,1.8836,1.9003,1.9528,1.955,1.9794,0.0,0.0,0.0,0.0,0.0,0.0,2.2052,2.1979,2.1862,2.1701,2.1701,2.173,2.1818,2.1818,2.1979,2.2301,2.2301,2.2511,2.2931,2.3037,2.3367,2.3861,2.3967,2.4146,2.4384,2.4719,2.5201,2.5755,2.5986,2.5986,2.5853,2.5931,2.5961,2.586,0.0,0.0,0.0,0.0,0.0,0.0,0.0,0.0,0.0,0.0,0.0,0.8288,0.8288,0.8061,0.8011,0.8268,0.8314,0.8429,0.8661,0.894,0.926,0.9649,0.9912,0.9936,0.9706,0.8822,0.8353,0.8338,0.8049,0.8307,0.902,0.8244,0.8372,0.9223,0.9099,0.9736,1.0996,1.2049,1.2926,1.3671,1.4691,0.0,0.0,0.0,0.0,0.0,0.0,0.0,0.0,0.0,0.0,0.0,0.0,0.0,0.0,0.0,0.0,0.0,0.0,0.0,0.0,0.0,0.0,0.0,0.0,0.0,0.0,0.0,0.0,0.0,0.0,0.0,0.0,0.0,0.0,0.0,0.0,0.0,0.0,1.8918,1.9515,0.0,0.0,0.0,0.0,2.1645,2.1359,2.1349,2.1715,2.1423,2.1393,2.1686,2.1701,2.1847,2.2154,2.2154,2.2301,2.2563,2.2563,2.2908,2.3559,2.3869,2.4209,2.4564,2.4902,2.5025,2.5008,2.4416,2.4352,2.4671,2.4687,2.4894,2.5195,2.5519,2.5641,2.5698,0.0,0.0,0.0,0.0,0.0,0.0,0.0,0.0,0.8554,0.8464,0.8143,0.7951,0.7951,0.7856,0.7834,0.7945,0.7945,0.7907,0.7834,0.8276,0.8545,0.8515,0.9101,0.9291,0.9039,0.8411,0.808,0.808,0.7809,0.786,0.8225,0.7935,0.789,0.8035,0.8174,0.8432,0.885,1.0425,1.1475,1.2046,1.2455,1.3251,0.0,0.0,0.0,0.0,0.0,0.0,0.0,0.0,0.0,0.0,0.0,0.0,0.0,0.0,0.0,0.0,0.0,0.0,0.0,0.0,0.0,0.0,0.0,0.0,0.0,0.0,0.0,0.0,0.0,0.0,0.0,0.0,0.0,0.0,0.0,0.0,0.0,1.9426,1.9529,0.0,2.0177,2.0614,2.0916,2.1034,2.1333,2.1584,2.1701,2.1789,2.1891,2.2008,2.2008,2.2154,2.2462,2.2462,2.2623,2.293,2.293,2.3144,2.3604,2.3945,2.427,2.461,2.4949,2.5103,2.5087,2.4833,2.4801,2.4913,2.4913,2.4992,2.5087,2.4971,2.5096,2.5238,0.0,0.0,0.0,0.0,0.0,0.0,0.0,0.0,0.793,0.7628,0.7428,0.7279,0.7224,0.7158,0.7092,0.7092,0.7092,0.709,0.7106,0.76,0.7897,0.7907,0.8405,0.8489,0.8061,0.7842,0.769,0.759,0.7515,0.752,0.7596,0.7596,0.7498,0.7327,0.7522,0.755,0.754,0.8882,0.9913,1.0697,1.1045,1.2006,1.3257,0.0,0.0,0.0,0.0,0.0,0.0,0.0,0.0,0.0,0.0,0.0,0.0,0.0,0.0,0.0,0.0,0.0,0.0,0.0,0.0,0.0,0.0,0.0,0.0,0.0,0.0,0.0,0.0,0.0,0.0,0.0,0.0,0.0,0.0,1.8939,1.9212,1.9613,1.9508,1.9548,1.9907,2.0315,2.0585,2.0585,2.1273,2.17,2.17,2.2037,2.2228,2.233,2.233,2.2476,2.2784,2.2784,2.2901,2.3106,2.3106,2.3261,2.3604,2.3945,2.427,2.461,2.4949,2.5103,2.5103,2.5103,2.5103,2.5103,2.5103,2.5103,2.5087,2.4849,2.4913,2.5054,0.0,0.0,0.0,0.0,0.0,0.0,0.7621,0.7579,0.7357,0.652,0.6353,0.6253,0.6125,0.5869,0.5713,0.5719,0.5719,0.5924,0.6467,0.6888,0.7328,0.7884,0.7891,0.7547,0.6823,0.7036,0.7061,0.6792,0.7067,0.7191,0.7191,0.7191,0.7197,0.7197,0.7197,0.7197,0.7222,0.7484,0.8343,0.9632,1.0681,1.1706,1.2663,0.0,0.0,0.0,0.0,0.0,0.0,0.0,0.0,0.0,0.0,0.0,0.0,0.0,0.0,0.0,0.0,0.0,0.0,0.0,0.0,0.0,0.0,0.0,0.0,0.0,0.0,0.0,0.0,0.0,0.0,0.0,0.0,0.0,1.9372,1.9401,1.9401,1.9401,1.9401,1.9415,1.9415,1.9963,2.0317,2.0317,2.1175,2.1719,2.1719,2.2018,2.2345,2.2607,2.2607,2.2753,2.3106,2.3106,2.3106,2.3106,2.3106,2.3261,2.3604,2.3945,2.427,2.461,2.4949,2.5103,2.5103,2.5103,2.5103,2.5103,2.5103,2.5103,2.5103,2.5103,2.5103,2.5178,0.0,0.0,0.0,0.0,0.0,0.0,0.7297,0.704,0.6898,0.6843,0.6344,0.6076,0.623,0.5919,0.5746,0.5827,0.5855,0.6035,0.6467,0.6888,0.7284,0.7748,0.7471,0.7174,0.6867,0.6657,0.6632,0.6792,0.6867,0.7064,0.7337,0.7337,0.7283,0.7217,0.7405,0.7379,0.7217,0.7483,0.7859,0.8339,0.8721,0.9526,1.0536,0.0,0.0,0.0,0.0,0.0,0.0,0.0,0.0,0.0,0.0,0.0,0.0,0.0,0.0,0.0,0.0,0.0,0.0,0.0,0.0,0.0,0.0,0.0,0.0,0.0,0.0,0.0,0.0,0.0,0.0,0.0,1.8261,1.8661,1.8661,1.9098,1.9401,1.9401,1.9575,1.9679,1.9679,2.0245,2.0588,2.0588,2.1227,2.173,2.1974,2.2079,2.2391,2.2943,2.2726,2.2769,2.3106,2.3106,2.3106,2.3106,2.3106,2.3137,2.3261,2.3836,2.4146,2.427,2.4857,2.5103,2.5103,2.5103,2.5103,2.5103,2.5103,2.5103,2.5103,2.5103,2.5103,2.5118,0.0,0.0,0.0,0.0,0.0,0.0,0.7187,0.6956,0.6865,0.6877,0.6455,0.6189,0.6282,0.5941,0.574,0.5805,0.5877,0.6115,0.6643,0.7143,0.7441,0.7459,0.7228,0.6968,0.6692,0.6526,0.6523,0.6721,0.6771,0.691,0.7139,0.7139,0.7102,0.7038,0.7197,0.717,0.7065,0.7328,0.7549,0.7723,0.7929,0.8573,0.9468,1.0151,1.108,1.2117,1.2765,1.3214,1.3484,1.3603,0.0,0.0,0.0,0.0,0.0,0.0,0.0,0.0,0.0,0.0,0.0,0.0,0.0,0.0,0.0,0.0,0.0,0.0,0.0,0.0,0.0,0.0,0.0,0.0,1.8589,1.8975,1.8975,1.9311,1.9575,1.9575,1.98,1.9987,1.9987,2.0392,2.0689,2.0689,2.1269,2.1745,2.2086,2.2225,2.2543,2.3074,2.2918,2.296,2.331,2.331,2.3384,2.3515,2.3515,2.3442,2.3357,2.4152,2.4451,2.436,2.5203,2.5579,2.5579,2.5579,2.5579,2.5516,0.0,0.0,0.0,0.0,2.5907,2.5704,0.0,0.0,0.0,0.0,0.0,0.0,0.7318,0.726,0.7189,0.684,0.6665,0.6526,0.6356,0.602,0.5824,0.5818,0.5956,0.6322,0.6929,0.754,0.7661,0.7074,0.7074,0.6889,0.6445,0.6574,0.6646,0.6647,0.6756,0.6822,0.6823,0.6823,0.6828,0.6839,0.6871,0.6898,0.6898,0.7184,0.7443,0.7695,0.7933,0.8444,0.9108,0.9695,1.0595,1.162,1.2151,1.2792,1.3295,1.2844,0.0,0.0,0.0,0.0,0.0,0.0,0.0,0.0,0.0,0.0,0.0,0.0,0.0,0.0,0.0,0.0,0.0,0.0,0.0,0.0,0.0,0.0,0.0,0.0,1.9227,1.9813,1.984,1.988,1.9893,1.9853,2.0077,2.025,2.025,2.0548,2.0753,2.0753,2.1244,2.1709,2.2073,2.2355,0.0,0.0,0.0,2.3235,2.3588,2.3588,2.3764,2.4118,2.4118,2.3925,2.3694,2.4664,2.4923,2.4727,2.5754,2.6216,2.6216,2.6216,2.6216,2.612,2.5469,2.5421,2.5817,2.7073,2.7029,2.6615,0.0,0.0,0.0,0.0,0.0,0.0,0.7989,0.7975,0.7879,0.747,0.7218,0.6946,0.6655,0.655,0.6528,0.659,0.6864,0.7131,0.7371,0.7706,0.7573,0.6812,0.6996,0.6954,0.6637,0.688,0.6974,0.6935,0.6958,0.6967,0.6948,0.6948,0.7024,0.7144,0.7337,0.7452,0.7452,0.7721,0.7962,0.8165,0.8213,0.8395,0.8673,0.9227,0.9689,1.0099,1.0642,1.1028,1.1291,1.14,1.1482,1.1564,1.17,1.181,0.0,0.0,0.0,0.0,0.0,0.0,0.0,0.0,0.0,0.0,0.0,0.0,0.0,0.0,0.0,0.0,0.0,0.0,0.0,1.9094,1.9458,1.988,2.009,2.0361,2.0414,2.0144,2.0414,2.0588,2.0588,2.0855,2.1029,2.1029,2.1145,2.1457,2.2073,2.1929,2.2198,2.3074,2.2825,2.2984,2.3588,2.3588,2.3764,2.4118,2.4118,0.0,2.4016,2.4769,2.506,2.5063,2.5864,2.6216,2.6216,2.6216,2.6216,2.62,2.6025,2.6025,2.612,2.6376,2.687,2.7474,0.0,0.0,0.0,0.0,0.0,0.0,0.9027,0.8989,0.898,0.8918,0.8429,0.8063,0.7905,0.7426,0.7095,0.7094,0.7273,0.7428,0.7507,0.7661,0.751,0.6971,0.7088,0.7143,0.7092,0.7258,0.7392,0.746,0.7473,0.7492,0.7512,0.7512,0.7541,0.7598,0.7743,0.7798,0.7798,0.7937,0.8143,0.8409,0.8409,0.8533,0.8723,0.8996,0.9296,0.9616,0.9865,1.0271,1.0688,1.0688,1.0798,1.0951,1.1217,1.1321,1.1478,0.0,0.0,0.0,0.0,0.0,0.0,0.0,0.0,0.0,0.0,0.0,0.0,0.0,0.0,1.7637,1.7637,0.0,1.9542,1.9685,2.0015,2.0294,2.0428,2.0708,2.0788,2.0494,2.0708,2.0895,2.0895,2.1029,2.1109,2.1109,2.1109,2.1398,2.2056,2.2088,2.238,2.3046,2.3238,2.3493,2.3811,2.4021,2.428,2.4602,2.4602,2.4514,2.4368,2.5221,2.5502,2.5382,2.6303,2.6709,2.6725,2.6867,2.7042,2.7185,2.7185,2.69,2.6535,2.7247,2.7831,2.8412,0.0,0.0,0.0,0.0,0.0,0.0,0.0,1.0076,1.011,1.0195,0.9675,0.9275,0.9213,0.8536,0.8107,0.8157,0.8014,0.792,0.7878,0.7737,0.7522,0.7216,0.7241,0.734,0.7508,0.767,0.7807,0.7911,0.802,0.8045,0.7992,0.7992,0.7992,0.7992,0.8076,0.8097,0.8097,0.8159,0.8325,0.8567,0.8567,0.8712,0.8913,0.891,0.9183,0.9554,0.9597,1.0047,1.0614,1.0421,1.0555,1.0769,1.0911,1.1001,1.1251,1.2183,1.2334,0.0,0.0,0.0,0.0,0.0,0.0,0.0,0.0,1.4828,1.5304,1.6179,1.6736,1.7438,1.8671,1.9162,1.9602,2.0216,2.0521,2.0753,2.086,2.1042,2.1136,2.098,2.1042,2.1136,2.1189,2.1189,2.1216,2.1269,2.1283,2.1536,2.2134,2.2438,2.2744,2.3079,2.3681,2.4036,2.4123,2.4436,2.4793,2.5188,2.5256,2.5187,2.5029,2.597,2.6243,2.608,2.6979,2.7407,2.7423,2.7675,2.7945,2.8183,2.8183,2.7845,2.7439,2.8345,2.8942,2.957,0.0,0.0,0.0,0.0,0.0,0.0,0.0,0.0,1.0852,1.026,1.0329,1.021,0.9609,0.9909,1.0354,1.0828,1.005,0.9457,0.9209,0.8368,0.7668,0.7216,0.7416,0.7553,0.7591,0.8011,0.8131,0.7986,0.8179,0.8177,0.7992,0.7992,0.7992,0.802,0.8318,0.8457,0.8457,0.8685,0.883,0.8857,0.8857,0.8885,0.8906,0.8899,0.912,0.947,0.9831,1.0128,1.0394,1.0586,1.0802,1.0943,1.0769,1.0846,1.1177,1.1994,1.242,1.2867,1.3936,1.4351,1.4441,1.45,1.453,1.4799,0.0,1.6319,1.6819,1.7171,1.8421,1.93,1.8897,1.9503,2.0199,2.0588,2.0686,2.0886,2.1408,2.1515,2.1622,2.185,2.1403,2.1216,2.1515,2.1542,2.1636,2.1871,2.1884,2.2061,2.243,2.2495,2.2804,2.342,2.3518,2.3872,2.4536,2.4569,2.4876,2.5476,2.5834,2.6125,2.6399,2.7173,2.7501,2.7488,2.7899,2.8072,2.8072,2.8119,2.8151,2.8183,2.8183,2.8739,2.9444,2.8571,2.9494,3.1237,0.0,0.0,0.0,0.0,0.0,0.0,0.0,0.0,0.0,1.1728,1.1549,1.1317,1.1079,1.0971,1.1063,1.1433,1.1045,1.0664,1.036,1.0131,0.973,0.908,0.9322,0.9419,0.9344,0.9388,0.9301,0.9113,0.9024,0.8838,0.8519,0.8519,0.8519,0.8519,0.8657,0.874,0.874,0.8857,0.8912,0.8912,0.8912,0.8912,0.8912,0.8912,0.8995,0.9161,0.9618,1.0287,0.0,1.057,1.0883,1.1355,1.0979,1.1114,1.1548,1.2273,1.2779,1.3218,1.3757,1.437,1.4711,1.4201,1.4341,1.4849,1.5812,1.6534,1.7242,1.8064,1.8761,1.9365,1.9814,2.0235,2.0641,2.1141,2.1221,2.1368,2.1783,2.1836,2.1877,2.201,2.1764,2.167,2.1823,2.1836,2.189,2.1977,2.1991,2.2124,2.2431,2.2664,2.3061,2.3724,2.4381,2.4946,2.5486,2.5897,2.6238,2.6473,2.6647,2.6827,2.6948,2.7486,2.7798,2.7991,2.8129,2.8344,2.8535,2.8535,2.8662,2.8853,2.8853,2.9542,3.042,2.9502,3.0599,3.2503,0.0,0.0,0.0,0.0,0.0,0.0,0.0,0.0,0.0,0.0,1.2467,1.2287,1.2474,1.2096,1.1967,1.2298,1.2,1.1687,1.1382,1.1364,1.1132,1.0525,1.0699,1.0787,1.0739,1.0544,1.0388,1.0278,1.0146,0.9934,0.9651,0.9651,0.9651,0.9623,0.9375,0.9265,0.9237,0.8995,0.8912,0.8912,0.8912,0.8912,0.8912,0.8953,0.9133,0.9426,0.9757,1.0449,1.1129,1.0909,1.1314,1.1835,1.1453,1.1712,1.2284,1.2946,1.3608,1.4074,1.3851,1.4319,1.4741,1.4111,1.4411,1.5151,1.6274,1.7039,1.7846,1.9078,1.9325,1.963,2.0611,2.09,2.1087,2.1515,2.1649,2.181,2.2071,2.2111,2.2164,2.2338,2.2352,2.2392,2.2505,2.2245,2.2138,2.2251,2.2311,2.2445,2.2625,2.3025,2.3509,2.4142,2.4972,2.5679,2.6228,2.6788,2.7148,2.7345,2.745,2.7531,2.7623,2.7975,2.829,2.8484,2.8484,2.8662,2.8952,2.8952,2.9059,2.9334,2.964,3.048,3.1421,3.1185,3.1933,3.3068,0.0,0.0,0.0,0.0,0.0,0.0,0.0,0.0,0.0,0.0,0.0,0.0,0.0,1.3422,1.3627,1.4067,1.3183,1.2477,1.2271,1.1554,1.1016,1.0795,1.0795,1.0884,1.1087,1.1001,1.1072,1.1265,1.144,1.1537,1.1518,1.1518,1.1518,1.1491,1.0578,1.0166,1.0111,0.9265,0.8912,0.8912,0.8912,0.8912,0.8926,0.9124,0.9765,1.0554,1.0554,1.0582,1.0783,1.1797,1.2276,1.2437,1.2214,1.271,1.3459,1.4064,1.5052,1.5621,1.4332,1.4298,1.461,1.457,1.5032,1.5894,1.7475,1.83,1.9122,2.0385,2.0637,2.0717,2.1042,2.1368,2.1569,2.1614,2.1823,2.2071,2.2365,2.2405,2.2585,2.3185,2.3252,2.3394,2.3723,2.2926,2.2525,2.2853,2.3113,2.3252,2.3265,2.3567,2.4118,2.4862,2.4897,2.5461,2.6564,2.6599,2.6974,2.7697,2.8,2.8349,2.866,2.9087,2.9266,2.9266,2.9266,2.9266,2.9282,2.9282,2.9282,2.9405,3.0515,3.1631,3.2771,3.3794,3.3552,3.2735,0.0,0.0,0.0,0.0,0.0,0.0,0.0,0.0,0.0,0.0,0.0,0.0,0.0,0.0,0.0,0.0,1.4024,1.3742,1.3325,1.3361,1.3173,1.2623,1.272,1.277,1.2689,1.2493,1.2307,1.2088,1.2004,1.1819,1.1591,1.1591,1.1591,1.1573,1.0606,1.0194,1.0139,0.9265,0.8912,0.8919,0.9042,0.9111,0.9138,0.9621,1.0295,1.1076,0.0,1.2018,1.2131,1.2166,1.2632,1.3093,1.2599,1.3007,1.3885,1.5023,1.5624,1.5925,1.5928,1.5685,1.5615,1.6226,1.6872,1.7659,1.8822,1.9612,2.023,2.0833,2.0932,2.0995,2.139,2.1449,2.1602,2.2065,2.2378,2.2639,2.2733,2.3094,2.3313,2.3292,2.35,2.3696,2.379,2.3487,2.3388,2.3496,2.3603,2.3621,2.3621,2.375,2.4241,2.5219,2.5705,2.6484,2.7579,2.8115,2.8533,2.8766,2.8873,2.8992,2.9102,2.9226,2.9298,2.9298,2.9298,2.9298,2.9298,2.9298,2.9298,2.9334,2.9712,3.0551,3.1595,3.1982,3.2823,3.3865,0.0,0.0,0.0,0.0,0.0,0.0,0.0,0.0,0.0,0.0,0.0,0.0,0.0,0.0,0.0,0.0,0.0,1.426,1.3836,1.4211,1.4194,1.362,1.3843,1.395,1.3885,1.3556,1.3335,1.3242,1.2896,1.2656,1.2527,1.2527,1.2527,1.25,1.1564,1.1154,1.1099,1.0229,0.9901,0.9997,1.0352,1.0537,1.0659,1.1333,1.2,0.0,1.3364,1.3838,1.4061,1.3377,1.3521,1.4005,1.372,1.4282,1.5152,1.5783,1.6425,1.6823,1.636,1.6329,1.6569,1.7156,1.7873,1.8661,1.9499,2.0281,2.0882,2.1069,2.1061,2.113,2.1518,2.1477,2.1631,2.2458,2.2637,2.2802,2.3153,2.3469,2.3621,2.3634,2.3808,2.3968,2.4075,2.4075,2.4067,2.3981,2.4111,2.4201,2.4344,2.4453,2.4914,2.5723,2.6373,2.7089,2.7913,2.8707,2.9154,2.9298,2.9298,2.9298,2.9298,2.9298,2.9298,2.9298,2.9298,2.9298,2.9298,2.9298,2.9298,2.9369,3.0211,3.0941,3.1718,3.2667,3.3947,3.5195,0.0,0.0,0.0,0.0,0.0,0.0,0.0,0.0,0.0,0.0,0.0,0.0,0.0,0.0,0.0,0.0,0.0,0.0,1.3831,1.4062,1.411,1.3846,1.4162,1.4431,1.4627,1.4171,1.4186,1.4649,1.4124,1.4013,1.4288,1.4288,1.4288,1.4234,1.3383,1.3002,1.2957,1.2073,1.1833,1.2047,1.2642,1.298,1.3252,1.3965,1.4678,1.5278,1.5422,1.5919,1.6292,1.5213,1.4908,1.5075,1.5451,1.6363,1.714,1.6381,1.7341,1.8128,1.5885,1.6265,1.7302,1.7406,1.8089,1.8924,1.9593,2.0456,2.1109,2.1122,2.1042,2.1123,2.1558,2.1462,2.1658,2.2716,2.2598,2.2671,2.3625,2.3527,2.3545,2.4142,2.4222,2.4329,2.4572,2.4599,2.4542,2.4391,2.466,2.5005,2.5402,2.5682,2.5983,2.6385,2.6801,2.7202,2.7623,2.8346,2.8923,2.9298,2.9298,2.9298,2.9298,2.9298,2.9298,2.9298,2.9314,2.9329,2.9329,2.9345,2.9345,2.9561,3.1805,3.2684,3.3053,3.5692,3.6664,3.6502,0.0,0.0,0.0,0.0,0.0,0.0,0.0,0.0,0.0,0.0,0.0,0.0,0.0,0.0,0.0,0.0,0.0,0.0,1.4105,1.4363,1.4471,1.4404,1.4672,1.4839,1.4907,1.4782,1.4888,1.5206,1.5056,1.513,1.5395,1.5395,1.5395,1.5339,1.4491,1.4192,1.4329,1.347,1.324,1.3506,1.3745,1.3859,1.3984,1.4685,1.5354,1.6003,1.6445,1.701,1.7347,1.5834,1.5299,1.5401,1.6117,1.6741,1.7213,1.7211,1.7269,1.7417,1.7705,1.7517,1.7505,1.8712,1.9391,1.9865,2.0277,2.074,2.1176,2.1422,2.1182,2.118,2.2018,2.1924,2.1958,2.2777,2.299,2.3121,2.3385,2.3754,2.4035,2.4182,2.4396,2.4519,2.4586,2.4599,2.4827,2.5394,2.5208,2.5249,2.5674,2.5758,2.5983,2.6385,2.6801,2.7311,2.7949,2.8743,2.919,2.9298,2.9298,2.9298,2.9298,2.9298,2.9298,2.9314,2.9568,2.9659,2.9674,2.9949,3.006,3.0208,3.1675,3.2762,3.3732,3.5306,3.6425,3.7094,0.0,0.0,0.0,0.0,0.0,0.0,0.0,0.0,0.0,0.0,0.0,0.0,0.0,0.0,0.0,0.0,0.0,0.0,0.0,1.453,1.4654,1.4773,1.5068,1.5202,1.5202,1.5229,1.5344,1.561,1.55,1.556,1.58,1.58,1.58,1.5783,1.5404,1.5336,1.5449,1.508,1.5072,0.0,0.0,1.5874,1.6032,1.6678,1.7148,1.7541,1.7976,1.8221,1.8197,1.7382,1.6828,1.6527,1.7033,1.7406,1.7626,1.7431,1.7522,1.7758,1.8107,1.8209,1.8467,1.9375,1.9966,2.0355,2.0515,2.083,2.1101,2.1261,2.1053,2.1128,2.2022,2.1842,2.188,2.2908,2.3067,2.3231,2.3639,2.3995,2.4249,2.4382,2.4506,2.4599,2.4599,2.4599,2.4857,2.5483,2.5483,2.574,2.629,2.6312,2.6436,2.6655,2.7056,2.7638,2.8346,2.8815,2.9154,2.9298,2.9457,2.9536,2.9536,2.9679,2.9743,2.9758,2.9949,3.0008,3.0097,3.079,3.1076,3.1261,3.2983,3.4036,3.4757,3.6127,3.7025,3.7598,0.0,0.0,0.0,0.0,0.0,0.0,0.0,0.0,0.0,0.0,1.5381,0.0,0.0,0.0,0.0,0.0,0.0,0.0,0.0,0.0,1.4976,1.5175,1.5443,1.5589,1.5562,1.5574,1.5742,1.5999,1.5802,1.5802,1.6016,1.6016,1.6016,1.6028,1.6258,1.6385,1.6431,1.668,1.6933,1.7283,1.781,1.812,1.8368,0.0,1.9136,1.9136,1.952,1.9347,1.8937,1.9175,1.8593,1.7763,1.7907,1.8101,1.8103,1.7514,1.7983,1.8577,1.7953,1.8676,1.9603,1.9711,2.0183,2.0637,2.0592,2.0799,2.1032,2.1032,2.0919,2.1061,2.1865,2.1628,2.171,2.3011,2.3042,2.3183,2.4026,2.4182,2.4315,2.4559,2.4599,2.4599,2.4599,2.4636,2.4857,2.5263,2.5653,2.6166,2.6874,2.6947,2.702,2.7093,2.7441,2.7985,2.8691,2.879,2.9021,2.9377,2.9727,2.9849,2.9865,3.0187,3.0315,3.0315,3.0511,3.0601,3.0729,3.1966,3.2462,3.2682,3.4884,3.5767,3.5948,3.7441,3.7972,3.8066,0.0,0.0,0.0,0.0,0.0,0.0,0.0,0.0,0.0,0.0,1.6448,1.6058,0.0,0.0,0.0,0.0,0.0,0.0,0.0,0.0,0.0,1.6084,1.6137,1.6057,1.5844,1.6049,1.6289,1.655,1.6738,1.6937,1.72,1.72,1.72,1.72,1.7248,1.7392,1.7625,1.7631,1.7973,1.8428,1.8539,1.8707,1.898,1.9367,1.9328,0.0,1.9788,1.9991,1.9905,1.9705,1.8656,1.7563,1.8075,1.8125,1.8046,1.8311,1.856,1.8766,1.9147,1.9412,1.9743,2.0284,2.0689,2.0935,2.0922,2.1117,2.1397,2.1683,2.1247,2.1179,2.25,2.2147,2.1992,2.2836,2.3118,2.3377,2.3794,2.4048,2.4315,2.4559,2.4599,2.4599,2.4599,2.4894,2.5263,2.5653,2.6056,2.6349,2.6509,2.6801,2.7165,2.7492,2.784,2.8238,2.8691,2.9278,2.9654,2.9743,3.0039,3.0198,3.0235,3.0246,3.0315,3.0368,3.17,3.228,3.2408,3.3871,3.4496,3.4645,3.6036,3.6606,3.6753,3.8018,3.8457,3.8476,0.0,0.0,0.0,0.0,0.0,0.0,0.0,1.8078,1.8126,1.8231,1.7964,1.7602,1.719,1.7512,1.7685,0.0,0.0,0.0,0.0,0.0,0.0,1.6497,1.6497,1.6444,1.6311,1.6748,1.695,1.6918,0.0,1.7545,1.7508,1.7508,1.7508,1.752,1.7653,1.7871,1.8125,1.827,1.856,1.8923,1.8923,1.8995,1.9136,1.9488,1.9711,0.0,2.0234,2.0366,2.0375,2.0205,1.9455,1.8594,1.8564,1.8356,1.8228,1.8783,1.8968,1.9048,1.9477,1.9871,2.0189,2.0507,2.0952,2.1363,2.1476,2.174,2.1964,2.2083,2.2082,2.2306,2.299,2.315,2.3327,2.3837,2.4026,2.4142,2.4291,2.438,2.4439,2.4586,2.4599,2.4599,2.4599,2.4968,2.5263,2.5483,2.6056,2.6509,2.6692,2.691,2.7239,2.7841,2.7987,2.8444,2.9236,2.9592,2.9871,3.0039,3.0442,3.0601,3.0601,3.0791,3.1211,3.1813,3.1955,3.2361,3.3057,3.4431,3.5007,3.5194,3.7015,3.7751,3.7824,3.8392,3.8611,3.8611,0.0,0.0,0.0,0.0,0.0,0.0,0.0,1.9045,1.9079,1.9235,1.9259,1.9143,1.879,1.8756,1.874,0.0,0.0,0.0,0.0,0.0,0.0,0.0,0.0,0.0,1.6985,0.0,0.0,1.7216,1.7753,0.0,0.0,0.0,0.0,0.0,1.7726,1.7943,1.8143,1.8396,1.8662,0.0,0.0,1.9088,1.9232,0.0,0.0,0.0,0.0,2.0634,2.0697,2.0602,2.0249,1.9742,1.9341,1.8914,1.8686,1.9175,1.9337,1.9437,1.9744,2.0189,2.0615,2.0776,2.1237,2.1756,2.2004,2.2298,2.249,2.2508,2.2918,2.3348,2.3485,2.4004,2.4522,2.484,2.4913,2.4905,2.4797,2.4778,2.471,2.4599,2.4599,2.4599,2.4599,2.5042,2.5364,2.5432,2.6226,2.6829,2.71,2.71,2.7453,2.8148,2.8148,2.8639,2.9788,2.9813,3.0031,3.0442,3.0845,3.102,3.102,3.1268,3.1916,3.2778,3.2108,3.2473,3.3689,3.4877,3.553,3.5978,3.7861,3.8611,3.8611,3.8611,3.8611,3.8611,0.0,0.0,0.0,0.0,0.0,0.0,0.0,1.9787,1.9811,1.9811,1.9836,1.9914,2.0181,2.0,1.9877,0.0,0.0,0.0,0.0,0.0,0.0,0.0,0.0,0.0,0.0,0.0,0.0,1.7558,1.7853,0.0,0.0,0.0,0.0,0.0,0.0,1.7556,1.7605,1.7871,0.0,0.0,0.0,0.0,0.0,0.0,0.0,0.0,0.0,2.0792,2.1014,2.0697,2.0388,2.0193,2.0396,2.0028,1.9574,1.963,1.9821,2.01,2.0412,2.0539,2.0731,2.1347,2.1737,2.2017,2.2311,2.2605,2.2899,2.3158,2.3273,2.3485,2.4108,2.4331,2.4522,2.484,2.5142,2.523,2.4869,2.4998,2.5005,2.4636,2.4599,2.4599,2.4599,2.5286,2.5875,2.6168,2.7162,2.7655,2.7489,2.7437,2.7755,2.8439,2.8454,2.8882,2.9697,3.0009,3.0391,3.0861,3.1172,3.1347,3.1347,3.1379,3.1472,3.1609,3.2604,3.3727,3.4932,3.6145,3.7291,3.8282,3.8501,3.8611,3.8611,3.8611,3.8611,3.8611,0.0,0.0,0.0,0.0,0.0,0.0,2.0391,2.0496,2.0416,2.0234,2.0028,1.9948,2.0075,2.0009,2.0106,2.0528,0.0,0.0,0.0,0.0,0.0,0.0,0.0,0.0,0.0,0.0,1.8784,1.8378,1.849,0.0,0.0,0.0,0.0,0.0,0.0,1.7778,1.8305,1.8416,0.0,0.0,0.0,0.0,0.0,0.0,0.0,0.0,0.0,0.0,2.1077,2.0951,2.0821,2.0773,2.0861,2.0745,2.0496,2.0307,2.0334,2.0425,2.057,2.0892,2.1275,2.1523,2.193,2.2351,2.2693,2.2984,2.3351,2.3859,2.4323,2.4756,2.5242,2.5669,2.6027,2.6135,2.6091,2.5872,2.5472,2.529,2.5042,2.4636,2.4599,2.4666,2.489,2.5425,2.6071,2.6852,2.7537,2.7941,2.8052,2.7838,2.8056,2.8783,2.8798,2.9306,3.0358,3.0498,3.0768,3.1188,3.1331,3.1395,3.1395,3.1395,3.2184,3.3592,3.3546,3.4661,3.6492,3.7277,3.7878,3.8366,3.9095,3.9375,3.9375,3.9375,3.9375,3.9338,0.0,0.0,0.0,0.0,0.0,2.0091,2.0645,2.0836,2.0804,2.0575,2.0171,1.9964,2.0187,2.0012,2.0171,2.0836,2.0719,0.0,0.0,0.0,0.0,0.0,0.0,0.0,0.0,0.0,1.9723,1.9308,1.9223,1.8997,0.0,0.0,1.8006,1.7918,0.0,0.0,0.0,0.0,0.0,0.0,0.0,0.0,0.0,0.0,0.0,0.0,0.0,0.0,0.0,0.0,0.0,2.1109,2.1109,2.1162,2.1197,2.085,2.0761,2.0787,2.0866,2.1229,2.1622,2.1796,2.2111,2.2546,2.3011,2.3426,2.3866,2.4414,2.5228,2.5861,2.6085,2.6619,2.6983,2.6983,2.6655,2.6312,2.6019,2.563,2.5263,2.5005,2.4938,2.4958,2.513,2.5667,2.6428,2.7383,2.7902,2.8291,2.8525,2.8435,2.8597,2.9126,2.9141,2.9684,3.0778,3.0794,3.101,3.1395,3.1395,3.1587,3.1916,3.2068,3.325,3.5147,3.4734,3.5713,3.7613,3.795,3.8291,3.8728,3.9581,3.9902,3.9902,3.9902,3.9902,3.9845,0.0,0.0,0.0,0.0,0.0,0.0,2.0337,2.0702,2.0899,2.0899,2.0305,2.0155,2.0804,2.0314,2.0171,2.0836,2.0899,0.0,0.0,0.0,0.0,0.0,0.0,0.0,0.0,0.0,2.081,2.0299,1.9953,1.9635,1.929,1.9261,1.9129,1.8881,0.0,0.0,0.0,0.0,0.0,0.0,0.0,0.0,2.0647,0.0,0.0,0.0,0.0,0.0,0.0,0.0,0.0,0.0,0.0,2.1341,2.1529,2.1203,2.1077,2.1176,2.1502,2.1582,2.1729,2.2271,2.2418,2.2566,2.3236,2.3915,2.4498,2.4806,2.5734,2.6459,2.6401,2.6728,2.6983,2.6983,2.6655,2.6399,2.6385,2.6056,2.58,2.58,2.5746,2.5568,2.523,2.6149,2.7078,2.7735,2.8477,2.8886,2.8886,2.9275,2.9484,2.9484,2.9484,2.9912,3.0778,3.0794,3.101,3.1395,3.1395,3.2031,3.3213,3.3605,3.4427,3.563,3.6098,3.697,3.81,3.81,3.8804,3.9902,3.9902,3.9902,3.9902,3.9902,3.9902,3.9786,0.0,0.0,0.0,0.0,0.0,0.0,0.0,2.11,2.1084,2.0868,2.0493,2.025,2.0219,2.0234,2.0396,2.0795,2.0883,0.0,0.0,0.0,0.0,0.0,0.0,0.0,0.0,0.0,2.1101,2.0917,2.0399,2.0097,1.9982,1.9506,1.9264,1.9168,1.9168,1.9412,0.0,0.0,0.0,0.0,0.0,2.0951,2.0951,0.0,0.0,0.0,0.0,0.0,0.0,0.0,0.0,0.0,0.0,0.0,0.0,2.1475,2.1582,2.1737,2.185,2.2024,2.2191,2.2378,2.2565,2.2942,2.3584,2.3729,2.4094,2.5364,2.5755,2.6019,2.6699,2.691,2.691,2.6619,2.6473,2.6312,2.6019,2.5616,2.5492,2.5699,2.584,2.5749,2.5453,2.6606,2.7473,2.7636,2.8438,2.9003,2.929,2.9173,2.9212,2.9484,3.0082,3.0508,3.0794,3.1087,3.1686,3.2626,3.2626,3.3272,3.4444,3.4566,3.5279,3.644,3.7213,3.8214,3.9393,3.9971,4.0453,4.08,4.08,4.08,4.0762,4.0434,4.0318,4.0183,0.0,0.0,0.0,0.0,0.0,0.0,0.0,2.1313,2.1389,2.1161,2.0864,2.0676,2.0596,2.0561,2.0723,2.1103,2.1103,0.0,0.0,0.0,0.0,0.0,0.0,0.0,0.0,2.1807,2.1717,2.1717,2.1232,2.0931,2.0816,2.0414,2.0065,1.9818,1.9838,2.0054,0.0,0.0,0.0,0.0,2.1109,2.1109,2.1109,0.0,0.0,0.0,0.0,0.0,0.0,0.0,0.0,0.0,0.0,0.0,0.0,0.0,2.2235,2.2665,2.2244,2.2285,2.2445,2.2565,2.2942,2.3391,2.3853,2.4164,2.4652,2.5603,2.5846,2.6076,2.6698,2.6808,2.6765,2.6641,2.6363,2.6129,2.6056,2.6192,2.6427,2.6739,2.6361,2.5951,2.573,2.7087,2.7859,2.7619,2.8847,2.9586,2.9484,2.9873,3.0105,3.0222,3.0276,3.0701,3.1472,3.1725,3.2473,3.3651,3.3802,3.4501,3.5662,3.5824,3.657,3.7759,3.8462,3.9203,0.0,4.0644,4.0918,4.0918,4.0918,4.0918,4.086,4.026,4.0048,3.9932,0.0,0.0,0.0,0.0,0.0,0.0,0.0,2.1359,2.1725,2.1725,2.1453,2.1345,2.1667,2.1202,2.1112,2.1667,0.0,0.0,0.0,0.0,0.0,0.0,0.0,0.0,2.2564,2.2635,2.2655,2.2655,2.2286,2.1974,2.1732,2.1747,2.1448,2.0831,2.0883,2.0881,0.0,0.0,0.0,0.0,2.1141,2.1141,0.0,0.0,0.0,0.0,0.0,0.0,0.0,0.0,0.0,0.0,0.0,0.0,0.0,0.0,0.0,0.0,0.0,2.2546,2.2613,2.2963,2.3487,2.3935,2.4118,2.5121,0.0,2.5681,2.6117,2.6578,2.6608,2.6608,2.6675,2.6976,2.6422,2.6056,2.6487,2.7512,2.8267,2.8402,2.7183,2.6216,2.601,2.747,2.8216,2.7698,2.9586,3.0438,2.9718,3.1187,3.1916,3.1571,3.0376,3.067,3.2626,3.2685,3.3293,3.4481,3.4857,3.5699,3.6904,3.7259,3.8082,3.918,3.9648,3.9844,3.9883,4.0312,4.045,4.0489,4.0489,4.0508,4.0393,3.9623,3.9317,3.9165,0.0,0.0,0.0,0.0,0.0,0.0,0.0,0.0,0.0,0.0,2.1744,2.1601,2.1683,2.1567,2.1626,0.0,0.0,0.0,0.0,0.0,0.0,0.0,0.0,0.0,2.3195,2.325,2.3275,2.3275,2.2485,2.2059,2.2002,2.2318,2.2358,2.2186,2.2707,2.2487,0.0,0.0,0.0,0.0,2.1677,2.1551,0.0,0.0,0.0,0.0,2.1677,2.1551,0.0,0.0,0.0,0.0,0.0,0.0,0.0,0.0,2.4175,2.4718,2.4477,0.0,2.3766,2.4345,2.4246,2.4243,0.0,2.5869,2.6186,2.6638,2.7103,2.7511,2.7742,2.7555,2.734,2.7382,2.7209,2.737,2.8047,2.8798,2.8626,2.6889,2.7606,2.7639,2.6167,2.7707,2.8618,2.8157,2.9455,3.0616,3.1379,3.2091,3.2685,3.3234,3.2342,3.2266,3.3044,3.3386,3.4125,3.5306,3.5418,3.6238,3.7696,3.7811,3.818,3.875,3.918,3.9355,3.9394,3.9844,4.0234,4.0489,4.0489,4.0492,4.0433,3.9949,3.9579,3.9209,0.0,0.0,0.0,0.0,0.0,0.0,0.0,0.0,0.0,0.0,0.0,2.2106,2.2106,2.1979,0.0,0.0,0.0,0.0,0.0,0.0,0.0,0.0,0.0,2.3403,2.3403,2.36,2.3669,2.3669,2.3163,2.2881,2.274,2.3126,2.322,2.3085,2.3593,2.3535,0.0,0.0,2.2731,2.2261,2.248,0.0,0.0,0.0,0.0,0.0,2.2418,2.2324,0.0,2.2856,2.2856,2.2606,0.0,0.0,0.0,0.0,2.4668,2.5331,2.5465,2.5003,2.4529,2.4902,2.4984,2.5213,2.6109,2.6465,2.6709,2.7273,2.7376,2.7589,2.8091,2.7904,2.7803,2.8239,2.8331,2.8837,3.0324,2.9866,2.9253,2.8882,2.9218,2.8972,2.7817,2.9453,3.0268,2.947,3.1062,3.2152,3.2261,3.318,3.3823,3.4067,3.42,3.42,3.4029,3.4255,3.4969,3.6163,3.6349,3.6997,3.7991,3.798,3.8315,3.8887,3.913,3.9325,3.9551,4.0,4.0312,4.0489,4.0278,4.0221,4.0124,3.9313,3.8907,3.8654,0.0,0.0,0.0,0.0,0.0,0.0,0.0,0.0,0.0,0.0,0.0,0.0,0.0,0.0,0.0,0.0,0.0,0.0,0.0,0.0,0.0,0.0,2.3559,2.3623,2.3623,2.3895,2.4033,2.4033,2.3998,2.3891,2.3654,2.4073,2.4169,2.4076,2.4299,2.4345,0.0,0.0,2.3728,2.3573,2.3355,0.0,0.0,0.0,0.0,0.0,0.0,0.0,0.0,2.3324,2.3324,2.3261,2.3355,0.0,0.0,0.0,0.0,0.0,2.6206,2.5944,2.5535,2.539,2.5733,2.6231,2.6672,2.6985,2.7316,2.772,2.7586,2.7613,2.8278,2.8182,2.834,2.9317,2.9661,3.0498,3.2399,3.0975,3.0269,3.1722,3.1026,3.03,2.9816,3.1424,3.2021,3.0886,3.2914,3.384,3.293,3.4331,3.5044,3.4707,3.568,3.5902,3.5283,3.523,3.5716,3.6794,3.7146,3.7554,3.7999,3.8008,3.844,3.9205,3.9199,3.9448,3.9922,4.0273,4.043,4.0355,4.0048,3.9855,3.9682,3.859,3.8152,3.8092,0.0,0.0,0.0,0.0,0.0,0.0,0.0,0.0,0.0,0.0,0.0,0.0,0.0,0.0,0.0,0.0,0.0,0.0,0.0,0.0,0.0,2.4064,2.4412,2.4588,2.4588,2.4657,2.4646,2.4646,2.4501,2.4395,2.4355,2.5043,2.5641,2.6138,2.5904,2.5483,2.4949,0.0,2.4394,2.3604,2.3852,0.0,0.0,0.0,0.0,0.0,0.0,0.0,0.0,2.4425,2.4425,2.4053,2.461,0.0,0.0,0.0,0.0,0.0,2.7018,2.7642,2.8055,2.7097,2.6496,2.6369,2.7306,2.7568,2.772,2.8114,2.8596,2.9,2.9159,2.9421,2.9706,3.0149,3.133,3.2291,3.2554,3.2597,3.2173,3.106,3.1715,3.1638,3.0176,3.1261,3.1884,3.1309,3.2593,3.3596,3.4105,3.5344,3.5978,3.594,3.6089,3.6309,3.6506,3.6197,3.6272,3.6826,3.6864,3.7256,3.8008,3.8006,3.8444,3.9201,3.9183,3.9448,3.9902,3.9961,4.0005,3.9971,3.9932,3.9679,3.9357,3.9183,3.885,3.8514,0.0,0.0,0.0,0.0,0.0,0.0,0.0,0.0,0.0,0.0,0.0,0.0,0.0,0.0,0.0,0.0,0.0,0.0,0.0,0.0,2.3776,2.4186,2.4374,2.4579,2.4785,2.4785,2.4785,2.4785,2.4935,2.4991,2.5008,2.575,2.6367,2.6861,2.6692,2.6479,2.6175,2.5809,2.5364,2.4934,0.0,0.0,0.0,0.0,0.0,0.0,0.0,0.0,0.0,0.0,2.4888,2.4703,2.5011,0.0,0.0,0.0,0.0,0.0,2.7089,2.7579,2.7927,2.7848,2.8142,2.8636,2.932,2.9493,2.958,2.9729,2.9851,2.9952,2.9936,2.9936,3.0273,3.1448,3.244,3.3137,3.3535,3.3566,3.3354,3.2762,3.3213,3.3289,3.2495,3.3142,3.3445,3.3044,3.3936,3.4652,3.5044,3.5978,3.6497,3.6493,3.6718,3.6958,3.7116,3.7198,3.733,3.7515,3.7515,3.7798,3.8386,3.84,3.8839,3.9567,3.9567,3.9952,4.0586,4.0586,4.0453,4.0182,4.0007,3.9653,3.9272,3.9035,3.8798,3.86,0.0,0.0,0.0,0.0,0.0,0.0,0.0,0.0,0.0,0.0,0.0,0.0,0.0,0.0,0.0,0.0,0.0,0.0,0.0,2.3297,2.3604,2.4186,2.4289,2.4477,2.4785,2.4785,2.4785,2.4785,2.5189,2.5492,2.568,2.6349,2.6812,2.7103,2.7103,2.7103,2.7043,2.6479,2.6219,2.6175,0.0,0.0,0.0,0.0,0.0,0.0,0.0,0.0,0.0,0.0,0.0,0.0,0.0,0.0,0.0,2.6025,2.636,2.6631,2.7091,2.7464,2.7862,2.8428,2.9362,3.0242,3.0772,3.0925,3.0992,3.1098,3.1096,3.0934,3.0616,3.0463,3.0961,3.2557,3.3247,3.3759,3.4319,3.4254,3.4222,3.4368,3.4478,3.4516,3.4403,3.4762,3.4819,3.4441,3.5137,3.5605,3.5605,3.6275,3.6664,3.6677,3.7033,3.7349,3.7544,3.8001,3.8248,3.8248,3.8363,3.8592,3.8993,3.8968,3.939,4.0048,4.0024,4.049,4.1211,4.1211,4.088,4.0314,4.002,3.9588,3.9075,3.8719,3.86,3.86,0.0,0.0,0.0,0.0,0.0,0.0,0.0,0.0,0.0,0.0,0.0,0.0,0.0,0.0,0.0,0.0,0.0,0.0,0.0,2.3956,2.4152,2.4203,2.4562,2.4768,2.4785,2.4785,2.4785,2.4785,2.5189,2.5749,2.6452,2.6863,2.7069,2.7103,2.7103,2.7103,2.7073,2.6722,2.6571,2.651,2.5825,0.0,0.0,0.0,0.0,0.0,0.0,0.0,0.0,0.0,0.0,0.0,0.0,0.0,2.612,2.62,2.6857,2.7552,2.7284,2.821,2.9245,2.9312,2.9177,2.9261,3.0208,3.0514,3.0736,3.1409,3.2139,3.2277,3.1162,3.1478,3.2232,3.3115,3.3868,3.4354,3.4386,3.4707,3.4802,3.4441,3.4724,3.4799,3.4441,3.4762,3.4819,3.4441,3.5137,3.5605,3.5605,3.6015,3.6256,3.6256,3.6622,3.7216,3.8023,3.8434,3.8659,3.8659,3.9027,3.9429,3.9826,3.9806,4.0041,4.0471,4.0451,4.0763,4.1211,4.1211,4.0704,3.9941,3.9902,3.9391,3.864,3.86,3.86,3.86,0.0,0.0,0.0,0.0,0.0,0.0,0.0,0.0,0.0,0.0,0.0,0.0,0.0,0.0,0.0,0.0,0.0,0.0,0.0,2.3829,2.399,2.4203,2.4579,2.4932,2.5183,2.4932,2.4932,2.5155,2.5532,2.5977,2.6491,2.6914,2.6966,2.676,2.7,2.7103,2.7073,2.6722,2.6601,2.6571,2.6114,2.5778,0.0,0.0,0.0,0.0,0.0,0.0,0.0,0.0,2.5426,2.5489,2.5884,2.6065,2.6278,2.6954,2.7117,2.7211,2.7734,2.8627,2.9496,2.9915,3.0662,3.1351,3.1748,3.2406,3.2862,3.2696,3.2885,3.2705,3.1562,3.2578,3.3554,3.3349,3.4352,3.5038,3.4802,3.5119,3.5306,3.5174,3.5269,3.5306,3.5174,3.5269,3.5306,3.5174,3.5418,3.5717,3.594,3.6349,3.67,3.6952,3.7346,3.7829,3.8416,3.8857,3.9069,3.9088,3.9734,4.0122,4.0275,4.0275,4.0353,4.0509,4.0509,4.0763,4.1211,4.1211,4.0841,4.0197,3.9745,3.9154,3.86,3.86,3.86,3.86,0.0,0.0,0.0,0.0,0.0,0.0,0.0,0.0,0.0,0.0,0.0,0.0,0.0,0.0,0.0,0.0,0.0,0.0,2.3836,2.3983,2.4196,2.4573,2.4847,2.5223,2.5732,2.536,2.5264,2.5549,2.5925,2.6234,2.6491,2.6914,2.6966,2.6709,2.6983,2.7103,2.7073,2.6861,2.677,2.6722,2.6388,2.6114,0.0,0.0,0.0,0.0,0.0,0.0,0.0,0.0,2.6043,2.6298,2.6763,2.6871,2.6899,2.752,2.7442,2.7279,2.7802,2.8494,2.9224,3.0023,3.1202,3.2298,3.2748,3.3558,3.4059,3.3539,3.3446,3.327,3.277,3.3659,3.4324,3.3777,3.4772,3.5446,3.5046,3.5456,3.5754,3.5605,3.5717,3.5754,3.5605,3.5717,3.5754,3.5605,3.5717,3.5958,3.6365,3.6626,3.6996,3.7411,3.7942,3.8392,3.8832,3.9394,3.9745,3.9902,4.0451,4.0627,4.0509,4.0509,4.0588,4.0724,4.0724,4.088,4.1211,4.1211,4.0841,4.0236,3.9569,3.8996,3.86,3.86,3.8679,3.8798,0.0,0.0,0.0,0.0,0.0,0.0,0.0,0.0,0.0,0.0,0.0,0.0,0.0,0.0,0.0,0.0,0.0,0.0,2.4203,2.4579,2.4984,2.5389,2.5406,2.5749,2.6473,2.6102,2.5914,2.5914,2.6302,2.6473,2.6491,2.6914,2.7103,2.7103,2.7103,2.7103,2.7103,2.7103,2.7103,2.7073,2.6722,2.6601,2.6571,0.0,0.0,0.0,0.0,0.0,0.0,0.0,2.7051,2.7604,2.7604,2.7914,2.8235,2.7831,2.7928,2.8074,2.7409,2.7718,2.8498,2.9622,3.0481,3.1416,3.2863,3.3505,3.3817,3.3817,3.3848,3.4141,3.4845,3.4721,3.4531,3.4494,3.513,3.5456,3.5082,3.5717,3.6052,3.5642,3.594,3.6052,3.5642,3.5978,3.6015,3.5642,3.5996,3.6402,3.6786,3.6805,3.6988,3.7411,3.8259,3.889,3.9297,4.0103,4.0724,4.1172,4.1172,4.0958,4.0509,4.0509,4.0763,4.1211,4.1211,4.1211,4.1211,4.1211,4.0704,3.9863,3.9469,3.9035,3.86,3.86,3.8917,3.9233,0.0,0.0,0.0,0.0,0.0,0.0,0.0,0.0,0.0,0.0,0.0,0.0,0.0,0.0,0.0,0.0,0.0,0.0,2.4597,2.5001,2.5286,2.5389,2.5903,2.6131,2.6068,2.5965,2.6033,2.6319,2.6165,2.6068,2.6085,2.6491,2.6525,2.6273,2.6833,2.7103,2.7103,2.7103,2.7103,2.7103,2.6982,2.6952,2.6921,0.0,0.0,0.0,0.0,0.0,0.0,0.0,0.0,0.0,2.8552,2.8863,2.9028,2.9157,2.8899,2.8638,2.8688,2.9399,3.0335,3.0939,3.2039,3.307,3.3541,3.3725,3.389,3.4165,3.4692,3.5005,3.4685,3.5468,3.587,3.5045,3.5556,3.5978,3.5866,3.6052,3.6163,3.6052,3.6126,3.6163,3.6015,3.6401,3.6566,3.6453,3.684,3.7118,3.7208,3.7208,3.7563,3.8277,3.8563,3.904,3.9713,3.9963,4.0137,4.0294,4.0294,4.0529,4.0997,4.0997,4.1055,4.1211,4.1211,4.1211,4.1211,4.1211,4.0704,3.9863,3.9784,3.9272,3.864,3.8956,3.9193,3.9312,0.0,0.0,0.0,0.0,0.0,0.0,0.0,0.0,0.0,0.0,2.3606,0.0,0.0,0.0,0.0,0.0,0.0,0.0,0.0,2.52,2.5457,2.5583,2.6028,2.6234,2.6136,2.6236,2.6425,2.676,2.6471,2.6399,2.6487,2.6779,2.6772,2.6535,2.6927,2.7103,2.7103,2.7207,2.7267,2.7267,2.7388,2.7466,2.7435,0.0,0.0,0.0,0.0,0.0,0.0,0.0,0.0,0.0,2.9462,2.977,2.986,2.9483,2.928,2.9139,2.8937,2.977,3.0936,3.1612,3.2606,3.3461,3.3927,3.3927,3.3927,3.433,3.4911,3.5279,3.5012,3.5815,3.6349,3.5649,3.5906,3.6201,3.6201,3.6201,3.6201,3.6201,3.6347,3.642,3.642,3.6786,3.7043,3.7043,3.7244,3.7464,3.7611,3.7629,3.8045,3.89,3.8939,3.9265,3.9902,4.0059,4.0137,4.0137,4.0333,4.0704,4.1172,4.0997,4.1016,4.1211,4.1211,4.1211,4.1211,4.1211,4.0704,3.9902,4.0098,3.9627,3.8917,3.9391,3.9666,3.9765,0.0,0.0,0.0,0.0,0.0,0.0,0.0,0.0,0.0,0.0,2.3615,2.3958,0.0,0.0,0.0,0.0,0.0,0.0,0.0,2.5308,2.5669,2.5983,2.6001,2.6172,2.6562,2.6752,2.6937,2.7121,2.7019,2.7099,2.7364,2.7402,2.7439,2.7499,2.725,2.7164,2.7194,2.7431,2.7551,2.7581,2.79,2.802,2.805,2.802,0.0,0.0,0.0,0.0,0.0,0.0,0.0,0.0,3.0259,3.0551,3.0671,2.9302,2.9387,2.9694,2.8711,2.9465,3.0781,3.1902,3.2515,3.3126,3.4168,3.4147,3.4037,3.444,3.4825,3.5174,3.5595,3.5962,3.6201,3.6201,3.6201,3.6201,3.6201,3.6237,3.6256,3.6256,3.6603,3.686,3.686,3.7208,3.7446,3.7446,3.7482,3.7647,3.8053,3.8032,3.8432,3.9333,3.9351,3.9588,4.002,4.0392,4.0548,4.0588,4.1016,4.1211,4.1172,4.0763,4.0802,4.1211,4.1211,4.1211,4.1211,4.1211,4.0704,3.9981,4.0353,4.004,3.9391,3.9823,4.0216,4.047,0.0,0.0,0.0,0.0,0.0,0.0,0.0,0.0,0.0,0.0,0.0,0.0,0.0,0.0,0.0,0.0,0.0,0.0,0.0,2.6246,2.6606,2.6677,2.6694,2.687,2.727,2.6784,2.6748,2.726,2.683,2.6757,2.7069,2.6843,2.6997,2.7517,2.7459,2.7569,2.781,2.787,2.79,2.79,2.796,2.814,2.8367,2.811,0.0,0.0,0.0,0.0,0.0,0.0,0.0,0.0,3.0662,3.0961,3.118,3.0599,3.0552,3.0628,3.0437,3.0811,3.1478,3.2349,3.33,3.4078,3.4331,3.4587,3.4844,3.5284,3.543,3.5577,3.6017,3.6146,3.6201,3.6201,3.6201,3.6201,3.6201,3.6457,3.6658,3.6658,3.7024,3.7263,3.7263,3.7611,3.7888,3.7888,3.816,3.838,3.8472,3.8472,3.8864,3.9745,3.9784,4.0137,4.0899,4.1016,4.1055,4.1055,4.1133,4.1211,4.1211,4.1094,4.1094,4.1211,4.1211,4.1211,4.1211,4.1211,4.088,4.0392,4.047,4.0197,3.9823,4.0197,4.0431,4.0548,0.0,0.0,0.0,0.0,0.0,0.0,0.0,0.0,0.0,0.0,0.0,0.0,0.0,0.0,0.0,0.0,0.0,0.0,0.0,0.0,2.6996,2.7191,2.7307,2.7425,2.7523,2.7044,2.7013,2.7354,2.7082,2.717,2.7658,2.7511,2.7629,2.7973,2.7811,2.784,2.802,2.817,2.8229,2.8247,2.8409,2.8715,2.8998,2.8847,0.0,0.0,2.9337,0.0,0.0,0.0,0.0,0.0,0.0,0.0,3.1272,3.0538,3.0701,3.111,3.1001,3.149,3.2281,3.3248,3.3952,3.4495,3.4899,3.5155,3.5394,3.5815,3.5724,3.5705,3.6127,3.6201,3.6201,3.6201,3.6384,3.6512,3.6512,3.6823,3.7079,3.7079,3.7428,3.7704,3.7704,3.8032,3.827,3.827,3.8472,3.86,3.86,3.8798,3.9233,3.9863,3.9902,4.0216,4.0841,4.088,4.088,4.088,4.1094,4.1211,4.1211,4.1211,4.1211,4.1211,4.1211,4.1211,4.1211,4.1211,4.0919,4.0509,4.0763,4.0568,4.0197,4.0431,4.0509,4.0509,0.0,0.0,0.0,0.0,0.0,0.0,0.0,0.0,0.0,0.0,0.0,0.0,0.0,0.0,0.0,0.0,0.0,0.0,0.0,0.0,0.0,2.7741,2.7838,2.7802,2.7669,2.7409,2.7409,2.757,2.7511,2.784,2.8498,2.8443,2.8487,2.8576,2.8229,2.811,2.8199,2.8457,2.8576,2.8606,2.8904,2.9207,2.9501,2.9501,2.9758,3.0057,2.9813,2.9947,3.0314,3.0387,0.0,0.0,0.0,0.0,3.1217,3.0257,3.0656,3.1382,3.1237,3.1986,3.3065,3.4128,3.4458,3.4697,3.5412,3.5632,3.5815,3.6146,3.5944,3.5815,3.6146,3.6274,3.6311,3.6311,3.6566,3.6823,3.6896,3.7189,3.7391,3.7391,3.7872,3.8207,3.8151,3.848,3.8719,3.8719,3.864,3.864,3.8719,3.9075,3.9509,3.9981,4.002,4.0216,4.0627,4.0627,4.0627,4.0627,4.0997,4.1211,4.1211,4.1211,4.1211,4.1211,4.1211,4.1211,4.1211,4.1211,4.0958,4.0627,4.0958,4.0841,4.0509,4.0431,4.0392,4.0353,0.0,0.0,0.0,0.0,0.0,0.0,0.0,0.0,0.0,0.0,2.6273,2.6364,0.0,0.0,0.0,0.0,0.0,0.0,2.6549,0.0,0.0,2.8776,2.8165,2.7964,2.8272,2.764,2.7611,2.8272,2.7962,2.8201,2.8902,2.8331,2.8379,2.8934,2.8576,2.8606,2.8856,2.8916,2.8916,2.8934,2.8975,2.9042,2.9097,2.9097,2.9335,2.9721,3.0002,3.0369,3.0754,3.1102,3.1281,0.0,0.0,0.0,3.1359,3.1217,3.1286,3.1524,3.2206,3.2994,3.378,3.4275,3.4678,3.5028,3.5486,3.5889,3.6146,3.6201,3.6164,3.6146,3.6201,3.6475,3.6713,3.6713,3.6768,3.6915,3.7263,3.7354,3.7391,3.7391,3.8402,3.9009,3.8656,3.8952,3.9233,3.9233,3.8838,3.8758,3.9193,3.9272,3.9647,4.0392,4.0431,4.0646,4.1094,4.1094,4.1094,4.1094,4.1172,4.1211,4.1211,4.1211,4.1211,4.1211,4.1211,4.1211,4.1211,4.1211,4.1172,4.1094,4.0724,4.0548,4.047,4.0098,3.9981,3.9981,0.0,0.0,0.0,0.0,0.0,0.0,0.0,0.0,0.0,0.0,0.0,2.6935,0.0,0.0,0.0,2.6436,2.661,2.6921,2.7392,2.7577,2.7947,2.8539,2.8063,2.7885,2.8069,2.776,2.7742,2.8069,2.8133,2.8363,2.8663,2.8587,2.8707,2.8975,2.8845,2.8874,2.9005,2.9005,2.9005,2.9005,2.9005,2.9517,3.0242,2.9837,3.034,3.1217,3.072,3.0791,3.1134,3.1098,3.1194,3.141,3.141,0.0,0.0,0.0,3.141,3.1593,3.2368,3.3358,3.4238,3.466,3.5028,3.5431,3.5815,3.6091,3.6274,3.6475,3.653,3.653,3.653,3.686,3.7134,3.7134,3.7318,3.7519,3.7684,3.7759,3.7759,3.7759,3.8461,3.8901,3.8715,3.9069,3.9391,3.9627,3.9233,3.9193,3.9627,3.9844,4.0118,4.0509,4.0763,4.0997,4.1211,4.1211,4.1211,4.1211,4.1211,4.1211,4.1211,4.1211,4.1211,4.1211,4.1211,4.1211,4.1211,4.1211,4.1055,4.0802,4.0588,4.0353,4.0137,3.9706,3.9706,3.9863,0.0,0.0,0.0,0.0,0.0,0.0,0.0,0.0,0.0,0.0,0.0,0.0,0.0,0.0,0.0,0.0,2.7261,2.7465,2.7973,2.7762,2.7819,2.8321,2.7955,2.7795,2.7958,2.7813,2.7842,2.7958,2.8242,2.8443,2.8553,2.8876,2.9005,2.9005,2.9005,2.9005,2.9005,2.9005,2.9078,2.917,2.937,3.0198,3.1239,3.0568,3.1143,3.2134,3.1059,3.0932,3.1226,3.1043,3.1139,3.141,3.141,3.141,0.0,0.0,0.0,3.1671,3.2276,3.3248,3.422,3.4859,3.5246,3.5595,3.6202,3.6275,3.6329,3.6713,3.6878,3.6988,3.7079,3.7336,3.7537,3.7537,3.7776,3.8053,3.8124,3.7998,3.7906,3.7998,3.8483,3.8812,3.8696,3.9148,3.9548,3.9745,3.9351,3.9312,3.9745,4.0137,4.0392,4.0509,4.0958,4.1211,4.1211,4.1211,4.1211,4.1211,4.1211,4.1211,4.1211,4.1211,4.1211,4.1211,4.1211,4.1211,4.1211,4.1211,4.0997,4.0666,4.0548,4.0314,4.002,3.9588,3.9627,3.9863,0.0,0.0,0.0,0.0,0.0,0.0,0.0,0.0,0.0,0.0,0.0,0.0,2.8083,2.7932,2.791,2.8018,2.766,2.7576,2.7954,2.7762,2.7949,2.8731,2.8014,0.0,2.8381,2.7854,2.7854,2.837,2.8388,2.859,2.8986,2.9005,2.9005,2.9005,2.9005,2.9005,2.9005,2.9005,2.9225,2.9641,3.0334,3.0885,3.1239,3.0829,3.0959,3.1263,3.0493,3.0479,3.0882,3.1263,3.1391,3.141,3.141,3.141,3.141,0.0,0.0,0.0,3.2019,3.2609,3.3537,3.4713,3.5001,3.5338,3.6515,3.646,3.6329,3.6713,3.7098,3.7464,3.7888,3.7961,3.7979,3.7979,3.7998,3.8124,3.8508,3.7904,3.7556,3.7961,3.8755,3.9104,3.8754,3.9421,3.9706,3.9351,3.8917,3.8838,3.9312,3.9706,4.0098,4.0509,4.0958,4.1211,4.1211,4.1211,4.1211,4.1211,4.1211,4.1211,4.1211,4.1211,4.1211,4.1211,4.1211,4.1211,4.1211,4.1211,4.1172,4.1133,4.0666,4.0509,4.0431,4.002,3.9863,3.9902,0.0,0.0,0.0,0.0,0.0,0.0,0.0,0.0,0.0,0.0,0.0,0.0,0.0,2.8375,2.8479,2.8013,2.7814,2.7857,2.8172,2.8189,2.8309,2.8595,2.8408,2.8314,2.8271,2.8339,2.8383,2.8388,2.8645,2.8965,2.9331,2.9331,2.9569,2.9991,2.9312,2.926,2.968,2.9481,2.975,3.034,3.0872,3.1639,3.2394,3.1707,3.2033,3.2668,3.1418,3.0882,3.0809,3.0987,3.0992,3.0992,3.0992,3.1208,3.141,3.141,3.1671,3.2001,3.2001,3.279,3.3704,3.4119,3.5239,3.6182,3.6054,3.6571,3.7053,3.7174,3.7299,3.7592,3.8252,3.838,3.838,3.838,3.838,3.8343,3.8215,3.7739,3.7561,3.8016,3.8573,3.8974,3.9085,3.9578,3.9941,4.004,3.9666,3.9745,4.049,4.0665,4.0821,4.0919,4.1094,4.1211,4.1211,4.1211,4.1211,4.1211,4.1211,4.1211,4.1211,4.1211,4.1211,4.1211,4.1211,4.1211,4.1211,4.1211,4.1016,4.0724,4.0588,4.0353,4.0098,3.9941,4.0059,4.0313,0.0,0.0,0.0,0.0,0.0,0.0,0.0,0.0,0.0,0.0,0.0,0.0,0.0,0.0,2.8876,2.8505,2.8466,2.8548,2.8711,2.8729,2.8776,2.893,2.8868,2.8804,2.8773,2.902,2.9054,2.8912,2.9172,2.942,2.9627,2.9627,2.9971,3.0577,2.9845,2.9897,3.0471,3.0118,3.0235,3.0767,3.1583,3.2375,3.306,3.2499,3.2808,3.3317,3.1759,3.1198,3.122,3.1497,3.1778,3.1916,3.1658,3.1525,3.141,3.141,3.1579,3.1799,3.1799,3.2588,3.3466,3.375,3.485,3.5867,3.5814,3.6257,3.6793,3.7302,3.7391,3.7629,3.8453,3.8719,3.8758,3.864,3.849,3.8289,3.8053,3.7629,3.7561,3.8016,3.8554,3.9012,3.9273,3.981,4.0177,4.0275,4.0059,4.0137,4.0743,4.088,4.1055,4.1211,4.1211,4.1211,4.1211,4.1211,4.1211,4.1211,4.1211,4.1211,4.1211,4.1211,4.1211,4.1211,4.1211,4.1211,4.1211,4.1211,4.1016,4.0724,4.0724,4.0568,4.0352,4.0505,4.0701,4.0975,0.0,0.0,0.0,0.0,0.0,0.0,0.0,0.0,0.0,2.8526,0.0,0.0,0.0,0.0,0.0,2.9559,2.9598,2.9598,2.9598,2.931,2.9334,2.9786,2.9391,2.9374,2.9903,2.9843,2.9843,2.9892,2.9892,2.9911,2.9941,2.9941,3.0168,3.0645,3.0645,3.0872,3.1221,3.0883,3.0729,3.0872,3.2477,3.3079,3.306,3.3098,3.3149,3.2938,3.1408,3.1289,3.2073,3.2875,3.3632,3.4111,3.3381,3.238,3.1442,3.1442,3.1442,3.1442,0.0,0.0,0.0,3.3606,3.3795,3.4268,3.5789,3.5573,3.5485,3.7062,3.7411,3.7668,3.8453,3.8996,3.9154,3.8661,3.8291,3.8016,3.8016,3.7668,3.7537,3.7961,3.8755,3.9312,3.9295,4.0001,4.0314,3.9941,3.9902,3.9902,3.9941,4.0314,4.0724,4.1172,4.1211,4.1211,4.1211,4.1211,4.1211,4.1211,4.1211,4.1211,4.1211,4.1211,4.1211,4.1211,4.1211,4.1211,4.1211,4.1211,4.1211,4.1211,4.123,4.123,4.1289,4.166,4.1816,4.1875,0.0,0.0,0.0,0.0,0.0,0.0,2.8377,2.8895,2.9283,0.0,0.0,0.0,2.9618,2.9481,2.9461,2.9579,2.9598,2.9598,2.9598,2.9807,2.9964,3.0081,3.0295,3.0364,3.0274,3.0247,3.013,2.9892,2.9892,3.0162,3.0685,3.0685,3.1238,3.2196,3.2196,3.2428,3.2734,3.1615,3.1108,3.1252,3.2892,3.3024,3.2308,3.3189,3.3705,3.3756,3.2226,3.2189,3.2786,3.2448,3.245,3.2557,3.2607,3.2386,3.2134,3.2134,3.2134,3.219,3.2523,0.0,0.0,0.0,0.0,0.0,3.4806,3.5548,3.6398,3.6831,3.7405,3.8149,3.8966,3.9469,3.9494,3.8803,3.8576,3.8502,3.8502,3.7879,3.7692,3.8407,3.8735,3.9098,3.9668,3.9941,4.0137,4.0314,4.0059,4.0177,4.0821,4.0977,4.1055,4.1211,4.1211,4.1211,4.1211,4.1211,4.1211,4.1211,4.1211,4.1211,4.1211,4.1211,4.1211,4.1211,4.1211,4.1211,4.1211,4.1211,4.1211,4.125,4.1504,4.1621,4.168,4.209,4.2206,4.2324,0.0,0.0,0.0,0.0,0.0,2.9144,2.8978,2.9331,2.9598,0.0,0.0,0.0,2.9872,3.0028,3.0146,3.0146,3.0146,3.0146,3.0146,3.0351,3.0488,3.0488,3.0742,3.0791,3.0597,3.0616,3.0605,3.0572,3.0572,3.0873,3.1507,3.1507,3.1899,3.257,3.257,3.2583,3.2591,3.1782,3.1438,3.1583,3.3057,3.296,3.2016,3.343,3.3889,3.3688,3.2622,3.2781,3.3401,3.3092,3.2962,3.3007,3.3538,3.3087,3.239,3.239,3.239,3.2478,3.2725,3.2914,3.3052,3.3331,0.0,0.0,3.4956,3.553,3.6308,3.7333,3.799,3.8516,3.9173,3.9788,3.9965,3.9314,3.9067,3.8762,3.8222,3.7846,3.7846,3.833,3.8728,3.9129,3.9608,3.9941,4.0255,4.047,4.0451,4.0665,4.1172,4.1211,4.1211,4.1211,4.1211,4.1211,4.1211,4.1211,4.1211,4.1211,4.1211,4.1211,4.1211,4.1211,4.1211,4.1211,4.1211,4.1211,4.123,4.1367,4.1426,4.1465,4.1699,4.1914,4.2109,4.2539,4.2695,4.2754,0.0,0.0,2.9595,2.9654,2.9693,2.9732,2.9732,2.9744,2.9755,0.0,2.9755,2.9891,3.0234,3.0644,3.0918,0.0,3.0918,3.0918,3.0957,3.0918,3.0898,3.0898,3.0898,3.0898,3.0898,3.0937,3.1133,3.1494,3.1562,3.1816,3.2276,3.2276,3.2276,3.2276,3.2316,3.2094,3.1661,3.1719,3.1719,3.1796,3.3008,3.2772,3.191,3.3563,3.383,3.3271,3.2814,3.3209,3.3994,3.4221,3.4346,3.4493,3.5079,3.415,3.2764,3.2574,3.2574,3.265,3.2593,3.2821,3.3068,3.3106,3.3125,0.0,3.5458,3.5385,3.5524,3.7873,3.8424,3.8633,3.9089,3.972,4.0067,3.9701,3.9335,3.8766,3.7718,3.7813,3.7981,3.7984,3.8778,3.9293,3.9276,4.0021,4.0509,4.0509,4.0919,4.1172,4.1133,4.1172,4.1211,4.1211,4.1211,4.1211,4.1211,4.1211,4.1211,4.1211,4.1211,4.1211,4.1211,4.1211,4.1211,4.1211,4.1211,4.1211,4.125,4.1621,4.1797,4.1816,4.1914,4.2168,4.2558,4.2988,4.3185,4.3203,0.0,2.9262,2.9545,2.9893,3.0229,3.0495,3.0495,3.0582,3.0654,3.0654,3.0654,3.0664,3.0742,3.084,3.1035,0.0,3.1094,3.1035,3.1367,3.1074,3.0898,3.0898,3.0898,3.0898,3.0898,3.123,3.1416,3.1494,3.1875,3.2296,3.2676,3.2676,3.2676,3.2695,3.3027,3.2762,3.2096,3.2427,3.2184,3.1696,3.2365,3.2185,3.1616,3.2912,3.3726,3.4056,3.3348,3.3801,3.4685,3.4038,3.424,3.4686,3.4087,3.4544,3.5001,3.3604,3.3682,3.418,3.385,3.3558,3.341,3.3791,3.3889,0.0,3.3934,3.4401,3.5065,3.5889,3.6598,3.7343,3.8129,3.8347,3.8297,3.7928,3.8033,3.8233,3.8425,3.8195,3.8003,3.8001,3.8767,3.9299,3.9292,4.0045,4.0509,4.0509,4.0919,4.1055,4.0666,4.0997,4.1211,4.1211,4.1211,4.1211,4.1211,4.1211,4.1211,4.1211,4.1211,4.1211,4.1211,4.1211,4.1211,4.1211,4.1211,4.1211,4.125,4.1621,4.1797,4.1875,4.2558,4.2871,4.3008,4.3418,4.3574,4.3594,2.9813,3.0043,3.0187,3.0395,3.064,3.0797,3.0797,3.0858,3.0957,3.1172,3.1387,3.1445,3.123,3.1211,3.1211,3.1211,0.0,0.0,0.0,3.1142,3.1123,3.1191,3.1339,3.1486,3.1553,3.1738,3.1953,3.2148,3.2383,3.2598,3.2793,3.3008,3.2773,3.2187,3.2832,3.2637,3.1875,3.2335,3.2549,3.2611,3.2842,3.2432,3.1815,3.3256,3.3783,3.3764,3.3592,3.3884,3.4424,3.4599,3.4781,3.4956,3.5348,3.5879,3.6094,3.4785,3.4707,3.4863,3.3984,3.3594,3.3547,3.4189,3.4034,0.0,0.0,3.483,3.4992,3.5879,3.6402,3.6828,3.7274,3.7475,3.7546,3.7368,3.765,3.7928,3.8036,3.8047,3.8008,3.7985,3.8415,3.8812,3.9257,3.9854,4.0376,4.0821,4.1055,4.1094,4.088,4.1094,4.1211,4.1211,4.1211,4.1211,4.1211,4.1211,4.1211,4.1211,4.1211,4.1211,4.1211,4.1211,4.1211,4.1211,4.1211,4.1289,4.1523,4.1933,4.2246,4.248,4.2951,4.3203,4.3418,4.3633,4.3711,4.3711,3.0856,3.0994,3.1043,3.115,3.117,3.118,3.1201,3.1162,3.126,3.1582,3.1935,3.2024,3.168,3.1592,3.1544,3.1387,3.1309,0.0,3.1456,3.1614,3.1732,3.18,3.2028,3.2236,3.2411,3.2398,3.2614,3.2979,3.3057,3.3096,3.3116,3.345,3.3018,3.1977,3.2779,3.2612,3.1769,3.2333,3.2983,3.3617,3.3718,3.3301,3.2735,3.404,3.4152,3.3711,3.4024,3.4246,3.45,3.5296,3.5482,3.5569,3.6643,3.7035,3.6832,3.5706,3.553,3.5412,3.3988,3.3666,3.3867,3.4429,3.4223,3.4241,0.0,0.0,0.0,3.6093,3.6308,3.6328,3.6406,3.6607,3.6784,3.6784,3.7066,3.7164,3.681,3.7181,3.763,3.7971,3.8139,3.8498,3.9108,3.9529,4.0183,4.1133,4.1132,4.1074,4.1211,4.1211,4.1211,4.1211,4.1211,4.1211,4.1211,4.1211,4.1211,4.1211,4.1211,4.1211,4.1211,4.1211,4.1211,4.1211,4.1289,4.1484,4.1836,4.2344,4.2754,4.3127,4.3205,4.3398,4.3711,4.3711,4.3711,4.3711,3.1127,3.1317,3.1665,3.2072,3.2133,3.216,3.2222,3.2018,3.1929,3.2092,3.2067,3.2048,3.2111,3.2008,3.2254,3.3047,3.2793,3.2858,3.3511,3.3237,3.3032,3.3015,3.2754,3.2774,3.3075,3.3132,3.332,3.3687,3.4037,3.4218,3.4218,3.4278,3.4017,3.3567,3.4135,3.3712,3.2612,3.3558,3.3842,3.3662,3.4427,3.4937,3.5168,3.4997,3.5095,3.5344,3.5382,3.5873,3.6363,3.5673,3.6173,3.6929,3.5889,3.6825,3.7962,3.5837,3.6075,3.6618,3.4784,3.4599,3.4831,3.449,3.4971,3.5352,3.4751,0.0,3.4663,3.4821,0.0,3.496,3.5303,0.0,0.0,3.492,3.4982,3.4945,3.4513,3.5175,3.6253,3.7824,3.861,3.8974,3.8685,3.903,3.9816,4.1113,4.082,4.0762,4.1191,4.1211,4.1211,4.1211,4.1211,4.1211,4.1211,4.1211,4.1211,4.1211,4.1211,4.1211,4.1211,4.1211,4.1211,4.123,4.1562,4.1758,4.1855,4.2676,4.3027,4.3146,4.3496,4.3672,4.3711,4.3711,4.3711,4.3711,3.1592,3.162,3.1766,3.1998,3.2241,3.2426,3.2441,3.2804,3.3054,3.3112,3.3064,3.3085,3.3112,3.2643,3.2612,3.3268,3.3015,3.2933,3.3234,3.3479,3.3484,3.3274,3.3498,3.371,3.388,3.3937,3.3986,3.4161,3.4342,3.4302,3.4061,3.4302,3.4061,3.3488,3.4269,3.4045,3.3155,3.4102,3.4572,3.4753,3.5326,3.5977,3.6502,3.5661,3.5464,3.5619,3.5847,3.6302,3.6755,3.633,3.6888,3.768,3.7325,3.7799,3.8177,3.6548,3.6386,3.635,3.4569,3.4828,3.5483,3.5177,3.5489,3.5736,3.5197,3.4797,3.4484,3.4484,0.0,0.0,0.0,0.0,0.0,0.0,3.5094,3.531,3.5422,3.5961,3.6372,3.6486,3.68,3.7506,3.8806,3.9793,4.0569,4.1152,4.0996,4.0879,4.0801,4.1035,4.1211,4.1211,4.1211,4.1211,4.1211,4.1211,4.1211,4.1211,4.1211,4.1211,4.1211,4.1211,4.1211,4.123,4.1621,4.1933,4.2207,4.2832,4.3223,4.3457,4.3633,4.3711,4.3711,4.3711,4.3711,4.3711,3.2296,3.2229,3.2229,3.2229,3.2522,3.2716,3.2628,3.3306,3.381,3.381,3.3871,3.3942,3.3971,3.3344,3.3121,3.3616,3.343,3.3293,3.327,3.3956,3.4215,3.38,3.4265,3.4593,3.473,3.4608,3.4579,3.4673,3.4673,3.4511,3.4237,3.4438,3.4236,3.369,3.4415,3.4425,3.3956,3.472,3.5373,3.5853,3.6238,3.6809,3.7351,3.6432,3.6125,3.6278,3.6565,3.7024,3.7425,3.717,3.7564,3.8173,3.8343,3.8418,3.8252,3.73,3.6966,3.6643,3.5142,3.5466,3.6122,3.5823,3.5864,3.5872,3.5595,3.5041,3.4548,3.4548,3.4548,0.0,0.0,0.0,3.4608,3.4862,0.0,3.5417,3.5658,3.6027,3.617,3.5869,3.5826,3.6625,3.8593,3.9554,4.0264,4.0739,4.068,4.0642,4.0684,4.0996,4.1211,4.1211,4.1211,4.1211,4.1211,4.1211,4.1211,4.1211,4.1211,4.1211,4.1211,4.1211,4.1269,4.1406,4.1797,4.2207,4.2637,4.3066,4.3437,4.3711,4.3711,4.3711,4.3711,4.3711,4.3711,4.3711,3.3265,3.3348,3.3348,3.3348,3.3368,3.3252,3.293,3.3406,3.381,3.381,3.4085,3.4309,3.4363,3.4021,3.3977,3.4509,3.4589,3.4603,3.4544,3.5349,3.558,3.5055,3.5047,3.5226,3.5543,3.5115,3.5046,3.5356,3.5356,3.5356,3.5335,3.5046,3.487,3.4839,3.5012,3.5116,3.5165,3.574,3.623,3.6684,3.7184,3.7568,3.7816,3.7406,3.7504,3.7819,3.7819,3.8421,3.8965,3.809,3.8121,3.851,3.8007,3.8196,3.8488,3.7909,3.8034,3.8125,3.7157,3.6883,3.6754,3.6286,3.6134,3.5976,3.5511,3.5159,3.4891,3.4891,3.4891,3.4891,3.4891,3.4891,0.0,0.0,3.4398,0.0,0.0,3.4242,3.5083,3.6764,3.6964,3.7164,3.77,3.7399,3.7868,3.9617,3.94,3.9766,4.1113,4.1211,4.1211,4.1211,4.1211,4.1211,4.1211,4.1211,4.1211,4.1211,4.1211,4.1211,4.1211,4.1211,4.1387,4.1797,4.2226,4.2656,4.3127,4.3516,4.3691,4.3711,4.3711,4.3711,4.3711,4.3711,4.3711,4.3711,3.3377,3.3895,3.4226,3.3915,3.4123,3.4383,3.4542,3.4728,3.4892,3.498,3.4819,3.4827,3.5208,3.4652,3.458,3.5389,3.5277,3.5164,3.5126,3.5613,3.568,3.5194,3.512,3.5246,3.5595,3.5115,3.5046,3.5387,3.5387,3.5294,3.5077,3.4953,3.4766,3.4599,3.4949,3.5154,3.5309,3.6032,3.646,3.67,3.6534,3.7047,3.7877,3.8096,3.8047,3.7933,3.8242,3.8711,3.9101,3.8524,3.8625,3.8923,3.8465,3.82,3.7996,3.7594,3.748,3.7354,3.6813,3.7499,3.8006,3.6542,3.6879,3.7197,3.5716,3.5294,3.5334,3.5677,3.5487,3.5355,3.5697,3.5487,0.0,0.0,0.0,3.5005,0.0,3.4995,3.5271,3.5854,3.6309,3.677,3.7212,3.8471,3.9509,4.0132,4.0873,4.1249,4.1211,4.1426,4.1504,4.123,4.1211,4.1211,4.1211,4.1211,4.1211,4.1211,4.1211,4.1211,4.1211,4.1211,4.125,4.1426,4.2129,4.25,4.2695,4.3418,4.3711,4.3711,4.3711,4.3711,4.3711,4.3711,4.3711,4.3711,3.3646,3.4268,3.4703,3.4392,3.4599,3.4827,3.4921,3.5088,3.5242,3.5361,3.5123,3.5107,3.5449,3.4915,3.4801,3.5389,3.5414,3.5332,3.5156,3.565,3.5744,3.5291,3.5341,3.5473,3.5699,3.5315,3.526,3.5479,3.5407,3.5294,3.5077,3.4828,3.4673,3.4599,3.4756,3.5174,3.5793,3.6406,3.6843,3.7106,3.6809,3.7108,3.7841,3.8387,3.8409,3.8167,3.849,3.875,3.8945,3.8708,3.875,3.8926,3.8689,3.8383,3.8039,3.7825,3.768,3.7525,3.7317,3.7924,3.8354,3.7085,3.732,3.7501,3.6257,3.5977,3.6076,3.6408,3.6056,3.5755,3.5931,3.5652,3.5345,0.0,0.0,0.0,0.0,3.5387,3.5387,3.5387,3.5781,3.6294,3.6897,3.7949,3.8897,3.9602,4.0571,4.1109,4.0915,4.1484,4.168,4.1406,4.125,4.1211,4.1211,4.1211,4.1211,4.1211,4.1211,4.1211,4.1211,4.1211,4.1387,4.166,4.2148,4.2557,4.293,4.3476,4.3711,4.3711,4.3711,4.3711,4.3711,4.3711,4.3711,4.3711,3.4123,3.4495,3.4827,3.4827,3.4827,3.4631,3.4196,3.4574,3.49,3.4921,3.5044,3.5135,3.5156,3.4868,3.4675,3.4675,3.5139,3.5234,3.4785,3.5547,3.584,3.5449,3.5711,3.5891,3.5891,3.5687,3.5604,3.5636,3.552,3.5449,3.5397,3.4776,3.4599,3.4859,3.4548,3.5164,3.6465,3.6803,3.7302,3.7832,3.7832,3.781,3.7836,3.8347,3.8534,3.8509,3.8563,3.863,3.865,3.865,3.865,3.8669,3.8669,3.8669,3.8669,3.8669,3.8669,3.8669,3.865,3.8298,3.7916,3.7817,3.7445,3.7098,3.7018,3.6998,3.7018,3.7024,3.662,3.6131,3.5672,3.5539,3.5325,0.0,0.0,0.0,3.5387,3.5387,3.5387,3.5387,3.5387,3.5799,3.6726,3.6033,3.6295,3.8216,3.8728,3.9409,4.047,4.1307,4.1758,4.1797,4.1406,4.123,4.1211,4.1211,4.1211,4.1211,4.1211,4.1211,4.1211,4.1211,4.1621,4.2362,4.2382,4.287,4.3672,4.3691,4.3711,4.3711,4.3711,4.3711,4.3711,4.3711,4.3711,4.3711,3.462,3.4972,3.5252,3.5252,3.5036,3.4841,3.4718,3.4908,3.5058,3.5144,3.5453,3.5706,3.5756,3.5695,3.5661,3.5661,3.5756,3.5767,3.5684,3.5898,3.5942,3.5859,3.5634,3.5658,3.5891,3.5513,3.557,3.6105,3.6099,3.5886,3.5558,3.5369,3.5028,3.4548,3.4704,3.5078,3.5567,3.6158,3.6576,3.6848,3.6848,3.7055,3.7381,3.7563,3.8003,3.8509,3.8563,3.8769,3.9043,3.9043,3.9277,3.9551,3.9551,3.9551,3.9551,3.9551,3.9551,3.9473,3.9141,3.943,3.9482,3.8157,3.8164,3.8286,3.7231,3.6998,3.711,3.753,3.7471,3.7186,3.671,3.6562,3.6245,3.5376,3.5325,3.5387,3.5387,3.5387,3.5387,3.5387,3.5387,3.55,3.5757,3.648,3.7611,3.9124,3.9349,4.0276,4.2328,4.164,4.1366,4.1777,4.1699,4.1484,4.1211,4.1211,4.1211,4.1211,4.1211,4.1211,4.1211,4.1211,4.1465,4.1973,4.2245,4.2734,4.3262,4.3574,4.3711,4.3711,4.3711,4.3711,4.3711,4.3711,4.3711,4.3711,3.4827,3.4993,3.519,3.5345,3.5179,3.5039,3.5176,3.5278,3.54,3.5501,3.56,3.5723,3.5723,3.5742,3.582,3.5962,3.5982,3.6094,3.6289,3.6133,3.5982,3.5982,3.5801,3.5731,3.5933,3.5666,3.5691,3.6042,3.6021,3.5822,3.5498,3.5372,3.5135,3.4828,3.4891,3.5312,3.5994,3.7045,3.7305,3.7052,3.7494,3.7613,0.0,3.7975,3.8426,3.8846,3.9058,3.918,3.9238,3.9434,3.9687,3.9902,3.9902,3.9902,3.9902,3.9902,3.9902,3.9844,3.957,3.9863,3.9999,3.895,3.9082,3.9217,3.843,3.8283,3.8351,3.8665,3.8501,3.8112,0.0,3.7286,3.6907,3.5929,3.5562,3.5387,3.5387,3.5613,3.5685,3.5449,3.5613,3.5664,3.5428,3.6115,3.7093,3.8324,3.8753,3.9481,4.0579,4.0882,4.1104,4.1189,4.1406,4.1406,4.1211,4.1211,4.1211,4.1211,4.1211,4.1211,4.1211,4.1211,4.1504,4.209,4.2284,4.2773,4.3359,4.3613,4.3711,4.3711,4.3711,4.3711,4.3711,4.3711,4.3711,4.3711,3.4951,3.4868,3.4993,3.5355,3.5258,3.5266,3.5581,3.5646,3.5678,3.5831,3.565,3.5469,3.5469,3.5469,3.5625,3.5996,3.6074,3.625,3.6597,3.6289,3.604,3.5982,3.5982,3.5982,3.5982,3.5933,3.5885,3.5799,3.5738,3.564,3.549,3.519,3.5169,3.5387,3.5169,3.579,3.7047,3.8262,3.8321,3.7731,3.8629,3.8537,3.7889,3.884,3.9238,3.9355,3.9805,3.9726,3.9434,3.9844,4.0019,4.0059,4.0059,4.0059,4.0059,4.0059,4.0059,4.0059,4.0,4.0019,4.0039,3.9922,3.9941,3.9961,3.9902,3.9902,3.9902,3.9902,3.9576,3.9007,3.8133,3.7873,3.7475,3.6542,3.6049,3.5726,3.5654,3.6108,3.6257,3.5674,3.6088,0.0,3.5685,3.5469,3.588,3.7075,3.7705,3.8044,3.815,3.9968,4.0864,4.0611,4.1052,4.1269,4.1211,4.1211,4.1211,4.1211,4.1211,4.1211,4.1211,4.1211,4.1621,4.2382,4.2382,4.287,4.3711,4.3711,4.3711,4.3711,4.3711,4.3711,4.3711,4.3711,4.3711,4.3711,3.5314,3.5314,3.5335,3.5387,3.5466,3.5559,3.5667,3.5541,3.5459,3.5471,3.5737,3.5884,3.5884,3.5884,3.5903,3.5982,3.6348,3.6445,3.6152,3.6406,3.6406,3.6001,3.5982,3.5982,3.5982,3.5991,3.6087,3.6294,3.6279,3.616,3.5997,3.5934,3.5728,3.5407,3.5717,3.6485,3.7427,3.7045,3.7029,3.7341,3.7821,3.798,3.7982,3.8848,3.9434,3.9824,4.0254,4.0313,4.0274,4.0391,4.0644,4.0996,4.0996,4.0996,4.0996,4.0996,4.0996,4.0879,4.0508,4.0684,4.082,4.0078,4.0156,4.0332,3.998,3.9902,3.9902,3.9902,4.0077,3.9955,3.9047,3.8496,3.8035,3.7501,3.765,3.7529,3.6837,3.7414,3.7622,3.6803,3.7132,3.7233,3.6776,3.5927,3.6266,3.8386,3.7692,3.8441,4.1365,4.0888,4.0831,4.1504,4.1641,4.1523,4.1211,4.1211,4.1211,4.1211,4.1211,4.1211,4.1211,4.1211,4.1621,4.2382,4.2382,4.287,4.3711,4.3711,4.3711,4.3711,4.3711,4.3711,4.3711,4.3711,4.3711,4.3711,3.5387,3.5387,3.5438,3.5478,3.5572,3.5687,3.577,3.5764,3.5723,3.5723,3.5898,3.5982,3.5982,3.5982,3.6113,3.6348,3.6348,3.6348,3.6348,3.6348,3.623,3.6001,3.5982,3.5982,3.5982,3.5982,3.6138,3.6415,3.614,3.6054,3.6101,3.5842,3.5769,3.58,3.6764,3.736,3.761,3.8015,3.8047,3.7911,3.835,3.8543,3.8652,3.9316,3.9844,4.0273,4.0703,4.0859,4.0859,4.0859,4.0996,4.1211,4.1211,4.1211,4.1211,4.1211,4.1211,4.1172,4.0918,4.1016,4.1113,4.0664,4.0703,4.0801,4.0605,4.0566,4.0566,4.0566,4.0723,4.0644,3.9971,3.9202,0.0,3.8719,3.8662,3.8548,3.8382,3.8946,3.8934,3.7806,3.8122,3.7957,3.6721,3.6126,3.6501,3.8156,3.7652,3.8142,4.0169,4.035,4.0512,4.0697,4.123,4.1426,4.1211,4.1211,4.1211,4.1211,4.1211,4.1211,4.1211,4.1211,4.1621,4.2382,4.2382,4.287,4.3711,4.3711,4.3574,4.3398,4.3613,4.3711,4.3711,4.3711,4.3711,4.3711,3.5458,3.5458,3.5518,3.5613,3.5687,3.5783,3.5865,3.5945,3.5982,3.5982,3.5982,3.5982,3.5982,3.5982,3.6191,3.6675,3.6348,3.6309,3.6675,3.6348,3.6113,3.5982,3.5982,3.6055,3.6152,3.6152,3.6282,3.6563,3.6168,3.6042,3.6119,3.5831,3.5955,3.647,3.758,3.8031,3.8002,3.9054,3.9182,3.8659,3.9036,3.9258,3.9394,3.9844,4.0293,4.0703,4.1093,4.1211,4.1211,4.1211,4.1211,4.1211,4.1211,4.1211,4.1211,4.1211,4.1211,4.1211,4.1211,4.1211,4.1211,4.1211,4.1211,4.1211,4.1211,4.1211,4.1211,4.1211,4.1211,4.1113,4.0723,4.005,0.0,3.9843,3.9609,3.9473,3.9632,4.0206,4.0095,3.8899,3.9156,3.8835,3.7374,3.6821,3.6977,3.8032,3.7893,3.8055,3.8731,3.9912,4.0395,4.004,4.0778,4.1211,4.1211,4.1211,4.1211,4.1211,4.1211,4.1211,4.1211,4.1211,4.1582,4.2305,4.2343,4.287,4.3711,4.3711,4.3516,4.3242,4.3574,4.3711,4.3711,4.3711,4.3711,4.3711,3.5675,3.5675,3.5695,3.5703,3.581,3.5898,3.5891,3.5945,3.5982,3.5982,3.5982,3.5982,3.5982,3.5982,3.6191,3.6675,3.6675,3.6656,3.6714,3.6675,3.6426,3.6001,3.5982,3.6211,3.6636,3.6636,3.6789,3.7128,3.6957,3.6628,3.6187,3.652,3.6941,3.7465,3.7595,3.8142,3.8934,3.872,3.882,3.9119,3.918,3.9453,3.9883,4.0293,4.0723,4.1152,4.1191,4.1211,4.1211,4.1211,4.1211,4.1211,4.1211,4.1211,4.1211,4.1211,4.1211,4.1211,4.1211,4.1211,4.1211,4.1211,4.1211,4.1211,4.1211,4.1211,4.1211,4.1211,4.1211,4.1211,4.1152,4.1054,4.0897,0.0,4.0741,4.072,3.9996,4.0584,4.0917,4.0369,4.0331,4.0467,4.07,3.8803,3.8112,3.9413,3.8706,3.8855,4.0231,4.0819,4.1113,4.1073,4.1152,4.1211,4.1211,4.1211,4.1211,4.1211,4.1211,4.1211,4.1211,4.1211,4.1426,4.1875,4.2226,4.287,4.3711,4.3711,4.3691,4.3652,4.3691,4.3711,4.3711,4.3711,4.3711,4.3711,3.5698,3.5698,3.5734,3.5817,3.5852,3.5903,3.5959,3.5986,3.5982,3.5982,3.5982,3.5982,3.5982,3.5982,3.6094,3.6269,3.6289,3.6289,3.6289,3.6289,3.6328,3.6406,3.6406,3.6621,3.7031,3.7051,3.7226,3.7574,3.7183,3.7011,3.7032,3.7164,3.7521,3.8041,3.8357,3.8611,3.8763,3.8882,3.9033,3.9199,3.9199,3.9629,4.0293,4.043,4.0801,4.1211,4.1211,4.1211,4.1211,4.1211,4.1211,4.1211,4.1211,4.1211,4.1211,4.1211,4.1211,4.1211,4.1211,4.1211,4.1211,4.1211,4.1211,4.1211,4.1211,4.1211,4.1211,4.1211,4.0976,4.0859,4.1172,4.0957,4.0898,4.123,4.1445,4.1426,4.1094,4.1543,4.1367,3.9849,3.9869,3.9865,3.9493,3.7835,3.7502,3.9166,3.8401,3.828,3.9132,4.0433,4.0871,4.0302,4.1112,4.1426,4.1211,4.1211,4.1211,4.1211,4.1211,4.1211,4.1211,4.1211,4.1406,4.1836,4.2519,4.2871,4.2969,4.3496,4.3555,4.3359,4.3613,4.3711,4.3711,4.3711,4.3711,4.3711,3.5772,3.5924,3.6004,3.6107,3.6231,3.6327,3.6382,3.6387,3.6387,3.6387,3.6387,3.6255,3.6021,3.5982,3.6079,3.6367,3.6289,3.6309,3.6528,3.6465,3.6543,3.6871,3.689,3.7051,3.748,3.748,3.7645,3.8031,3.7644,3.7513,3.7685,3.7591,3.7845,3.8402,3.8771,3.8806,3.856,3.8879,3.9082,3.9219,3.9355,3.9844,4.0527,4.0664,4.0898,4.1211,4.1211,4.1211,4.1211,4.1211,4.1211,4.1211,4.1211,4.1211,4.1211,4.1211,4.1211,4.1211,4.1211,4.1211,4.1211,4.1211,4.1211,4.1211,4.1211,4.1211,4.1211,4.1211,4.0937,4.0801,4.1152,4.0918,4.0918,4.1523,0.0,4.1562,4.1445,4.1797,4.1406,3.9709,3.9749,3.9781,3.9364,3.8061,3.7898,3.9482,3.8854,3.856,3.8902,4.0023,4.0569,4.0338,4.1151,4.1484,4.1211,4.1211,4.1211,4.1211,4.1211,4.1211,4.1211,4.1211,4.1406,4.1836,4.2441,4.2676,4.2656,4.3281,4.3418,4.3301,4.3594,4.3711,4.3711,4.3711,4.3711,4.3711,3.5996,3.6382,3.6695,3.6695,3.7027,3.7266,3.7285,3.7285,3.7285,3.7285,3.7285,3.6953,3.6079,3.5982,3.6367,3.7207,3.6894,3.7012,3.7816,3.7519,3.7285,3.7285,3.7285,3.748,3.7874,3.7874,3.8125,3.8591,3.852,3.8228,3.7792,3.7722,3.7982,3.8501,3.8521,3.8544,3.8611,3.8611,3.8865,3.9238,3.9707,4.0137,4.0528,4.0996,4.1211,4.1211,4.1211,4.1211,4.1211,4.1211,4.1211,4.1211,4.1211,4.1211,4.1211,4.1211,4.1211,4.1211,4.1211,4.1211,4.1211,4.1211,4.1211,4.1211,4.1211,4.1211,4.1211,4.1211,4.1211,4.1211,4.1211,4.1211,4.1211,4.1211,0.0,4.1035,4.0605,4.0918,4.1016,4.0547,4.0508,4.084,4.166,4.0479,4.0033,4.0905,4.0547,4.0301,4.0347,3.9954,4.034,4.1719,4.1426,0.0,4.1211,4.1211,4.1211,4.1211,4.1211,4.1211,4.1211,4.1211,4.1406,4.1797,4.1816,4.2285,4.3066,4.3086,4.332,4.3691,4.3711,4.3711,4.3711,4.3711,4.3711,4.3711,3.6465,3.6797,3.709,3.709,3.7207,3.7305,3.7305,3.7305,3.7305,3.7305,3.7305,3.7187,3.6914,3.6894,3.6992,3.7266,3.7168,3.7207,3.748,3.7363,3.7422,3.7715,3.7734,3.793,3.8359,3.8652,3.873,3.8611,3.88,3.8842,3.8703,3.8374,3.8489,3.8972,3.8678,3.8602,3.863,3.8887,3.9258,3.9707,4.0156,4.0586,4.0976,4.1152,4.1211,4.1211,4.1211,4.1211,4.1211,4.1211,4.1211,4.1211,4.1211,4.1211,4.1211,4.1211,4.1211,4.1211,4.1211,4.1211,4.1211,4.1211,4.1211,4.1211,4.1211,4.1211,4.1211,4.1211,4.0937,4.082,4.1152,4.0937,4.082,4.1172,4.1211,0.0,4.0586,4.0898,4.0799,3.969,3.9788,4.0182,4.0793,3.9586,3.9397,4.0942,3.916,3.8531,3.9765,4.0601,4.0986,0.0,4.1328,0.0,4.1211,4.1211,4.1211,4.1211,4.1211,4.1211,4.1211,4.1211,4.1289,4.1387,4.168,4.2109,4.2656,4.2949,4.332,4.3711,4.3711,4.3711,4.3711,4.3711,4.3711,4.3711,3.691,3.7246,3.748,3.7324,3.7559,3.7715,3.7559,3.7676,3.7773,3.7773,3.7773,3.7773,3.7773,3.7773,3.7773,3.7773,3.7773,3.791,3.8262,3.8105,3.8125,3.8398,3.8398,3.8457,3.8611,3.8984,3.9004,3.8611,3.8829,3.8902,3.8902,3.8662,3.8675,3.8965,3.8691,3.8611,3.865,3.9023,3.9473,3.9941,4.0351,4.0781,4.1211,4.1211,4.1211,4.1211,4.1211,4.1211,4.1211,4.1211,4.1211,4.1211,4.1211,4.1211,4.1211,4.1211,4.1211,4.1211,4.1211,4.1211,4.1211,4.1211,4.1211,4.1211,4.1211,4.1211,4.1211,4.1211,4.0957,4.084,4.1172,4.0957,4.0859,4.1133,4.1211,4.1016,4.0586,4.0898,4.076,3.9534,3.9768,4.0105,4.04,3.9815,3.9932,4.1264,3.9898,3.9449,4.0581,4.0499,4.0583,4.093,4.1347,4.1445,4.1211,4.1211,4.1211,4.1211,4.1211,4.1211,4.1211,4.1211,4.1211,4.123,4.1445,4.1797,4.2226,4.2656,4.3086,4.3476,4.3633,4.3711,4.3711,4.3711,4.3711,4.3711,3.7168,3.7598,3.7718,3.7363,3.7988,3.8398,3.7988,3.8301,3.8611,3.8611,3.863,3.865,3.865,3.8689,3.8708,3.8708,3.865,3.8926,3.9746,3.9394,3.916,3.916,3.916,3.8965,3.8611,3.8984,3.9004,3.865,3.863,3.8611,3.8611,3.8611,3.8611,3.8611,3.8611,3.863,3.8689,3.9062,3.9512,3.998,4.0391,4.082,4.1211,4.1211,4.1211,4.1211,4.1211,4.1211,4.1211,4.1211,4.1211,4.1211,4.1211,4.1211,4.1211,4.1211,4.1211,4.1211,4.1211,4.1211,4.1211,4.1211,4.1211,4.1211,4.1211,4.1211,4.1211,4.1211,4.1211,4.1211,4.1211,4.1211,4.1211,4.1211,4.1211,4.1035,4.0625,4.0918,4.0917,4.0078,4.0332,4.0528,4.0528,4.0937,4.1367,4.1719,4.2031,4.2246,4.2304,3.981,3.9427,4.1758,4.1387,4.1211,4.1211,4.1211,4.1211,4.1211,4.1211,4.1211,4.1211,4.1211,4.1211,4.1211,4.1211,4.1406,4.1836,4.2187,4.2637,4.3066,4.3457,4.3613,4.3613,4.3613,4.3613,4.3613,3.6832,3.7148,3.7422,3.7324,3.7734,3.8047,3.7913,3.8301,3.8611,3.8611,3.8848,3.9062,3.9062,3.9375,3.959,3.959,3.8965,3.8708,3.8867,3.8789,3.873,3.873,3.873,3.8708,3.8611,3.8984,3.9141,3.9062,3.873,3.8611,3.8611,3.8611,3.8611,3.8611,3.8611,3.875,3.9082,3.9531,3.998,4.041,4.084,4.1113,4.1211,4.1211,4.1211,4.1211,4.1211,4.1211,4.1211,4.1211,4.1211,4.1211,4.1211,4.1211,4.1211,4.1211,4.1211,4.1211,4.1211,4.1211,4.1211,4.1211,4.1211,4.1211,4.1211,4.1211,4.1211,4.1211,4.1211,4.1211,4.1211,4.1211,4.1211,4.1211,4.1211,4.1172,4.1035,4.1152,4.1132,4.0937,4.0996,4.1016,4.1016,4.1113,4.125,4.1308,4.0698,4.0677,4.1445,4.0158,4.0136,4.1738,4.1387,4.1211,4.1211,4.1211,4.1211,4.1211,4.1211,4.1211,4.1211,4.1211,4.1211,4.1211,4.1211,4.1406,4.1816,4.1914,4.2187,4.2598,4.2695,4.2734,4.2734,4.2734,4.2734,4.2654,3.7535,3.7715,3.7812,3.7617,3.793,3.8164,3.7913,3.8301,3.8689,3.8828,3.9062,3.9277,3.9492,3.9746,3.9902,3.9902,3.9629,3.9375,3.9236,3.918,3.9082,3.8867,3.8867,3.8769,3.8611,3.8984,3.9101,3.8926,3.8728,3.8611,3.8611,3.8611,3.8611,3.8611,3.8611,3.8809,3.9238,3.9707,4.0137,4.0566,4.0996,4.1211,4.1211,4.1211,4.1211,4.1211,4.1211,4.1211,4.1211,4.1211,4.1211,4.1211,4.1211,4.1211,4.1211,4.1211,4.1211,4.1211,4.1211,4.1211,4.1211,4.1211,4.1211,4.1211,4.1211,4.1211,4.1211,4.1211,4.1211,4.1211,4.1211,4.1211,4.1211,4.1211,4.1211,4.1211,4.1211,4.1211,4.1211,4.1211,4.1211,4.1211,4.1211,4.1211,4.1211,4.1211,4.0699,4.0601,4.1172,4.0679,4.0719,4.1484,4.1289,4.1211,4.1211,4.1211,4.1211,4.1211,4.1211,4.1211,4.1211,4.1211,4.1211,4.1211,4.1211,4.1308,4.1523,4.1719,4.1933,4.2148,4.2304,4.2382,4.2382,4.2382,4.2382,4.2342,3.8337,3.8379,3.8262,3.7891,3.8184,3.8359,3.7952,3.8301,3.873,3.9141,3.9258,3.9473,3.9941,4.0059,4.0059,4.0,4.0371,4.0391,3.9824,3.9785,3.959,3.9121,3.9101,3.8945,3.8611,3.8926,3.8926,3.8611,3.8611,3.8611,3.8611,3.8611,3.8611,3.8611,3.8633,3.8906,3.9336,3.9805,4.0234,4.0644,4.1035,4.1211,4.1211,4.1211,4.1211,4.1211,4.1211,4.1211,4.1211,4.1211,4.1211,4.1211,4.1211,4.1211,4.1211,4.1211,4.1211,4.1211,4.1211,4.1211,4.1211,4.1211,4.1211,4.1211,4.1211,4.1211,4.1211,4.1211,4.1211,4.1211,4.1211,4.1211,4.1211,4.1211,4.1132,4.1053,4.1191,4.1112,4.1112,4.1191,4.1211,4.1211,4.1211,4.1211,4.1211,4.1211,4.1211,4.1211,4.1211,4.1211,4.1211,4.1211,4.1211,4.1211,4.1211,4.1211,4.1211,4.1211,4.1211,4.1211,4.1211,4.1211,4.1211,4.1211,4.1211,4.1211,4.125,4.1562,4.1699,4.1738,4.209,4.2246,4.2246,4.2246,4.2246,4.2166,3.748,3.75,3.748,3.7402,3.7734,3.7972,3.7894,3.8301,3.873,3.9141,3.9551,3.9961,4.0333,4.0762,4.082,4.0449,4.082,4.0566,3.9394,3.9316,3.9121,3.8728,3.8708,3.8633,3.8611,3.8669,3.8669,3.8611,3.8611,3.8611,3.8611,3.8611,3.8611,3.863,3.8945,3.9355,3.9824,4.0234,4.0664,4.1113,4.1191,4.1211,4.1211,4.1211,4.1211,4.1211,4.1211,4.1211,4.1211,4.1211,4.1211,4.1211,4.1211,4.1211,4.1211,4.1211,4.1211,4.1211,4.1211,4.1211,4.1211,4.1211,4.1211,4.1211,4.1211,4.1211,4.1211,4.1211,4.1211,4.1211,4.1211,4.1211,4.1211,4.1211,4.0727,4.0559,4.1132,4.0708,4.0561,4.1113,4.1211,4.1211,4.1211,4.1211,4.1211,4.1211,4.1211,4.1211,4.1211,4.1211,4.1211,4.1211,4.1211,4.1211,4.1211,4.1211,4.1211,4.1211,4.1211,4.1211,4.1211,4.1211,4.1211,4.1211,4.1211,4.1211,4.1211,4.1289,4.1308,4.1308,4.1348,4.1406,4.1406,4.1406,4.1406,4.1328,3.7988,3.7988,3.7988,3.7988,3.8144,3.8281,3.8281,3.8437,3.873,3.9141,3.9394,3.9687,4.0137,4.0371,4.041,4.0195,4.0371,4.0117,3.9258,3.9434,3.9277,3.865,3.8611,3.8611,3.8611,3.8611,3.8611,3.8611,3.8611,3.8611,3.8611,3.8611,3.8728,3.8926,3.9121,3.959,4.0254,4.0411,4.0781,4.1211,4.1211,4.1211,4.1211,4.1211,4.1211,4.1211,4.1211,4.1211,4.1211,4.1211,4.1211,4.1211,4.1211,4.1211,4.1211,4.1211,4.1211,4.1211,4.1211,4.1211,4.1211,4.1211,4.1211,4.1211,4.1211,4.1211,4.1211,4.1211,4.1211,4.1211,4.1211,4.1211,4.1211,4.1211,4.0933,4.085,4.1171,4.0913,4.087,4.1171,4.1211,4.1211,4.1211,4.1211,4.1211,4.1211,4.1211,4.1211,4.1211,4.1211,4.1211,4.1211,4.1211,4.1211,4.1211,4.1211,4.1211,4.1211,4.1211,4.1211,4.1211,4.1211,4.1211,4.1211,4.1211,4.1211,4.1211,4.1211,4.1211,4.1211,4.1211,4.1211,4.1211,4.1211,4.1211,4.1133,3.8611,3.8611,3.8611,3.8611,3.8611,3.8611,3.8611,3.8611,3.873,3.9141,3.9199,3.9375,3.9844,3.9902,3.9902,3.9902,3.9902,3.9707,3.9238,3.9531,3.9394,3.865,3.8611,3.8611,3.8611,3.8611,3.8611,3.8611,3.8611,3.8611,3.8611,3.8708,3.8887,3.9219,3.9414,3.9883,4.0489,4.0625,4.0859,4.1211,4.1211,4.1211,4.1211,4.1211,4.1211,4.1211,4.1211,4.1211,4.1211,4.1211,4.1211,4.1211,4.1211,4.1211,4.1211,4.1211,4.1211,4.1211,4.1211,4.1211,4.1211,4.1211,4.1211,4.1211,4.1211,4.1211,4.1211,4.1211,4.1211,4.1211,4.1211,4.1211,4.1211,4.1211,0.0,4.1013,4.1172,4.1053,4.1013,4.1172,4.1211,4.1211,4.1211,4.1211,4.1211,4.1211,4.1211,4.1211,4.1211,4.1211,4.1211,4.1211,4.1211,4.1211,4.1211,4.1211,4.1211,4.1211,4.1211,4.1211,4.1211,4.1211,4.1211,4.1211,4.1211,4.1211,4.1211,4.1211,4.1211,4.1211,4.1211,4.1211,4.1211,4.1211,4.1211,4.1133,3.8611,3.8611,3.8611,3.8611,3.8611,3.8611,3.8611,3.8611,3.873,3.9141,3.9199,3.9375,3.9844,3.9902,3.9902,3.9902,3.9902,3.9707,3.9238,3.9238,3.9043,3.863,3.8611,3.8611,3.8611,3.8611,3.8611,3.8611,3.8611,3.8611,3.8611,3.8965,3.918,3.9238,4.0059,4.043,4.0547,4.0957,4.1191,4.1211,4.1211,4.1211,4.1211,4.1211,4.1211,4.1211,4.1211,4.1211,4.1211,4.1211,4.1211,4.1211,4.1211,4.1211,4.1211,4.1211,4.1211,4.1211,4.1211,4.1211,4.1211,4.1211,4.1211,4.1211,4.1211,4.1211,4.1211,4.1211,4.1211,4.1211,4.1211,4.1211,4.1211,4.1211,0.0,4.0477,4.1112,4.0684,4.0517,4.1151,4.1211,4.1211,4.1211,4.1211,4.1211,4.1211,4.1211,4.1211,4.1211,4.1211,4.1211,4.1211,4.1211,4.1211,4.1211,4.1211,4.1211,4.1211,4.1211,4.1211,4.1211,4.1211,4.1211,4.1211,4.1211,4.1211,4.1211,4.1211,4.1211,4.1211,4.1211,4.1211,4.1211,4.1211,4.1211,4.1211,3.8611,3.8611,3.8611,3.8611,3.8611,3.8611,3.8611,3.8611,3.8669,3.8789,3.8809,3.8923,3.9062,3.9082,3.9082,3.9082,3.9082,3.9041,3.8828,3.8809,3.8787,3.8611,3.8611,3.8611,3.8611,3.8611,3.8611,3.8611,3.8611,3.8611,3.8611,3.8787,3.8945,3.9238,3.9844,4.0273,4.0508,4.0996,4.1211,4.1211,4.1211,4.1211,4.1211,4.1211,4.1211,4.1211,4.1211,4.1211,4.1211,4.1211,4.1211,4.1211,4.1211,4.1211,4.1211,4.1211,4.1211,4.1211,4.1211,4.1211,4.1211,4.1211,4.1211,4.1211,4.1211,4.1211,4.1211,4.1211,4.1211,4.1211,4.1211,4.1211,4.1211,4.1211,0.0,4.0912,4.1132,4.0973,4.0912,4.1152,4.1211,4.1211,4.1211,4.1211,4.1211,4.1211,4.1211,4.1211,4.1211,4.1211,4.1211,4.1211,4.1211,4.1211,4.1211,4.1211,4.1211,4.1211,4.1211,4.1211,4.1211,4.1211,4.1211,4.1211,4.1211,4.1211,4.1211,4.1211,4.1211,4.1211,4.1211,4.1211,4.1211,4.1211,4.1211,4.1211,3.8611,3.8611,3.8611,3.8611,3.8611,3.8611,3.8611,3.8611,3.8611,3.8611,3.8611,3.8611,3.8611,3.8611,3.8611,3.8611,3.8611,3.8611,3.8611,3.8611,3.8611,3.8611,3.8611,3.8611,3.8611,3.8611,3.8611,3.8611,3.8611,3.8611,3.8611,3.8747,3.8926,3.9238,3.9824,4.0254,4.0508,4.0996,4.1211,4.1211,4.1211,4.1211,4.1211,4.1211,4.1211,4.1211,4.1211,4.1211,4.1211,4.1211,4.1211,4.1211,4.1211,4.1211,4.1211,4.1211,4.1211,4.1211,4.1211,4.1211,4.1211,4.1211,4.1211,4.1211,4.1211,4.1211,4.1211,4.1211,4.1211,4.1211,4.1211,4.1211,4.1211,4.1211,4.1211,4.1211,4.1211,4.1211,4.1211,4.1211,4.1211,4.1211,4.1211,4.1211,4.1211,4.1211,4.1211,4.1211,4.1211,4.1211,4.1211,4.1211,4.1211,4.1211,4.1211,4.1211,4.1211,4.1211,4.1211,4.1211,4.1211,4.1211,4.1211,4.1211,4.1211,4.1211,4.1211,4.1211,4.1211,4.1211,4.1211,4.1211,4.1211,4.1211,4.1211,4.1172,3.8611,3.8611,3.8611,3.8611,3.8611,3.8611,3.8611,3.8611,3.8611,3.8611,3.8611,3.8611,3.8611,3.8611,3.8611,3.8611,3.8611,3.8611,3.8611,3.8611,3.8611,3.8611,3.8611,3.8611,3.8611,3.8611,3.8611,3.8611,3.8611,3.8611,3.863,3.9004,3.9199,3.9238,4.0079,4.0469,4.0508,4.0976,4.1211,4.1211,4.1211,4.1211,4.1211,4.1211,4.1211,4.1211,4.1211,4.1211,4.1211,4.1211,4.1211,4.1211,4.1211,4.1211,4.1211,4.1211,4.1211,4.1211,4.1211,4.1211,4.1211,4.1211,4.1211,4.1211,4.1211,4.1211,4.1211,4.1211,4.1211,4.1211,4.1211,4.1211,4.1211,4.1211,4.1211,4.1211,4.1211,4.1211,4.1211,4.1211,4.1211,4.1211,4.1211,4.1211,4.1211,4.1211,4.1211,4.1211,4.1211,4.1211,4.1211,4.1211,4.1211,4.1211,4.1211,4.1211,4.1211,4.1211,4.1211,4.1211,4.1211,4.1211,4.1211,4.1211,4.1211,4.1211,4.1211,4.1211,4.1211,4.1211,4.1211,4.1172,4.1172,4.1172,4.1172,4.1133,3.8611,3.8611,3.8611,3.8611,3.8611,3.8611,3.8611,3.8611,3.8611,3.8611,3.8611,3.8611,3.8611,3.8611,3.8611,3.8611,3.8611,3.8611,3.8611,3.8611,3.8611,3.8611,3.8611,3.8611,3.8611,3.8611,3.8611,3.8611,3.8611,3.8611,3.8611,3.8711,3.8769,3.8789,3.9355,3.959,3.9629,4.0078,4.0449,4.0723,4.0723,4.0898,4.1211,4.1211,4.1211,4.1211,4.1211,4.1211,4.1211,4.1211,4.1211,4.1211,4.1211,4.1211,4.1211,4.1211,4.1211,4.1211,4.1211,4.1211,4.1211,4.1211,4.1211,4.1211,4.1211,4.1211,4.1211,4.1211,4.1211,4.1211,4.1211,4.1211,4.1211,4.1211,4.1211,4.1211,4.1211,4.1211,4.1211,4.1211,4.1211,4.1211,4.1211,4.1211,4.1211,4.1211,4.1211,4.1211,4.1211,4.1211,4.1211,4.1211,4.1211,4.1211,4.1211,4.1211,4.1211,4.1211,4.1211,4.1211,4.1211,4.1211,4.1211,4.1211,4.1211,4.1211,4.1211,4.1211,4.1211,4.1172,4.0841,4.0724,4.0666,4.0372,4.0294,4.0255,3.8611,3.8611,3.8611,3.8611,3.8611,3.8611,3.8611,3.8611,3.8611,3.8611,3.8611,3.8611,3.8611,3.8611,3.8611,3.8611,3.8611,3.8611,3.8611,3.8611,3.8611,3.8611,3.8611,3.8611,3.8611,3.8611,3.8611,3.8611,3.8611,3.8611,3.8611,3.8611,3.8611,3.863,3.9004,3.9199,3.9238,3.9707,4.0039,4.0293,4.0449,4.0684,4.0937,4.1152,4.1211,4.1211,4.1211,4.1211,4.1211,4.1211,4.1211,4.1211,4.1211,4.1211,4.1211,4.1211,4.1211,4.1211,4.1211,4.1211,4.1211,4.1211,4.1211,4.1211,4.1211,4.1211,4.1211,4.1211,4.1211,4.1211,4.1211,4.1211,4.1211,4.1211,4.1211,4.1211,4.1211,4.1211,4.1211,4.1211,4.1211,4.1211,4.1211,4.1211,4.1211,4.1211,4.1211,4.1211,4.1211,4.1211,4.1211,4.1211,4.1211,4.1211,4.1211,4.1211,4.1211,4.1211,4.1211,4.1211,4.1211,4.1211,4.1211,4.1211,4.1211,4.1211,4.1172,4.1016,4.0919,4.088,4.0451,4.0236,4.0236,3.9981,3.9902,3.9863,3.8611,3.8611,3.8611,3.8611,3.8611,3.8611,3.8611,3.8611,3.8611,3.8611,3.8611,3.8611,3.8611,3.8611,3.8611,3.8611,3.8611,3.8611,3.8611,3.8611,3.8611,3.8611,3.8611,3.8611,3.8611,3.8611,3.8611,3.8611,3.8611,3.8611,3.8611,3.8611,3.8611,3.863,3.8965,3.9141,3.918,3.959,3.9805,3.9863,4.0254,4.0391,4.0508,4.0957,4.1152,4.1152,4.1191,4.1211,4.1211,4.1211,4.1211,4.1211,4.1211,4.1211,4.1211,4.1211,4.1211,4.1211,4.1211,4.1211,4.1211,4.1211,4.1211,4.1211,4.1211,4.1211,4.1211,4.1211,4.1211,4.1211,4.1211,4.1211,4.1211,4.1211,4.1211,4.1211,4.1211,4.1211,4.1211,4.1211,4.1211,4.1211,4.1211,4.1211,4.1211,4.1211,4.1211,4.1211,4.1211,4.1211,4.1211,4.1211,4.1211,4.1211,4.1211,4.1211,4.1211,4.1211,4.1211,4.1211,4.1211,4.1211,4.1211,4.1211,4.1211,4.1211,4.1172,4.0763,4.0548,4.047,4.0059,3.9863,3.9823,3.9784,3.9784,3.9745,3.8611,3.8611,3.8611,3.8611,3.8611,3.8611,3.8611,3.8611,3.8611,3.8611,3.8611,3.8611,3.8611,3.8611,3.8611,3.8611,3.8611,3.8611,3.8611,3.8611,3.8611,3.8611,3.8611,3.8611,3.8611,3.8611,3.8611,3.8611,3.8611,3.8611,3.8611,3.8611,3.8611,3.8611,3.8708,3.8747,3.8747,3.8845,3.9043,3.9355,3.9453,3.9707,4.0078,4.0508,4.0664,4.0703,4.1093,4.1211,4.1211,4.1211,4.1211,4.1211,4.1211,4.1211,4.1211,4.1211,4.1211,4.1211,4.1211,4.1211,4.1211,4.1211,4.1211,4.1211,4.1211,4.1211,4.1211,4.1211,4.1211,4.1211,4.1211,4.1211,4.1211,4.1211,4.1211,4.1211,4.1211,4.1211,4.1211,4.1211,4.1211,4.1211,4.1211,4.1211,4.1211,4.1211,4.1211,4.1211,4.1211,4.1211,4.1211,4.1211,4.1211,4.1211,4.1211,4.1211,4.1211,4.1211,4.1211,4.1211,4.1211,4.1211,4.1211,4.1211,4.1211,4.1211,4.1172,4.1094,4.0841,4.047,4.0059,3.9706,3.9391,3.9035,3.8877,3.8877,3.8611,3.8611,3.8611,3.8611,3.8611,3.8611,3.8611,3.8611,3.8611,3.8611,3.8611,3.8611,3.8611,3.8611,3.8611,3.8611,3.8611,3.8611,3.8611,3.8611,3.8611,3.8611,3.8611,3.8611,3.8611,3.8611,3.8611,3.8611,3.8611,3.8611,3.8611,3.8611,3.8611,3.8611,3.8611,3.8611,3.8611,3.8611,3.8728,3.8926,3.9121,3.9355,3.9609,4.0059,4.0234,4.0254,4.0488,4.0703,4.0859,4.0859,4.0996,4.1211,4.1211,4.1211,4.1211,4.1211,4.1211,4.1211,4.1211,4.1211,4.1211,4.1211,4.1211,4.1211,4.1211,4.1211,4.1211,4.1211,4.1211,4.1211,4.1211,4.1211,4.1211,4.1211,4.1211,4.1211,4.1211,4.1211,4.1211,4.1211,4.1211,4.1211,4.1211,4.1211,4.1211,4.1211,4.1211,4.1211,4.1211,4.1211,4.1211,4.1211,4.1211,4.1211,4.1211,4.1211,4.1211,4.1211,4.1211,4.1211,4.1211,4.1211,4.1211,4.1211,4.1211,4.1211,4.1172,4.0958,4.0607,4.0157,3.9784,3.9351,3.8956,3.8679,3.86,3.86,3.8611,3.8611,3.8611,3.8611,3.8611,3.8611,3.8611,3.8611,3.8611,3.8611,3.8611,3.8611,3.8611,3.8611,3.8611,3.8611,3.8611,3.8611,3.8611,3.8611,3.8611,3.8611,3.8611,3.8611,3.8611,3.8611,3.8611,3.8611,3.8611,3.8611,3.8611,3.8611,3.8611,3.8611,3.8611,3.8611,3.8611,3.8611,3.8611,3.865,3.8965,3.9101,3.9141,3.9609,3.9766,3.9785,3.9863,4.0117,4.041,4.041,4.0703,4.1055,4.1055,4.1152,4.1211,4.1211,4.1211,4.1211,4.1211,4.1211,4.1211,4.1211,4.1211,4.1211,4.1211,4.1211,4.1211,4.1211,4.1211,4.1211,4.1211,4.1211,4.1211,4.1211,4.1211,4.1211,4.1211,4.1211,4.1211,4.1211,4.1211,4.1211,4.1211,4.1211,4.1211,4.1211,4.1211,4.1211,4.1211,4.1211,4.1211,4.1211,4.1211,4.1211,4.1211,4.1211,4.1211,4.1211,4.1211,4.1211,4.1211,4.1211,4.1211,4.1211,4.1211,4.1211,4.1172,4.0802,4.0372,3.9981,3.9548,3.9114,3.8719,3.864,3.86,3.86,3.8611,3.8611,3.8611,3.8611,3.8611,3.8611,3.8611,3.8611,3.8611,3.8611,3.8611,3.8611,3.8611,3.8611,3.8611,3.8611,3.8611,3.8611,3.8611,3.8611,3.8611,3.8611,3.8611,3.8611,3.8611,3.8611,3.8611,3.8611,3.8611,3.8611,3.8611,3.8611,3.8611,3.8611,3.8611,3.8611,3.8611,3.8611,3.8611,3.8611,3.8669,3.8689,3.8747,3.9141,3.9297,3.9355,3.9746,3.9922,3.998,3.998,4.0254,4.0567,4.0567,4.0879,4.1211,4.1211,4.1211,4.1211,4.1211,4.1211,4.1211,4.1211,4.1211,4.1211,4.1211,4.1211,4.1211,4.1211,4.1211,4.1211,4.1211,4.1211,4.1211,4.1211,4.1211,4.1211,4.1211,4.1211,4.1211,4.1211,4.1211,4.1211,4.1211,4.1211,4.1211,4.1211,4.1211,4.1211,4.1211,4.1211,4.1211,4.1211,4.1211,4.1211,4.1211,4.1211,4.1211,4.1211,4.1211,4.1211,4.1211,4.1211,4.1211,4.1211,4.1211,4.1211,4.1211,4.1133,4.0841,4.0392,3.9981,3.9588,3.9154,3.8758,3.86,3.86,3.8611,3.8611,3.8611,3.8611,3.8611,3.8611,3.8611,3.8611,3.8611,3.8611,3.8611,3.8611,3.8611,3.8611,3.8611,3.8611,3.8611,3.8611,3.8611,3.8611,3.8611,3.8611,3.8611,3.8611,3.8611,3.8611,3.8611,3.8611,3.8611,3.8611,3.8611,3.8611,3.8611,3.8611,3.8611,3.8611,3.8611,3.8611,3.8611,3.8611,3.8611,3.8611,3.863,3.8826,3.8848,3.8887,3.9082,3.9316,3.9512,3.9512,3.9805,4.0176,4.0176,4.0469,4.082,4.082,4.0976,4.1211,4.1211,4.1211,4.1211,4.1211,4.1211,4.1211,4.1211,4.1211,4.1211,4.1211,4.1211,4.1211,4.1211,4.1211,4.1211,4.1211,4.1211,4.1211,4.1211,4.1211,4.1211,4.1211,4.1211,4.1211,4.1211,4.1211,4.1211,4.1211,4.1211,4.1211,4.1211,4.1211,4.1211,4.1211,4.1211,4.1211,4.1211,4.1211,4.1211,4.1211,4.1211,4.1211,4.1211,4.1211,4.1211,4.1211,4.1211,4.1211,4.1211,4.1211,4.0919,4.047,4.0059,3.9509,3.8877,3.8679,3.86,3.86]},{"header":{"parameterUnit":"m.s-1","parameterCategory":1,"la1":30.6,"la2":28.766,"lo1":-90.7593,"lo2":-88.6598,"dy":0.0162,"dx":0.0183,"nx":116,"ny":114,"refTime":"2023-04-06T12:00:00:Z","depth":0,"parameterNumber":3,"parameterNumberName":"V-component_of_WINDS"},"data":[0.0,0.0,0.0,0.0,0.0,0.0,0.0,0.0,0.0,0.0,0.0,0.0,0.0,0.0,0.0,0.0,0.0,0.0,0.0,0.0,0.0,0.0,0.0,0.0,0.0,0.0,0.0,0.0,0.0,0.0,0.0,0.0,0.0,0.0,0.0,0.0,0.0,0.0,0.0,0.0,0.0,0.0,0.0,0.0,0.0,0.0,0.0,0.0,0.0,0.0,0.0,0.0,0.0,0.0,0.0,0.0,0.0,0.0,0.0,0.0,0.0,0.0,0.0,0.0,0.0,0.0,0.0,0.0,0.0,0.0,0.0,0.0,0.0,0.0,0.0,0.0,0.0,0.0,0.0,0.0,0.0,0.0,0.0,0.0,0.0,0.0,0.0,0.0,0.0,0.0,0.0,0.0,0.0,0.0,0.0,0.0,0.0,0.0,0.0,0.0,0.0,0.0,0.0,0.0,0.0,0.0,0.0,0.0,0.0,0.0,0.0,0.0,0.0,0.0,0.0,0.0,0.0,0.0,0.0,0.0,0.0,0.0,0.0,0.0,0.0,0.0,0.0,0.0,0.0,0.0,0.0,0.0,0.0,0.0,0.0,0.0,0.0,0.0,0.0,0.0,0.0,0.0,0.0,0.0,0.0,0.0,0.0,0.0,0.0,0.0,0.0,0.0,0.0,0.0,0.0,0.0,0.0,0.0,0.0,0.0,0.0,0.0,0.0,0.0,0.0,0.0,0.0,0.0,0.0,0.0,0.0,0.0,0.0,0.0,0.0,0.0,0.0,0.0,0.0,0.0,0.0,0.0,0.0,0.0,0.0,0.0,0.0,0.0,0.0,0.0,0.0,0.0,0.0,0.0,0.0,0.0,0.0,0.0,0.0,0.0,0.0,0.0,0.0,0.0,0.0,0.0,0.0,0.0,0.0,0.0,0.0,0.0,0.0,0.0,0.0,0.0,0.0,0.0,0.0,0.0,0.0,0.0,0.0,0.0,0.0,0.0,0.0,0.0,0.0,0.0,0.0,0.0,0.0,0.0,0.0,0.0,0.0,0.0,0.0,0.0,0.0,0.0,0.0,0.0,0.0,0.0,0.0,0.0,0.0,0.0,0.0,0.0,0.0,0.0,0.0,0.0,0.0,0.0,0.0,0.0,0.0,0.0,0.0,0.0,0.0,0.0,0.0,0.0,0.0,0.0,0.0,0.0,0.0,0.0,0.0,0.0,0.0,0.0,0.0,0.0,0.0,0.0,0.0,0.0,0.0,0.0,0.0,0.0,0.0,0.0,0.0,0.0,0.0,0.0,0.0,0.0,0.0,0.0,0.0,0.0,0.0,0.0,0.0,0.0,0.0,0.0,0.0,0.0,0.0,0.0,0.0,0.0,0.0,0.0,0.0,0.0,0.0,0.0,0.0,0.0,0.0,0.0,0.0,0.0,0.0,0.0,0.0,0.0,0.0,0.0,0.0,0.0,0.0,0.0,0.0,0.0,0.0,0.0,0.0,0.0,0.0,0.0,0.0,0.0,0.0,0.0,0.0,0.0,0.0,0.0,0.0,0.0,0.0,0.0,0.0,0.0,0.0,0.0,0.0,0.0,0.0,0.0,0.0,0.0,0.0,0.0,0.0,0.0,0.0,0.0,0.0,0.0,0.0,0.0,0.0,0.0,0.0,0.0,0.0,0.0,0.0,0.0,0.0,0.0,0.0,0.0,0.0,0.0,0.0,0.0,0.0,0.0,0.0,0.0,0.0,0.0,0.0,0.0,0.0,0.0,0.0,0.0,0.0,0.0,0.0,0.0,0.0,0.0,0.0,0.0,0.0,0.0,0.0,0.0,0.0,0.0,0.0,0.0,0.0,0.0,0.0,0.0,0.0,0.0,0.0,0.0,0.0,0.0,0.0,0.0,0.0,0.0,0.0,0.0,0.0,0.0,0.0,0.0,0.0,0.0,0.0,0.0,0.0,0.0,0.0,0.0,0.0,0.0,0.0,0.0,0.0,0.0,0.0,0.0,0.0,0.0,0.0,0.0,0.0,0.0,0.0,0.0,0.0,0.0,0.0,0.0,0.0,0.0,0.0,0.0,0.0,0.0,0.0,0.0,0.0,0.0,0.0,0.0,0.0,0.0,0.0,0.0,0.0,0.0,0.0,0.0,0.0,0.0,0.0,0.0,0.0,0.0,0.0,0.0,0.0,0.0,0.0,0.0,0.0,0.0,0.0,0.0,0.0,0.0,0.0,0.0,0.0,0.0,0.0,0.0,0.0,0.0,0.0,0.0,0.0,0.0,0.0,0.0,0.0,0.0,0.0,0.0,0.0,0.0,0.0,0.0,0.0,0.0,0.0,0.0,0.0,0.0,0.0,0.0,0.0,0.0,0.0,0.0,0.0,0.0,0.0,0.0,0.0,0.0,0.0,0.0,0.0,0.0,0.0,0.0,0.0,0.0,0.0,0.0,0.0,0.0,0.0,0.0,0.0,0.0,0.0,0.0,0.0,0.0,0.0,0.0,0.0,0.0,0.0,0.0,0.0,0.0,0.0,0.0,0.0,0.0,0.0,0.0,0.0,0.0,0.0,0.0,0.0,0.0,0.0,0.0,0.0,0.0,0.0,0.0,0.0,0.0,0.0,0.0,0.0,0.0,0.0,0.0,0.0,0.0,0.0,0.0,0.0,0.0,0.0,0.0,0.0,0.0,0.0,0.0,0.0,0.0,0.0,0.0,0.0,0.0,0.0,0.0,0.0,0.0,0.0,0.0,0.0,0.0,0.0,0.0,0.0,0.0,0.0,0.0,0.0,0.0,0.0,0.0,0.0,0.0,0.0,0.0,0.0,0.0,0.0,0.0,0.0,0.0,0.0,0.0,0.0,0.0,0.0,0.0,0.0,0.0,0.0,0.0,0.0,0.0,0.0,0.0,0.0,0.0,0.0,0.0,0.0,0.0,0.0,0.0,0.0,0.0,0.0,0.0,0.0,0.0,0.0,0.0,0.0,0.0,0.0,0.0,0.0,0.0,0.0,0.0,0.0,0.0,0.0,0.0,0.0,0.0,0.0,0.0,0.0,0.0,0.0,0.0,0.0,0.0,0.0,0.0,0.0,0.0,0.0,0.0,0.0,0.0,0.0,0.0,0.0,0.0,0.0,0.0,0.0,0.0,0.0,0.0,0.0,0.0,0.0,0.0,0.0,0.0,0.0,0.0,0.0,0.0,0.0,0.0,0.0,0.0,0.0,0.0,0.0,0.0,0.0,0.0,0.0,0.0,0.0,0.0,0.0,0.0,0.0,0.0,0.0,0.0,0.0,0.0,0.0,0.0,0.0,0.0,0.0,0.0,0.0,0.0,0.0,0.0,0.0,0.0,0.0,0.0,0.0,0.0,0.0,0.0,0.0,0.0,0.0,0.0,0.0,0.0,0.0,0.0,0.0,0.0,0.0,0.0,0.0,0.0,0.0,0.0,0.0,0.0,0.0,0.0,0.0,0.0,0.0,0.0,0.0,0.0,0.0,0.0,0.0,0.0,0.0,0.0,0.0,0.0,0.0,0.0,0.0,0.0,0.0,0.0,0.0,0.0,0.0,0.0,0.0,0.0,0.0,0.0,0.0,0.0,0.0,0.0,0.0,0.0,0.0,0.0,0.0,0.0,0.0,0.0,0.0,0.0,0.0,0.0,0.0,0.0,0.0,0.0,0.0,0.0,0.0,0.0,0.0,0.0,0.0,0.0,0.0,0.0,0.0,0.0,0.0,0.0,0.0,0.0,0.0,0.0,0.0,0.0,0.0,0.0,0.0,0.0,0.0,0.0,0.0,0.0,0.0,0.0,0.0,0.0,0.0,0.0,0.0,0.0,0.0,0.0,0.0,0.0,0.0,0.0,0.0,0.0,0.0,0.0,0.0,0.0,0.0,0.0,0.0,0.0,0.0,0.0,0.0,0.0,0.0,0.0,0.0,0.0,0.0,0.0,0.0,0.0,0.0,0.0,0.0,0.0,0.0,0.0,0.0,0.0,0.0,0.0,0.0,0.0,0.0,0.0,0.0,0.0,0.0,0.0,0.0,0.0,0.0,0.0,0.0,0.0,0.0,0.0,0.0,0.0,0.0,0.0,0.0,0.0,0.0,0.0,0.0,0.0,0.0,0.0,0.0,0.0,0.0,0.0,0.0,0.0,0.0,0.0,0.0,0.0,0.0,0.0,0.0,0.0,0.0,0.0,0.0,0.0,0.0,0.0,0.0,0.0,0.0,0.0,0.0,0.0,0.0,0.0,0.0,0.0,0.0,0.0,0.0,0.0,0.0,0.0,0.0,0.0,0.0,0.0,0.0,0.0,0.0,0.0,0.0,0.0,0.0,0.0,0.0,0.0,0.0,0.0,0.0,0.0,0.0,0.0,0.0,0.0,0.0,0.0,0.0,0.0,0.0,0.0,0.0,0.0,0.0,0.0,0.0,0.0,0.0,0.0,0.0,0.0,0.0,0.0,0.0,0.0,0.0,0.0,0.0,0.0,0.0,0.0,0.0,0.0,0.0,0.0,0.0,0.0,0.0,0.0,0.0,0.0,0.0,0.0,0.0,0.0,0.0,0.0,0.0,0.0,0.0,0.0,0.0,0.0,0.0,0.0,0.0,0.0,0.0,0.0,0.0,0.0,0.0,0.0,0.0,0.0,0.0,0.0,0.0,0.0,0.0,0.0,0.0,0.0,0.0,0.0,0.0,0.0,0.0,0.0,0.0,0.0,0.0,0.0,0.0,0.0,0.0,0.0,0.0,0.0,0.0,0.0,0.0,0.0,0.0,0.0,0.0,0.0,0.0,0.0,0.0,0.0,0.0,0.0,0.0,0.0,0.0,0.0,0.0,0.0,0.0,0.0,0.0,0.0,0.0,0.0,0.0,0.0,0.0,0.0,0.0,0.0,0.0,0.0,0.0,0.0,0.0,0.0,0.0,0.0,0.0,0.0,0.0,0.0,0.0,0.0,0.0,0.0,0.0,0.0,0.0,0.0,0.0,0.0,0.0,0.0,0.0,0.0,0.0,0.0,0.0,0.0,0.0,0.0,0.0,0.0,0.0,0.0,0.0,0.0,0.0,0.0,0.0,0.0,0.0,0.0,0.0,0.0,0.0,0.0,0.0,0.0,0.0,0.0,0.0,0.0,0.0,0.0,0.0,0.0,0.0,0.0,0.0,0.0,0.0,0.0,0.0,0.0,0.0,0.0,0.0,0.0,0.0,0.0,0.0,0.0,0.0,0.0,0.0,0.0,0.0,0.0,0.0,0.0,0.0,0.0,0.0,0.0,0.0,0.0,0.0,0.0,0.0,0.0,0.0,0.0,0.0,0.0,0.0,0.0,0.0,0.0,0.0,0.0,0.0,0.0,0.0,0.0,0.0,0.0,0.0,0.0,0.0,0.0,0.0,0.0,0.0,0.0,0.0,0.0,0.0,0.0,0.0,0.0,0.0,0.0,0.0,0.0,0.0,0.0,0.0,0.0,0.0,0.0,0.0,0.0,0.0,0.0,0.0,0.0,0.0,0.0,0.0,0.0,0.0,0.0,0.0,0.0,0.0,0.0,0.0,0.0,0.0,0.0,0.0,0.0,0.0,0.0,0.0,0.0,0.0,0.0,0.0,0.0,0.0,0.0,0.0,0.0,0.0,0.0,0.0,0.0,0.0,0.0,0.0,0.0,0.0,0.0,0.0,0.0,0.0,0.0,0.0,0.0,0.0,0.0,0.0,0.0,0.0,0.0,0.0,0.0,0.0,0.0,0.0,0.0,0.0,0.0,0.0,0.0,0.0,0.0,0.0,0.0,0.0,0.0,0.0,0.0,0.0,0.0,0.0,0.0,0.0,0.0,0.0,0.0,0.0,0.0,0.0,0.0,0.0,0.0,0.0,0.0,0.0,0.0,0.0,0.0,0.0,0.0,0.0,0.0,0.0,0.0,0.0,0.0,0.0,0.0,0.0,0.0,0.0,0.0,0.0,0.0,0.0,0.0,0.0,0.0,0.0,0.0,0.0,0.0,0.0,0.0,0.0,0.0,0.0,0.0,0.0,0.0,0.0,0.0,0.0,0.0,0.0,0.0,0.0,0.0,0.0,0.0,0.0,0.0,0.0,0.0,5.1172,5.1427,0.0,0.0,0.0,0.0,0.0,0.0,0.0,0.0,0.0,0.0,0.0,0.0,0.0,0.0,0.0,0.0,0.0,0.0,0.0,0.0,0.0,0.0,0.0,0.0,0.0,0.0,0.0,0.0,0.0,0.0,0.0,0.0,0.0,0.0,0.0,0.0,0.0,4.4147,4.3729,4.3304,4.2849,4.2849,4.3333,4.4274,0.0,0.0,0.0,0.0,0.0,0.0,0.0,0.0,0.0,0.0,0.0,0.0,0.0,0.0,0.0,0.0,0.0,0.0,0.0,0.0,0.0,0.0,0.0,0.0,0.0,0.0,0.0,0.0,0.0,0.0,0.0,0.0,0.0,0.0,0.0,0.0,0.0,0.0,0.0,0.0,0.0,0.0,0.0,0.0,0.0,0.0,0.0,0.0,0.0,0.0,0.0,0.0,0.0,0.0,0.0,0.0,0.0,0.0,0.0,0.0,0.0,0.0,0.0,0.0,0.0,0.0,0.0,0.0,0.0,0.0,5.2029,5.2241,0.0,0.0,0.0,0.0,0.0,0.0,0.0,0.0,0.0,0.0,0.0,0.0,0.0,0.0,0.0,0.0,0.0,0.0,0.0,0.0,0.0,0.0,0.0,3.9749,3.9769,3.9873,4.0533,4.0936,0.0,0.0,0.0,0.0,0.0,0.0,4.3523,4.413,4.4343,4.4165,4.3439,4.2745,4.2081,4.2084,4.317,4.5099,4.4782,0.0,0.0,0.0,0.0,0.0,0.0,0.0,0.0,0.0,0.0,0.0,0.0,0.0,0.0,0.0,0.0,0.0,0.0,0.0,0.0,0.0,0.0,0.0,0.0,0.0,0.0,0.0,0.0,0.0,0.0,0.0,0.0,0.0,0.0,0.0,0.0,0.0,0.0,0.0,0.0,0.0,0.0,0.0,0.0,0.0,0.0,0.0,0.0,0.0,0.0,0.0,0.0,0.0,0.0,0.0,0.0,0.0,0.0,0.0,0.0,0.0,0.0,0.0,5.4333,5.4369,5.4477,5.3804,5.3442,5.3352,5.3558,5.3515,5.3307,5.3774,0.0,0.0,0.0,0.0,0.0,0.0,0.0,0.0,0.0,0.0,0.0,0.0,0.0,0.0,0.0,0.0,0.0,0.0,0.0,0.0,3.9878,3.9878,4.0176,4.0933,4.1039,4.135,4.2056,0.0,0.0,0.0,0.0,0.0,4.449,4.4537,4.4276,4.3674,4.3516,4.3316,4.3116,4.3228,4.4133,4.5631,4.3946,4.4029,4.544,0.0,0.0,0.0,0.0,0.0,0.0,0.0,0.0,0.0,0.0,0.0,0.0,0.0,0.0,0.0,0.0,0.0,0.0,0.0,0.0,0.0,0.0,0.0,0.0,0.0,0.0,0.0,0.0,0.0,0.0,0.0,0.0,0.0,0.0,0.0,0.0,0.0,0.0,0.0,0.0,0.0,4.9838,5.0515,0.0,0.0,0.0,0.0,0.0,0.0,0.0,0.0,0.0,0.0,0.0,0.0,0.0,5.4002,5.4665,5.399,5.4062,5.4846,5.4122,5.4158,5.4834,5.4431,5.4247,5.4209,5.4021,0.0,5.2648,5.2115,0.0,0.0,0.0,0.0,0.0,0.0,0.0,0.0,0.0,0.0,0.0,0.0,0.0,0.0,0.0,0.0,0.0,0.0,0.0,0.0,0.0,3.99,4.0052,4.0431,4.0872,4.1478,4.2348,4.282,0.0,0.0,0.0,4.4443,4.4764,4.4738,4.4367,4.3581,4.3617,4.3118,4.2194,4.2242,4.2616,4.3243,4.2869,4.398,4.6187,4.6427,0.0,0.0,0.0,0.0,0.0,0.0,0.0,0.0,0.0,0.0,0.0,0.0,0.0,0.0,0.0,0.0,0.0,0.0,0.0,0.0,0.0,0.0,0.0,0.0,0.0,0.0,0.0,0.0,0.0,0.0,0.0,0.0,0.0,0.0,0.0,0.0,0.0,0.0,0.0,5.0959,5.1232,5.1967,5.2653,5.3584,0.0,0.0,0.0,0.0,0.0,0.0,0.0,0.0,0.0,5.4218,5.3892,5.3856,5.4218,5.3892,5.411,5.4894,5.4544,5.4496,5.4736,5.4589,5.4416,5.4276,5.4148,5.384,5.3375,5.3451,5.4254,5.5462,0.0,0.0,0.0,0.0,5.57,5.5352,0.0,0.0,0.0,0.0,0.0,0.0,0.0,0.0,0.0,0.0,0.0,0.0,4.0012,3.9984,4.0109,4.0332,4.0897,4.1711,4.284,4.3471,4.4177,4.5004,4.5068,4.4984,4.49,4.4759,4.4355,4.3765,4.3825,4.3203,4.2016,4.2062,4.2171,4.2321,4.2735,4.4239,4.6458,4.6494,4.6898,4.758,0.0,0.0,0.0,0.0,0.0,0.0,0.0,0.0,0.0,0.0,0.0,0.0,0.0,0.0,0.0,0.0,0.0,0.0,0.0,0.0,0.0,0.0,0.0,0.0,0.0,0.0,0.0,0.0,0.0,0.0,0.0,0.0,0.0,0.0,0.0,0.0,0.0,5.184,5.1946,5.2668,5.2993,5.3653,0.0,0.0,0.0,0.0,0.0,0.0,5.4581,5.4399,5.411,5.3711,5.3711,5.3784,5.4001,5.4001,5.4399,5.5196,5.5196,5.5195,5.5191,5.519,5.505,5.4796,5.4792,5.4713,5.4608,5.4714,5.5139,5.5787,5.6369,5.6369,5.6,5.6007,5.5993,5.5695,0.0,0.0,0.0,0.0,0.0,0.0,0.0,0.0,0.0,0.0,0.0,4.0289,4.0289,4.0295,4.0624,4.1449,4.1559,4.2253,4.392,4.4063,4.4396,4.5152,4.5175,4.517,4.518,4.4605,4.4258,4.4181,4.4235,4.4147,4.3967,4.4079,4.4493,4.5082,4.435,4.4374,4.5044,4.5664,4.6316,4.6997,4.7588,0.0,0.0,0.0,0.0,0.0,0.0,0.0,0.0,0.0,0.0,0.0,0.0,0.0,0.0,0.0,0.0,0.0,0.0,0.0,0.0,0.0,0.0,0.0,0.0,0.0,0.0,0.0,0.0,0.0,0.0,0.0,0.0,0.0,0.0,0.0,0.0,0.0,0.0,5.1977,5.2631,0.0,0.0,0.0,0.0,5.5037,5.431,5.3852,5.3748,5.3023,5.2951,5.3675,5.3711,5.4074,5.4834,5.4834,5.5196,5.5933,5.5933,5.6257,5.6876,5.6747,5.6603,5.6492,5.6344,5.6289,5.6169,5.4679,5.4536,5.525,5.5285,5.5749,5.6342,5.6239,5.6183,5.5985,0.0,0.0,0.0,0.0,0.0,0.0,0.0,0.0,4.0353,4.0691,4.0478,4.0317,4.0317,4.0296,4.042,4.0756,4.0756,4.1281,4.2527,4.3079,4.3704,4.4585,4.5624,4.6184,4.6234,4.5518,4.5102,4.5102,4.515,4.4863,4.4242,4.4295,4.4462,4.4713,4.4371,4.468,4.5395,4.538,4.5811,4.6472,4.6687,4.728,0.0,0.0,0.0,0.0,0.0,0.0,0.0,0.0,0.0,0.0,0.0,0.0,0.0,0.0,0.0,0.0,0.0,0.0,0.0,0.0,0.0,0.0,0.0,0.0,0.0,0.0,0.0,0.0,0.0,0.0,0.0,0.0,0.0,0.0,0.0,0.0,0.0,5.3371,5.3292,0.0,5.4968,5.4681,5.4399,5.4353,5.3984,5.3759,5.3711,5.3929,5.4182,5.4472,5.4472,5.4834,5.5595,5.5595,5.5993,5.6754,5.6754,5.6836,5.6984,5.6842,5.6746,5.66,5.6451,5.6383,5.6347,5.5776,5.5705,5.5955,5.5955,5.6133,5.6347,5.5757,5.5873,5.6108,0.0,0.0,0.0,0.0,0.0,0.0,0.0,0.0,4.0679,4.0419,4.0695,4.0761,4.0454,4.0465,4.0477,4.0477,4.0477,4.0993,4.2179,4.2966,4.3944,4.5133,4.6195,4.6656,4.6454,4.5937,4.5646,4.5662,4.5675,4.5397,4.479,4.479,4.4807,4.4835,4.4802,4.5115,4.5671,4.5429,4.5535,4.5879,4.6118,4.6845,4.7805,0.0,0.0,0.0,0.0,0.0,0.0,0.0,0.0,0.0,0.0,0.0,0.0,0.0,0.0,0.0,0.0,0.0,0.0,0.0,0.0,0.0,0.0,0.0,0.0,0.0,0.0,0.0,0.0,0.0,0.0,0.0,0.0,0.0,0.0,5.2841,5.2784,5.3885,5.3508,5.3618,5.4693,5.4334,5.4065,5.4065,5.4092,5.4133,5.4133,5.4629,5.5015,5.5269,5.5269,5.5631,5.6391,5.6391,5.6681,5.7188,5.7188,5.7125,5.6984,5.6842,5.6746,5.66,5.6451,5.6383,5.6383,5.6383,5.6383,5.6383,5.6383,5.6383,5.6347,5.5812,5.5955,5.6191,0.0,0.0,0.0,0.0,0.0,0.0,4.0381,4.1144,4.1462,4.0731,4.143,4.1682,4.0832,4.0791,4.0813,4.0852,4.0852,4.1493,4.3111,4.3956,4.5151,4.6801,4.684,4.6501,4.5823,4.5712,4.5708,4.5788,4.5746,4.5727,4.5727,4.5727,4.5766,4.5766,4.5766,4.5766,4.5762,4.5799,4.5571,4.5316,4.5923,4.6518,4.7157,0.0,0.0,0.0,0.0,0.0,0.0,0.0,0.0,0.0,0.0,0.0,0.0,0.0,0.0,0.0,0.0,0.0,0.0,0.0,0.0,0.0,0.0,0.0,0.0,0.0,0.0,0.0,0.0,0.0,0.0,0.0,0.0,0.0,5.3225,5.3214,5.3214,5.3214,5.3214,5.3251,5.3251,5.384,5.425,5.425,5.4717,5.505,5.505,5.5015,5.5305,5.6042,5.6042,5.6404,5.7188,5.7188,5.7188,5.7188,5.7188,5.7125,5.6984,5.6842,5.6746,5.66,5.6451,5.6383,5.6383,5.6383,5.6383,5.6383,5.6383,5.6383,5.6383,5.6383,5.6383,5.6221,0.0,0.0,0.0,0.0,0.0,0.0,4.048,4.1239,4.1778,4.1589,4.1826,4.1905,4.1685,4.1139,4.1045,4.1625,4.1661,4.2109,4.3111,4.3956,4.4881,4.5992,4.5405,4.5295,4.5777,4.5216,4.5219,4.5788,4.5777,4.6063,4.6653,4.6653,4.6978,4.7581,4.7591,4.7595,4.7581,4.7579,4.7122,4.6405,4.5937,4.6176,4.6797,0.0,0.0,0.0,0.0,0.0,0.0,0.0,0.0,0.0,0.0,0.0,0.0,0.0,0.0,0.0,0.0,0.0,0.0,0.0,0.0,0.0,0.0,0.0,0.0,0.0,0.0,0.0,0.0,0.0,0.0,0.0,5.3987,5.3437,5.3437,5.3282,5.3214,5.3214,5.3691,5.4069,5.4069,5.4693,5.5066,5.5066,5.566,5.5969,5.5873,5.6503,5.6843,5.6875,5.6962,5.7071,5.7188,5.7188,5.7188,5.7188,5.7188,5.7176,5.7125,5.693,5.6799,5.6746,5.6492,5.6383,5.6383,5.6383,5.6383,5.6383,5.6383,5.6383,5.6383,5.6383,5.6383,5.6333,0.0,0.0,0.0,0.0,0.0,0.0,4.05,4.157,4.2298,4.194,4.2244,4.2363,4.2033,4.1293,4.1006,4.1471,4.1816,4.2334,4.3163,4.4627,4.5687,4.6278,4.58,4.5603,4.5803,4.5708,4.5867,4.6351,4.6699,4.7113,4.7592,4.7592,4.7874,4.8358,4.8334,4.8338,4.8354,4.8314,4.8004,4.7422,4.6913,4.668,4.6666,4.7002,4.7755,4.8711,4.9029,4.9315,4.9566,4.9574,0.0,0.0,0.0,0.0,0.0,0.0,0.0,0.0,0.0,0.0,0.0,0.0,0.0,0.0,0.0,0.0,0.0,0.0,0.0,0.0,0.0,0.0,0.0,0.0,5.4082,5.3865,5.3865,5.3787,5.3691,5.3691,5.4399,5.4913,5.4913,5.5555,5.5987,5.5987,5.6605,5.6926,5.6794,5.7243,5.7412,5.7201,5.7264,5.7457,5.7695,5.7695,5.7876,5.8202,5.8202,5.8021,5.7719,5.7772,5.7603,5.7302,5.7364,5.7368,5.7368,5.7368,5.7368,5.7311,0.0,0.0,0.0,0.0,5.7178,5.7312,0.0,0.0,0.0,0.0,0.0,0.0,4.0596,4.2113,4.2957,4.2144,4.2686,4.2865,4.2061,4.1361,4.0955,4.1074,4.1883,4.2778,4.3593,4.5671,4.6878,4.6812,4.6812,4.6445,4.568,4.6412,4.6914,4.7111,4.7885,4.8349,4.8546,4.8546,4.8585,4.8662,4.8697,4.8693,4.8693,4.8613,4.8534,4.8416,4.8377,4.7735,4.6857,4.6739,4.7545,4.8751,4.8622,4.9022,4.9617,4.9776,0.0,0.0,0.0,0.0,0.0,0.0,0.0,0.0,0.0,0.0,0.0,0.0,0.0,0.0,0.0,0.0,0.0,0.0,0.0,0.0,0.0,0.0,0.0,0.0,5.4107,5.4436,5.4509,5.462,5.4656,5.4546,5.5254,5.5732,5.5732,5.6455,5.6921,5.6921,5.7489,5.7775,5.7595,5.7486,0.0,0.0,0.0,5.7599,5.8383,5.8383,5.8818,5.9602,5.9602,5.9216,5.8552,5.8997,5.8804,5.8165,5.853,5.8709,5.8709,5.8709,5.8709,5.8581,5.7204,5.7096,5.7732,5.7975,5.8296,5.8487,0.0,0.0,0.0,0.0,0.0,0.0,4.1464,4.2898,4.3709,4.2909,4.2992,4.2799,4.2015,4.1795,4.1956,4.2658,4.4118,4.5341,4.6213,4.6673,4.6338,4.5074,4.4967,4.4855,4.4745,4.4866,4.5642,4.7109,4.7264,4.8052,4.9436,4.9436,4.978,5.0434,5.0406,5.0429,5.0429,5.0349,4.9916,4.9289,4.9242,4.8696,4.7813,4.7749,4.8295,4.9089,4.9014,4.9489,5.0151,5.0126,5.0107,5.0089,5.0057,5.0031,0.0,0.0,0.0,0.0,0.0,0.0,0.0,0.0,0.0,0.0,0.0,0.0,0.0,0.0,0.0,0.0,0.0,0.0,0.0,5.5354,5.4854,5.462,5.5291,5.5941,5.6088,5.5438,5.6088,5.6565,5.6565,5.7299,5.7776,5.7776,5.79,5.7869,5.7595,5.7691,5.7547,5.7201,5.7301,5.77,5.8383,5.8383,5.8818,5.9602,5.9602,0.0,5.9348,5.925,5.9127,5.8956,5.878,5.8709,5.8709,5.8709,5.8709,5.8674,5.8367,5.8367,5.8495,5.8552,5.837,5.8088,0.0,0.0,0.0,0.0,0.0,0.0,4.213,4.3216,4.3895,4.347,4.3488,4.3239,4.2394,4.2798,4.2973,4.2537,4.4052,4.561,4.6903,4.6561,4.5953,4.5129,4.5071,4.526,4.5743,4.6151,4.7,4.8294,4.8727,4.9396,5.0262,5.0262,5.0455,5.0841,5.0859,5.0851,5.0851,5.0829,5.052,5.008,5.008,4.9821,4.9312,4.839,4.8532,4.9186,4.9176,4.9652,5.0283,5.0283,5.0259,5.0306,5.0728,5.0544,5.0469,0.0,0.0,0.0,0.0,0.0,0.0,0.0,0.0,0.0,0.0,0.0,0.0,0.0,0.0,5.5097,5.5097,0.0,5.528,5.5685,5.5651,5.5757,5.6124,5.6895,5.7116,5.6308,5.6895,5.7409,5.7409,5.7776,5.7997,5.7997,5.7997,5.8099,5.8312,5.83,5.8397,5.86,5.8524,5.8885,5.9683,5.9641,6.0,6.0797,6.0797,6.0579,6.0217,6.0331,6.017,5.9797,5.9867,5.9901,5.9937,6.0344,6.0736,6.1058,6.1058,6.0329,5.9337,5.9443,5.9345,5.9069,0.0,0.0,0.0,0.0,0.0,0.0,0.0,4.3537,4.401,4.383,4.3868,4.3634,4.2769,4.3785,4.4144,4.3221,4.432,4.5646,4.708,4.639,4.5872,4.5723,4.5719,4.602,4.6744,4.7589,4.8437,4.9251,5.0104,5.0615,5.0821,5.0821,5.0821,5.0821,5.0807,5.0764,5.0764,5.0794,5.0767,5.0687,5.0687,5.0702,5.0548,4.912,4.8951,4.9437,4.9229,4.9658,5.0338,5.0379,5.047,5.0665,5.1194,5.0935,5.088,5.3033,5.3158,0.0,0.0,0.0,0.0,0.0,0.0,0.0,0.0,5.4625,5.4493,5.4403,5.4847,5.5202,5.5003,5.5454,5.5839,5.5827,5.6381,5.6921,5.7214,5.7813,5.807,5.7545,5.7813,5.807,5.8217,5.8217,5.829,5.8437,5.8474,5.8672,5.92,5.9128,5.9346,5.9928,5.9735,6.0056,6.0946,6.0864,6.1267,6.2245,6.2218,6.195,6.1466,6.1838,6.1638,6.107,6.1405,6.1557,6.1593,6.225,6.2857,6.3392,6.3392,6.2175,6.0472,6.0786,6.0764,6.0461,0.0,0.0,0.0,0.0,0.0,0.0,0.0,0.0,4.4557,4.3895,4.3758,4.3465,4.2682,4.4015,4.5757,4.7853,4.7663,4.7545,4.7793,4.7154,4.6442,4.5723,4.5691,4.5748,4.5821,4.6621,4.7473,4.8369,4.9208,5.0039,5.0821,5.0821,5.0821,5.0816,5.0729,5.0706,5.0706,5.0707,5.0721,5.0717,5.0717,5.0712,5.0668,5.0471,5.0432,5.0328,4.9422,4.9641,5.0384,5.0344,5.0818,5.1347,5.0665,5.0888,5.1616,5.2475,5.2616,5.2831,5.4375,5.4752,5.4728,5.4713,5.4705,5.4633,0.0,5.4116,5.4167,5.4876,5.4758,5.4786,5.5669,5.5749,5.5875,5.6565,5.6737,5.7288,5.8719,5.9013,5.9306,5.993,5.8804,5.829,5.9013,5.9086,5.9343,6.0089,6.0126,6.0102,6.0091,6.0066,5.9992,5.9838,5.9799,6.0121,6.0823,6.081,6.1571,6.3056,6.2952,6.317,6.3733,6.3534,6.3436,6.3313,6.3219,6.3143,6.3143,6.325,6.3321,6.3392,6.3392,6.2971,6.2342,6.2875,6.2448,6.1638,0.0,0.0,0.0,0.0,0.0,0.0,0.0,0.0,0.0,4.4253,4.426,4.3957,4.3131,4.4206,4.6194,4.9277,4.8324,4.7609,4.7716,4.7406,4.6652,4.539,4.5819,4.6038,4.6054,4.6403,4.7297,4.8725,4.9139,4.9808,5.0735,5.0735,5.0735,5.0735,5.0712,5.0697,5.0697,5.0717,5.0707,5.0707,5.0707,5.0707,5.0707,5.0707,5.0692,5.0663,5.0657,5.0845,0.0,5.1664,5.2038,5.2297,5.2497,5.2429,5.2495,5.3693,5.3615,5.3388,5.4542,5.507,5.5263,5.4912,5.4714,5.47,5.4917,5.4827,5.4895,5.5493,5.5468,5.5549,5.6344,5.636,5.6712,5.7985,5.8205,5.8609,5.9747,5.9893,6.0003,6.037,5.9795,5.9538,5.9857,5.9893,6.004,6.0382,6.0419,6.0579,6.1007,6.0921,6.1272,6.2107,6.1894,6.2132,6.2883,6.2715,6.2954,6.3618,6.3545,6.3682,6.397,6.3783,6.3647,6.352,6.3459,6.3663,6.4091,6.4091,6.4376,6.4804,6.4804,6.445,6.3867,6.3177,6.2219,6.129,0.0,0.0,0.0,0.0,0.0,0.0,0.0,0.0,0.0,0.0,4.4578,4.4588,4.4414,4.5045,4.6694,4.9672,4.8579,4.765,4.7523,4.7447,4.682,4.5477,4.5999,4.6379,4.6631,4.6715,4.747,4.9012,4.9319,4.98,5.0532,5.0532,5.0532,5.0537,5.0584,5.0604,5.0609,5.0692,5.0707,5.0707,5.0707,5.0707,5.0707,5.0938,5.0985,5.1011,5.1545,5.1649,5.1666,5.2591,5.2945,5.3111,5.3594,5.3379,5.321,5.4579,5.4579,5.4299,5.5042,5.5366,5.5376,5.4935,5.4857,5.4982,5.5271,5.5408,5.5646,5.6102,5.6224,5.6409,5.7014,5.7324,5.7838,5.9013,5.938,5.982,6.0639,6.075,6.0896,6.1374,6.141,6.152,6.1728,6.1117,6.0823,6.1031,6.13,6.1667,6.2267,6.2412,6.2982,6.4038,6.3803,6.3858,6.431,6.4079,6.4054,6.4226,6.4181,6.4274,6.4489,6.4337,6.4199,6.4071,6.4071,6.4376,6.4931,6.4931,6.5268,6.5788,6.5607,6.5178,6.4512,6.3236,6.2336,6.1785,0.0,0.0,0.0,0.0,0.0,0.0,0.0,0.0,0.0,0.0,0.0,0.0,0.0,4.6906,4.762,4.9363,4.8878,4.8136,4.7342,4.7441,4.7128,4.6297,4.6297,4.6678,4.7432,4.7532,4.7957,4.8795,4.9676,5.0095,5.0139,5.0139,5.0139,5.0146,5.0306,5.0391,5.0402,5.0604,5.0707,5.0707,5.0707,5.0707,5.0784,5.1582,5.1743,5.1588,5.1588,5.1582,5.17,5.2399,5.3172,5.3736,5.2905,5.3069,5.3731,5.4504,5.509,5.5621,5.6048,5.5411,5.4643,5.4613,5.5136,5.5544,5.5108,5.5498,5.6129,5.668,5.6796,5.7017,5.7813,5.8609,5.9159,5.9184,5.9857,6.0639,6.1447,6.1557,6.2157,6.3809,6.3992,6.4273,6.5068,6.2989,6.1887,6.2683,6.3503,6.3992,6.4029,6.4751,6.5047,6.4767,6.4753,6.4534,6.413,6.4116,6.4425,6.5052,6.488,6.5197,6.5914,6.5812,6.5732,6.5732,6.5732,6.5732,6.5768,6.5768,6.5768,6.5756,6.5162,6.4584,6.4057,6.339,6.3519,6.3987,0.0,0.0,0.0,0.0,0.0,0.0,0.0,0.0,0.0,0.0,0.0,0.0,0.0,0.0,0.0,0.0,4.9212,4.8724,4.7948,4.8384,4.8112,4.6804,4.7264,4.7452,4.715,4.7243,4.7695,4.8597,4.894,4.9467,5.0082,5.0082,5.0082,5.0127,5.03,5.0385,5.0396,5.0604,5.0707,5.0745,5.1279,5.1505,5.1659,5.3041,5.3431,5.3394,0.0,5.4071,5.3205,5.4038,5.4853,5.5468,5.5261,5.5648,5.608,5.5462,5.5864,5.6347,5.5778,5.5847,5.6069,5.5896,5.5949,5.6115,5.6354,5.6456,5.6735,5.7432,5.8102,5.8577,5.8767,5.9535,6.0269,6.0725,6.1484,6.2095,6.2352,6.3343,6.4053,6.4103,6.4567,6.4995,6.5251,6.453,6.415,6.4444,6.4738,6.4897,6.4897,6.5141,6.5377,6.5592,6.5361,6.5345,6.5569,6.5341,6.533,6.5569,6.5522,6.5597,6.5848,6.5836,6.5804,6.5804,6.5804,6.5804,6.5804,6.5804,6.5804,6.5788,6.5575,6.5145,6.4601,6.4411,6.3986,6.3441,0.0,0.0,0.0,0.0,0.0,0.0,0.0,0.0,0.0,0.0,0.0,0.0,0.0,0.0,0.0,0.0,0.0,4.9023,4.8251,4.8955,4.8798,4.75,4.7883,4.8055,4.783,4.7274,4.7581,4.8781,4.8551,4.8937,4.9897,4.9897,4.9897,4.9903,5.0089,5.0182,5.0194,5.0418,5.0643,5.0982,5.1748,5.2229,5.2682,5.4338,5.4835,0.0,5.6206,5.589,5.4988,5.5721,5.6048,5.6171,5.6201,5.6625,5.7045,5.6671,5.6814,5.7023,5.6589,5.6598,5.6731,5.6557,5.658,5.6695,5.7032,5.7173,5.7373,5.7886,5.8761,5.9359,5.922,6.0231,6.1295,6.1912,6.2512,6.3075,6.3613,6.4371,6.4897,6.4934,6.5411,6.5852,6.6145,6.6145,6.5899,6.5223,6.5467,6.56,6.5547,6.584,6.6085,6.6361,6.6105,6.6111,6.6361,6.6021,6.5867,6.5804,6.5804,6.5804,6.5804,6.5804,6.5804,6.5804,6.5804,6.5804,6.5804,6.5804,6.5804,6.5772,6.5346,6.4961,6.4585,6.446,6.3929,6.325,0.0,0.0,0.0,0.0,0.0,0.0,0.0,0.0,0.0,0.0,0.0,0.0,0.0,0.0,0.0,0.0,0.0,0.0,4.8333,4.9039,4.9107,4.8288,4.8197,4.8524,4.9281,4.7746,4.7701,4.9356,4.8655,4.8769,4.9624,4.9624,4.9624,4.964,4.9836,4.9937,4.9989,5.0169,5.0748,5.154,5.2282,5.3044,5.3903,5.5496,5.5999,5.5919,5.6811,5.7039,5.6933,5.715,5.6625,5.5893,5.5831,5.614,5.6725,5.7842,5.7847,5.7605,5.8264,5.755,5.6594,5.6603,5.7044,5.739,5.7206,5.7567,5.7997,5.8033,5.881,5.9444,5.933,6.0816,6.2238,6.2732,6.2941,6.3579,6.502,6.464,6.48,6.6329,6.6549,6.6843,6.7627,6.77,6.6973,6.5238,6.5846,6.6217,6.6066,6.6795,6.714,6.6983,6.6859,6.6697,6.6482,6.6177,6.5927,6.5804,6.5804,6.5804,6.5804,6.5804,6.5804,6.5804,6.5839,6.5875,6.5875,6.5911,6.5911,6.5814,6.4672,6.4233,6.4176,6.3733,6.3585,6.3543,0.0,0.0,0.0,0.0,0.0,0.0,0.0,0.0,0.0,0.0,0.0,0.0,0.0,0.0,0.0,0.0,0.0,0.0,4.9189,4.9277,4.9246,4.9021,4.8942,4.9014,4.9238,4.8827,4.908,5.0127,4.9928,5.0272,5.1049,5.1049,5.1049,5.1066,5.1273,5.1721,5.2332,5.2559,5.3101,5.392,5.4746,5.5201,5.5572,5.7167,5.7679,5.7583,5.8433,5.8596,5.8212,5.6616,5.5994,5.6007,5.7146,5.7088,5.6743,5.7641,5.7379,5.6967,5.7573,5.7631,5.7594,5.7911,5.8058,5.8104,5.7962,5.7964,5.818,5.8756,5.9713,6.0543,6.0908,6.202,6.2878,6.2793,6.3381,6.3957,6.436,6.5264,6.6035,6.6439,6.7026,6.748,6.7664,6.77,6.7409,6.6696,6.6976,6.7085,6.6882,6.7101,6.714,6.6983,6.6859,6.6653,6.6345,6.6005,6.5852,6.5804,6.5804,6.5804,6.5804,6.5804,6.5804,6.5839,6.641,6.6712,6.6748,6.7267,6.7517,6.7451,6.6688,6.6161,6.5759,6.5194,6.471,6.4329,0.0,0.0,0.0,0.0,0.0,0.0,0.0,0.0,0.0,0.0,0.0,0.0,0.0,0.0,0.0,0.0,0.0,0.0,0.0,4.9351,4.9273,4.9279,4.9189,4.9148,4.9148,4.914,4.9513,5.0371,5.0405,5.0795,5.1579,5.1579,5.1579,5.1625,5.2107,5.2615,5.3111,5.3582,5.4234,0.0,0.0,5.6402,5.6845,5.8042,5.8475,5.8399,5.8798,5.8681,5.8157,5.6855,5.6247,5.6133,5.6594,5.6603,5.6657,5.7575,5.7425,5.7189,5.798,5.8194,5.8236,5.8434,5.84,5.839,5.8747,5.8719,5.8872,5.9727,6.0711,6.147,6.1654,6.2546,6.3318,6.3369,6.381,6.4374,6.5057,6.5925,6.6623,6.699,6.7444,6.77,6.77,6.77,6.7606,6.7373,6.7373,6.7275,6.7062,6.7011,6.7005,6.6918,6.6757,6.6518,6.6177,6.5974,6.5867,6.5804,6.6161,6.6339,6.6339,6.666,6.6803,6.6839,6.7267,6.7497,6.75,6.7659,6.77,6.7615,6.6792,6.6262,6.5975,6.5681,6.5358,6.5121,0.0,0.0,0.0,0.0,0.0,0.0,0.0,0.0,0.0,0.0,4.523,0.0,0.0,0.0,0.0,0.0,0.0,0.0,0.0,0.0,4.9176,4.9156,4.9073,4.9068,4.9076,4.9113,4.9551,5.0454,5.0598,5.1088,5.1881,5.1881,5.1881,5.1918,5.2665,5.3075,5.3224,5.3924,5.4745,5.566,5.6272,5.7034,5.7816,0.0,5.8677,5.8677,5.8551,5.8032,5.7427,5.7307,5.68,5.6123,5.5421,5.5605,5.6343,5.7509,5.7692,5.7709,5.8723,5.8784,5.8481,5.8486,5.8408,5.8581,5.9382,5.9559,5.9808,6.0759,6.1624,6.2154,6.1958,6.2703,6.3501,6.3872,6.4068,6.4682,6.6122,6.6439,6.6806,6.759,6.77,6.77,6.77,6.7687,6.7606,6.7456,6.7266,6.7069,6.683,6.6801,6.6771,6.6742,6.6557,6.633,6.5985,6.6113,6.6054,6.5982,6.6767,6.714,6.7176,6.7802,6.8088,6.8088,6.8128,6.813,6.8116,6.7587,6.7394,6.7287,6.6217,6.5789,6.5779,6.5841,6.5852,6.5933,0.0,0.0,0.0,0.0,0.0,0.0,0.0,0.0,0.0,0.0,4.4811,4.5822,0.0,0.0,0.0,0.0,0.0,0.0,0.0,0.0,0.0,4.8866,4.8849,4.8875,4.8945,4.9576,5.032,5.1221,5.1899,5.2614,5.3432,5.3432,5.3432,5.3432,5.3581,5.4027,5.465,5.4771,5.5728,5.7141,5.7269,5.779,5.8522,5.8519,5.8614,0.0,5.8502,5.7854,5.7099,5.7127,5.6368,5.549,5.5941,5.5679,5.554,5.7096,5.755,5.7647,5.8386,5.8545,5.8476,5.829,5.8728,5.9221,5.9391,5.9944,6.0632,6.1443,6.1925,6.2279,6.2561,6.2977,6.3197,6.3063,6.3625,6.4446,6.5375,6.6072,6.6806,6.759,6.77,6.77,6.77,6.7593,6.7456,6.7266,6.7111,6.6997,6.6976,6.6859,6.6712,6.6578,6.6391,6.6223,6.5985,6.6539,6.68,6.6803,6.7569,6.7926,6.7909,6.8033,6.8088,6.8107,6.8273,6.8346,6.8329,6.8401,6.8438,6.8363,6.7596,6.7333,6.7253,6.6771,6.6609,6.6643,0.0,0.0,0.0,0.0,0.0,0.0,0.0,4.4052,4.4032,4.3946,4.4815,4.5336,4.5075,4.6916,4.8019,0.0,0.0,0.0,0.0,0.0,0.0,4.8687,4.8687,4.8705,4.875,4.9963,5.0843,5.1306,0.0,5.3403,5.3784,5.3784,5.3784,5.3822,5.423,5.4899,5.5679,5.6125,5.7016,5.813,5.813,5.8353,5.8677,5.8561,5.8486,0.0,5.8349,5.8013,5.7637,5.7656,5.7006,5.6183,5.6193,5.5973,5.5892,5.7066,5.7417,5.7555,5.8318,5.8432,5.8323,5.8212,5.8759,5.94,5.9816,6.0551,6.1384,6.2254,6.2793,6.3211,6.3381,6.3821,6.409,6.386,6.4582,6.533,6.5733,6.6533,6.726,6.7664,6.77,6.77,6.77,6.7565,6.7456,6.7373,6.7111,6.6976,6.6903,6.6815,6.6893,6.711,6.7049,6.7112,6.7239,6.7553,6.7686,6.7569,6.8373,6.873,6.873,6.9158,6.9184,6.8909,6.9317,6.9301,6.9015,6.8777,6.8705,6.8609,6.7644,6.7236,6.7195,6.6917,6.6791,6.6791,0.0,0.0,0.0,0.0,0.0,0.0,0.0,4.5003,4.4946,4.4837,4.4827,4.4962,4.5364,4.6643,4.7575,0.0,0.0,0.0,0.0,0.0,0.0,0.0,0.0,0.0,4.8809,0.0,0.0,5.1454,5.2963,0.0,0.0,0.0,0.0,0.0,5.4453,5.5122,5.5837,5.6617,5.7435,0.0,0.0,5.8528,5.8646,0.0,0.0,0.0,0.0,5.8167,5.8145,5.8179,5.7682,5.7031,5.6673,5.6529,5.6564,5.7101,5.7376,5.7672,5.8269,5.8323,5.8215,5.8366,5.8947,5.9673,6.0456,6.1263,6.2108,6.3015,6.3615,6.404,6.4198,6.4632,6.4938,6.4817,6.5542,6.6171,6.6212,6.7052,6.766,6.77,6.77,6.77,6.77,6.7538,6.7501,6.7684,6.7548,6.7353,6.7076,6.7076,6.7312,6.7956,6.7956,6.8089,6.8405,6.8564,6.8554,6.8373,6.9177,6.9569,6.9569,7.0229,7.0237,6.9796,7.0149,6.9938,6.9361,6.8727,6.8435,6.8201,6.7174,6.6791,6.6791,6.6791,6.6791,6.6791,0.0,0.0,0.0,0.0,0.0,0.0,0.0,4.4639,4.4628,4.4628,4.4617,4.4925,4.5661,4.5996,4.6475,0.0,0.0,0.0,0.0,0.0,0.0,0.0,0.0,0.0,0.0,0.0,0.0,5.2287,5.3259,0.0,0.0,0.0,0.0,0.0,0.0,5.3933,5.4082,5.4899,0.0,0.0,0.0,0.0,0.0,0.0,0.0,0.0,0.0,5.8111,5.8031,5.8145,5.7674,5.7122,5.7796,5.7552,5.7048,5.7111,5.7665,5.8271,5.8246,5.8201,5.834,5.8949,5.9722,6.0493,6.13,6.2108,6.2915,6.3735,6.3943,6.4198,6.4801,6.4968,6.4938,6.4817,6.5496,6.6048,6.6185,6.6971,6.7552,6.7687,6.77,6.77,6.77,6.7405,6.7516,6.8282,6.8734,6.8663,6.793,6.7909,6.8159,6.8765,6.8801,6.8665,6.8402,6.9118,6.9377,6.9213,7.0015,7.0407,7.0407,7.0478,7.048,7.0375,6.992,6.9342,6.8743,6.8069,6.7448,6.698,6.6854,6.6791,6.6791,6.6791,6.6791,6.6791,0.0,0.0,0.0,0.0,0.0,0.0,4.5867,4.6034,4.5856,4.5381,4.4917,4.4738,4.5024,4.5139,4.5694,4.7002,0.0,0.0,0.0,0.0,0.0,0.0,0.0,0.0,0.0,0.0,5.161,5.217,5.3041,0.0,0.0,0.0,0.0,0.0,0.0,5.4313,5.5208,5.5542,0.0,0.0,0.0,0.0,0.0,0.0,0.0,0.0,0.0,0.0,5.8008,5.8054,5.7893,5.7661,5.8003,5.7879,5.7678,5.7744,5.8024,5.8282,5.819,5.849,5.8851,5.9134,6.015,6.1202,6.141,6.2093,6.2874,6.3602,6.4094,6.4598,6.5332,6.5795,6.6074,6.6031,6.6343,6.6638,6.6792,6.7195,6.7538,6.7687,6.77,6.7884,6.8385,6.8229,6.8361,6.8939,6.9131,6.9264,6.943,6.9011,6.9007,6.9595,6.9631,6.9673,6.9818,7.0141,7.0236,7.005,7.0371,7.0514,7.0514,7.0514,7.0114,6.9451,7.0036,6.971,6.8813,6.9014,6.8953,6.8683,6.8315,6.8199,6.8199,6.8199,6.8199,6.8221,0.0,0.0,0.0,0.0,0.0,4.506,4.6438,4.6866,4.6795,4.6212,4.5238,4.4774,4.5274,4.4881,4.5238,4.6866,4.7088,0.0,0.0,0.0,0.0,0.0,0.0,0.0,0.0,0.0,5.1802,5.225,5.2905,5.3277,0.0,0.0,5.362,5.3649,0.0,0.0,0.0,0.0,0.0,0.0,0.0,0.0,0.0,0.0,0.0,0.0,0.0,0.0,0.0,0.0,0.0,5.7997,5.7997,5.8143,5.8338,5.8173,5.8122,5.8196,5.8416,5.8825,5.9306,5.9783,6.075,6.163,6.175,6.2345,6.3098,6.3809,6.4457,6.5131,6.6009,6.6511,6.6786,6.6786,6.6918,6.7011,6.7126,6.7317,6.7456,6.7552,6.7826,6.811,6.8463,6.8764,6.9186,6.9738,6.9827,7.0134,7.0713,7.016,7.0009,7.0425,7.0462,7.0574,7.0785,7.0821,7.0684,7.0514,7.0514,7.0428,7.0237,7.0468,7.0005,6.9072,7.024,7.0186,6.9275,6.9804,6.9885,6.9688,6.9252,6.9113,6.9113,6.9113,6.9113,6.9101,0.0,0.0,0.0,0.0,0.0,0.0,4.5677,4.6498,4.7009,4.7009,4.5606,4.5202,4.6795,4.5559,4.5238,4.6866,4.7009,0.0,0.0,0.0,0.0,0.0,0.0,0.0,0.0,0.0,5.167,5.2794,5.2926,5.3045,5.3088,5.3099,5.3188,5.3318,0.0,0.0,0.0,0.0,0.0,0.0,0.0,0.0,5.8204,0.0,0.0,0.0,0.0,0.0,0.0,0.0,0.0,0.0,0.0,5.8535,5.9049,5.8253,5.8008,5.818,5.8976,5.9196,5.96,6.119,6.1594,6.1789,6.2458,6.3121,6.3819,6.4621,6.5224,6.5902,6.6809,6.6889,6.6786,6.6786,6.6918,6.7019,6.6983,6.7111,6.721,6.721,6.8067,6.8384,6.7593,6.8791,6.9857,7.0523,7.1153,7.1494,7.1494,7.1336,7.1292,7.1292,7.1292,7.1114,7.0785,7.0821,7.0684,7.0514,7.0514,7.0184,6.9633,7.0355,7.0391,6.9834,7.056,7.0548,6.9989,6.9989,6.9646,6.9113,6.9113,6.9113,6.9113,6.9113,6.9113,6.8999,0.0,0.0,0.0,0.0,0.0,0.0,0.0,4.6705,4.6669,4.6124,4.5693,4.5416,4.5345,4.5381,4.5608,4.6028,4.6631,0.0,0.0,0.0,0.0,0.0,0.0,0.0,0.0,0.0,5.2226,5.2595,5.2798,5.2872,5.2915,5.3051,5.3472,5.4128,5.4128,5.4912,0.0,0.0,0.0,0.0,0.0,5.8054,5.8054,0.0,0.0,0.0,0.0,0.0,0.0,0.0,0.0,0.0,0.0,0.0,0.0,5.8902,5.9196,5.9722,5.993,6.0407,6.097,6.1484,6.1998,6.2608,6.3288,6.315,6.3387,6.5117,6.5174,6.5321,6.6606,6.6815,6.6815,6.6932,6.699,6.7011,6.7126,6.728,6.762,6.8168,6.9575,7.015,6.9343,7.0456,7.1338,7.1526,7.1506,7.1447,7.1372,7.142,7.1404,7.1292,7.1084,7.0902,7.0821,7.065,7.0341,6.9867,6.9867,6.9561,6.8989,6.9234,6.896,6.8443,6.9713,6.9927,6.9449,7.0469,7.0778,7.0579,7.0579,7.0579,7.0601,7.0744,7.0811,7.0842,0.0,0.0,0.0,0.0,0.0,0.0,0.0,4.6565,4.653,4.6033,4.5782,4.5567,4.539,4.5577,4.5803,4.5974,4.6575,0.0,0.0,0.0,0.0,0.0,0.0,0.0,0.0,5.1766,5.2269,5.2269,5.2468,5.2547,5.2593,5.275,5.3135,5.381,5.4136,5.5097,0.0,0.0,0.0,0.0,5.7997,5.7997,5.7997,0.0,0.0,0.0,0.0,0.0,0.0,0.0,0.0,0.0,0.0,0.0,0.0,0.0,6.0371,6.1129,6.0909,6.1227,6.1667,6.1998,6.2608,6.3192,6.327,6.357,6.4011,6.4687,6.4885,6.5256,6.6185,6.6351,6.6453,6.6881,6.7033,6.7083,6.7111,6.7352,6.7847,6.8648,6.9923,7.07,7.0573,7.1026,7.1524,7.1951,7.151,7.1207,7.1292,7.113,7.1032,7.0982,7.1002,7.0819,7.048,7.0324,6.9938,6.9379,6.9305,6.8916,6.8323,6.8635,6.8418,6.7858,6.9121,6.9467,0.0,7.0398,7.0872,7.0872,7.0872,7.0872,7.086,7.0799,7.0784,7.085,0.0,0.0,0.0,0.0,0.0,0.0,0.0,4.62,4.659,4.659,4.5941,4.5776,4.6531,4.6057,4.5927,4.6531,0.0,0.0,0.0,0.0,0.0,0.0,0.0,0.0,5.0458,5.1367,5.187,5.187,5.2029,5.2162,5.2305,5.2341,5.2507,5.2797,5.37,5.4663,0.0,0.0,0.0,0.0,5.7985,5.7985,0.0,0.0,0.0,0.0,0.0,0.0,0.0,0.0,0.0,0.0,0.0,0.0,0.0,0.0,0.0,0.0,0.0,6.163,6.1814,6.2559,6.324,6.3489,6.2626,6.408,0.0,6.3563,6.444,6.5475,6.5547,6.5547,6.5815,6.6663,6.6968,6.7111,6.7026,6.7457,6.8033,6.878,6.9565,7.0352,7.1219,7.0753,7.0837,7.1921,7.1207,7.0847,7.1195,7.0564,7.0237,7.0393,7.0916,7.0747,6.9867,6.9796,6.9508,6.897,6.8781,6.8304,6.7705,6.8445,6.8438,6.7861,6.8673,6.9011,6.9079,6.9823,7.015,7.0217,7.0217,7.0251,7.0228,6.9768,6.9582,6.9667,0.0,0.0,0.0,0.0,0.0,0.0,0.0,0.0,0.0,0.0,4.6365,4.6389,4.6566,4.6448,4.6377,0.0,0.0,0.0,0.0,0.0,0.0,0.0,0.0,0.0,5.0171,5.1091,5.1594,5.1594,5.1944,5.2126,5.215,5.2738,5.3399,5.4146,5.4904,5.5921,0.0,0.0,0.0,0.0,5.7786,5.7834,0.0,0.0,0.0,0.0,5.7786,5.7834,0.0,0.0,0.0,0.0,0.0,0.0,0.0,0.0,6.0884,6.2055,6.194,0.0,6.2217,6.2202,6.245,6.2745,0.0,6.3233,6.361,6.3718,6.3947,6.4324,6.4863,6.5113,6.5499,6.6412,6.661,6.6797,6.7194,6.8361,6.9322,6.9595,7.0532,7.119,7.1287,7.1247,7.1392,7.1826,7.122,7.0728,7.0478,7.0114,6.9796,6.958,6.9955,6.9991,6.967,6.9507,6.9103,6.8551,6.8494,6.8064,6.7312,6.7516,6.7398,6.7117,6.7861,6.8166,6.8233,6.9011,6.9688,7.0217,7.0217,7.0666,7.1284,7.1333,7.1494,7.1653,0.0,0.0,0.0,0.0,0.0,0.0,0.0,0.0,0.0,0.0,0.0,4.641,4.641,4.6471,0.0,0.0,0.0,0.0,0.0,0.0,0.0,0.0,0.0,5.0117,5.0117,5.0973,5.1415,5.1415,5.1645,5.1771,5.1833,5.2559,5.3243,5.3812,5.4997,5.6124,0.0,0.0,5.7338,5.7522,5.7437,0.0,0.0,0.0,0.0,0.0,5.7461,5.7498,0.0,5.7289,5.7289,5.7388,0.0,0.0,0.0,0.0,6.039,6.1343,6.1668,6.1983,6.2172,6.2024,6.2327,6.2699,6.2839,6.3113,6.3307,6.3194,6.3149,6.3355,6.4031,6.3985,6.4327,6.5925,6.6141,6.6518,6.7613,6.8584,6.9229,6.93,7.043,7.1038,7.0617,7.067,7.0878,7.1256,7.049,7.0043,7.0079,6.9562,6.9252,6.9176,6.9066,6.9066,6.9194,6.9083,6.8724,6.8103,6.8004,6.7699,6.7235,6.7645,6.7636,6.7354,6.8205,6.8544,6.8504,6.9282,6.9823,7.0217,7.0294,7.0641,7.11,7.1106,7.1195,7.1377,0.0,0.0,0.0,0.0,0.0,0.0,0.0,0.0,0.0,0.0,0.0,0.0,0.0,0.0,0.0,0.0,0.0,0.0,0.0,0.0,0.0,0.0,4.9742,5.023,5.023,5.0879,5.1246,5.1246,5.1391,5.1528,5.168,5.2519,5.3034,5.329,5.4817,5.5906,0.0,0.0,5.6933,5.6997,5.7087,0.0,0.0,0.0,0.0,0.0,0.0,0.0,0.0,5.71,5.71,5.7125,5.7087,0.0,0.0,0.0,0.0,0.0,6.1272,6.168,6.1934,6.1868,6.2318,6.2745,6.2644,6.319,6.3388,6.2444,6.2418,6.2662,6.305,6.2837,6.328,6.5367,6.5941,6.6633,6.8117,6.8562,6.8791,6.8908,6.9994,7.0524,6.9924,6.9859,7.006,7.0611,6.9689,6.9287,6.9724,6.9045,6.8686,6.8857,6.8358,6.8329,6.8783,6.8679,6.8427,6.8031,6.7884,6.7749,6.7679,6.848,6.8552,6.8162,6.902,6.9283,6.9147,6.9755,7.0116,7.025,7.0425,7.0624,7.0766,7.0523,7.045,7.0615,0.0,0.0,0.0,0.0,0.0,0.0,0.0,0.0,0.0,0.0,0.0,0.0,0.0,0.0,0.0,0.0,0.0,0.0,0.0,0.0,0.0,4.9543,5.033,5.0765,5.0765,5.0905,5.0954,5.0954,5.1803,5.2241,5.2303,5.3706,5.4677,5.5263,5.5632,5.5998,5.6366,0.0,5.6693,5.6984,5.6881,0.0,0.0,0.0,0.0,0.0,0.0,0.0,0.0,5.668,5.668,5.6839,5.66,0.0,0.0,0.0,0.0,0.0,6.1131,6.1452,6.1651,6.131,6.1487,6.1839,6.2242,6.2468,6.2444,6.2139,6.2477,6.2636,6.1914,6.2914,6.416,6.5117,6.6807,6.8082,6.8346,6.9017,6.9689,7.0278,7.0199,7.0234,7.0662,7.0317,7.0166,7.0424,6.9796,6.9362,6.9157,6.8532,6.8201,6.8221,6.8143,6.8468,6.9203,6.8527,6.8488,6.9078,6.9058,6.9246,6.9639,6.9818,6.9622,6.9199,6.9344,6.9283,6.9113,6.9214,6.973,7.0469,7.049,7.1126,7.2018,7.1979,7.2115,7.2339,0.0,0.0,0.0,0.0,0.0,0.0,0.0,0.0,0.0,0.0,0.0,0.0,0.0,0.0,0.0,0.0,0.0,0.0,0.0,0.0,4.8815,4.9657,5.0044,5.0465,5.0887,5.0887,5.0887,5.0887,5.1768,5.2175,5.221,5.376,5.4894,5.561,5.5648,5.575,5.5893,5.6063,5.6223,5.6415,0.0,0.0,0.0,0.0,0.0,0.0,0.0,0.0,0.0,0.0,5.6478,5.6559,5.6424,0.0,0.0,0.0,0.0,0.0,6.0843,6.1223,6.128,6.093,6.1397,6.2115,6.2788,6.2534,6.2277,6.2769,6.2321,6.1839,6.1977,6.2324,6.3202,6.5107,6.6145,6.7195,6.8567,6.8725,6.8958,6.976,6.9633,6.9597,6.9885,6.958,6.9435,6.967,6.9196,6.8841,6.8686,6.8201,6.8191,6.8724,6.8604,6.8963,6.9897,6.9411,6.9384,6.9728,6.9728,6.9797,6.9877,7.0448,7.043,7.0024,7.0562,7.0614,7.0297,7.0297,7.0599,7.1112,7.1256,7.1721,7.2331,7.2459,7.2586,7.2692,0.0,0.0,0.0,0.0,0.0,0.0,0.0,0.0,0.0,0.0,0.0,0.0,0.0,0.0,0.0,0.0,0.0,0.0,0.0,4.7831,4.8463,4.9657,4.9868,5.0254,5.0887,5.0887,5.0887,5.0887,5.1645,5.2193,5.2579,5.3948,5.4896,5.5493,5.5493,5.5493,5.5522,5.575,5.5829,5.5893,0.0,0.0,0.0,0.0,0.0,0.0,0.0,0.0,0.0,0.0,0.0,0.0,0.0,0.0,0.0,5.8367,5.8945,5.9465,6.0757,6.1146,6.1138,6.0877,6.1472,6.235,6.3091,6.2624,6.233,6.3322,6.2539,6.1791,6.2254,6.2372,6.3129,6.5477,6.605,6.6885,6.8833,6.8516,6.8357,6.9026,6.9059,6.904,6.9096,6.8873,6.88,6.9078,6.8682,6.8397,6.8397,6.8044,6.8234,6.898,6.9012,6.9418,7.0333,7.0354,7.0353,7.0353,7.029,7.0254,7.0256,7.1028,7.1153,7.0784,7.156,7.1656,7.1289,7.1289,7.1434,7.171,7.192,7.2159,7.2437,7.2628,7.2692,7.2692,0.0,0.0,0.0,0.0,0.0,0.0,0.0,0.0,0.0,0.0,0.0,0.0,0.0,0.0,0.0,0.0,0.0,0.0,0.0,4.9118,4.9587,4.9693,5.043,5.0851,5.0887,5.0887,5.0887,5.0887,5.1645,5.272,5.4159,5.5001,5.5422,5.5493,5.5493,5.5493,5.5507,5.5634,5.5706,5.5735,5.6099,0.0,0.0,0.0,0.0,0.0,0.0,0.0,0.0,0.0,0.0,0.0,0.0,0.0,5.8581,5.8674,5.9621,6.0721,6.1013,6.1279,6.1485,6.1453,6.1604,6.1867,6.2366,6.2391,6.2499,6.3169,6.359,6.3519,6.2332,6.4006,6.5812,6.6509,6.7836,6.8903,6.9061,6.8857,6.8765,6.9078,6.8892,6.8854,6.9078,6.8873,6.88,6.9078,6.8682,6.8397,6.8397,6.8182,6.8098,6.8187,6.8877,6.9534,7.012,7.0786,7.1108,7.1108,7.0862,7.1131,7.1848,7.1904,7.1774,7.1532,7.1588,7.1501,7.1289,7.1289,7.158,7.1963,7.1985,7.2266,7.2671,7.2692,7.2692,7.2692,0.0,0.0,0.0,0.0,0.0,0.0,0.0,0.0,0.0,0.0,0.0,0.0,0.0,0.0,0.0,0.0,0.0,0.0,0.0,4.8789,4.9188,4.9693,5.0465,5.1119,5.1561,5.1119,5.1119,5.1575,5.2348,5.326,5.4314,5.5107,5.5212,5.4791,5.5282,5.5493,5.5507,5.5634,5.5692,5.5706,5.5922,5.6077,0.0,0.0,0.0,0.0,0.0,0.0,0.0,0.0,5.6281,5.6338,5.6716,5.7278,5.7996,5.889,5.9675,6.0318,6.0681,6.1129,6.1408,6.1249,6.1752,6.2368,6.2562,6.2751,6.3043,6.3569,6.3339,6.2993,6.2874,6.4111,6.5499,6.6523,6.7329,6.803,6.8765,6.8647,6.8551,6.8663,6.8571,6.8551,6.8663,6.8571,6.8551,6.8663,6.8494,6.8338,6.8221,6.8004,6.8392,6.9497,6.9686,7.0402,7.1683,7.1845,7.1863,7.1897,7.1498,7.146,7.1732,7.1732,7.1688,7.16,7.16,7.1501,7.1289,7.1289,7.1457,7.1776,7.2072,7.2395,7.2692,7.2692,7.2692,7.2692,0.0,0.0,0.0,0.0,0.0,0.0,0.0,0.0,0.0,0.0,0.0,0.0,0.0,0.0,0.0,0.0,0.0,0.0,4.8872,4.9105,4.9609,5.0382,5.0943,5.1716,5.2685,5.1997,5.187,5.2383,5.3155,5.3787,5.4314,5.5107,5.5212,5.4685,5.5247,5.5493,5.5507,5.561,5.5654,5.5634,5.5793,5.5922,0.0,0.0,0.0,0.0,0.0,0.0,0.0,0.0,5.617,5.6396,5.6826,5.7379,5.8098,5.9102,5.9526,5.9772,6.022,6.0501,6.0672,6.063,6.1568,6.2543,6.2574,6.303,6.347,6.3747,6.3486,6.3403,6.397,6.4918,6.5937,6.6832,6.7244,6.773,6.8597,6.8474,6.8319,6.8397,6.8338,6.8319,6.8397,6.8338,6.8319,6.8397,6.8338,6.8344,6.8483,6.8343,6.8943,7.036,7.043,7.0986,7.208,7.2086,7.2072,7.1985,7.1678,7.1534,7.16,7.16,7.1556,7.1523,7.1523,7.1434,7.1289,7.1289,7.1457,7.1754,7.2124,7.248,7.2692,7.2692,7.2649,7.2586,0.0,0.0,0.0,0.0,0.0,0.0,0.0,0.0,0.0,0.0,0.0,0.0,0.0,0.0,0.0,0.0,0.0,0.0,4.9693,5.0465,5.1224,5.1983,5.2018,5.272,5.4279,5.3591,5.3204,5.3204,5.3928,5.4279,5.4314,5.5107,5.5493,5.5493,5.5493,5.5493,5.5493,5.5493,5.5493,5.5507,5.5634,5.5692,5.5706,0.0,0.0,0.0,0.0,0.0,0.0,0.0,5.6082,5.6596,5.6596,5.7791,5.9197,5.9345,5.9299,5.9274,5.9627,5.9441,5.9331,5.9739,6.0969,6.216,6.238,6.3013,6.36,6.36,6.4334,6.5151,6.5707,6.6787,6.7588,6.7607,6.8027,6.8474,6.8667,6.8338,6.8162,6.8377,6.8221,6.8162,6.8377,6.8201,6.8182,6.8377,6.8236,6.8463,6.9276,6.9311,6.9656,7.036,7.0925,7.1071,7.0802,7.1336,7.1523,7.1312,7.1312,7.139,7.16,7.16,7.1501,7.1289,7.1289,7.1289,7.1289,7.1289,7.158,7.2007,7.2223,7.2459,7.2692,7.2692,7.2523,7.2352,0.0,0.0,0.0,0.0,0.0,0.0,0.0,0.0,0.0,0.0,0.0,0.0,0.0,0.0,0.0,0.0,0.0,0.0,5.05,5.1259,5.1772,5.1983,5.3036,5.3576,5.352,5.331,5.345,5.3963,5.3647,5.352,5.3556,5.4314,5.4384,5.3942,5.5016,5.5493,5.5493,5.5493,5.5493,5.5493,5.5552,5.5566,5.5581,0.0,0.0,0.0,0.0,0.0,0.0,0.0,0.0,0.0,5.6955,5.7891,5.8943,5.9532,5.9831,5.9957,5.9976,6.011,6.043,6.1132,6.171,6.236,6.3082,6.3427,6.3738,6.4255,6.4904,6.5489,6.5925,6.6969,6.764,6.7411,6.785,6.8201,6.826,6.8162,6.8103,6.8162,6.8123,6.8103,6.8182,6.864,6.8951,6.9011,6.9469,6.9808,7.007,7.007,7.0367,7.0959,7.1116,7.1345,7.1643,7.1817,7.1854,7.1766,7.1766,7.1634,7.1367,7.1367,7.1379,7.1289,7.1289,7.1289,7.1289,7.1289,7.158,7.2007,7.205,7.2331,7.2671,7.2501,7.2373,7.2309,0.0,0.0,0.0,0.0,0.0,0.0,0.0,0.0,0.0,0.0,4.8332,0.0,0.0,0.0,0.0,0.0,0.0,0.0,0.0,5.1597,5.2123,5.2453,5.3366,5.3787,5.3661,5.3569,5.3955,5.4791,5.3975,5.3532,5.3489,5.4303,5.4437,5.4031,5.5057,5.5493,5.5493,5.5398,5.5369,5.5369,5.5309,5.5314,5.5329,0.0,0.0,0.0,0.0,0.0,0.0,0.0,0.0,0.0,5.6974,5.7957,5.892,5.8892,5.9211,5.9497,5.9248,5.9709,6.0389,6.1051,6.181,6.2683,6.3807,6.3807,6.3807,6.4565,6.5229,6.583,6.637,6.7271,6.7827,6.7668,6.7886,6.8083,6.8083,6.8083,6.8083,6.8083,6.8359,6.8586,6.8586,6.9276,6.9759,6.9759,7.0139,7.0553,7.0829,7.0863,7.1084,7.1644,7.1623,7.1756,7.1985,7.1898,7.1854,7.1854,7.1744,7.158,7.1312,7.1367,7.1401,7.1289,7.1289,7.1289,7.1289,7.1289,7.158,7.1985,7.1876,7.2137,7.2523,7.2266,7.2115,7.2016,0.0,0.0,0.0,0.0,0.0,0.0,0.0,0.0,0.0,0.0,4.8284,4.8986,0.0,0.0,0.0,0.0,0.0,0.0,0.0,5.1674,5.2411,5.3127,5.3162,5.3513,5.4235,5.4098,5.4399,5.5223,5.4489,5.4056,5.3923,5.4735,5.5109,5.5079,5.5334,5.5463,5.5448,5.5244,5.5184,5.5169,5.5053,5.4992,5.4976,5.4992,0.0,0.0,0.0,0.0,0.0,0.0,0.0,0.0,5.6909,5.7991,5.9075,5.7977,5.8065,5.8435,5.8141,5.8857,5.9765,6.0237,6.1637,6.3213,6.443,6.422,6.4014,6.4772,6.5497,6.624,6.6945,6.7635,6.8083,6.8083,6.8083,6.8083,6.8083,6.8152,6.8187,6.8187,6.8931,6.9414,6.9414,7.007,7.0518,7.0518,7.0587,7.0898,7.1567,7.1622,7.1807,7.2253,7.2288,7.2159,7.192,7.1666,7.1578,7.1556,7.1401,7.1289,7.1312,7.1501,7.1479,7.1289,7.1289,7.1289,7.1289,7.1289,7.158,7.1942,7.1688,7.1864,7.2266,7.2029,7.181,7.1622,0.0,0.0,0.0,0.0,0.0,0.0,0.0,0.0,0.0,0.0,0.0,0.0,0.0,0.0,0.0,0.0,0.0,0.0,0.0,5.2212,5.2643,5.2782,5.2817,5.3166,5.3883,5.3428,5.314,5.3142,5.3885,5.4183,5.4071,5.4358,5.4369,5.4152,5.4925,5.5219,5.5098,5.5068,5.5053,5.5053,5.5022,5.493,5.4857,5.4946,0.0,0.0,0.0,0.0,0.0,0.0,0.0,0.0,5.7667,5.8305,5.9029,5.8936,5.9004,5.9229,5.9898,6.0145,6.0549,6.1812,6.321,6.4345,6.4653,6.5048,6.5619,6.6359,6.6635,6.6999,6.7738,6.798,6.8083,6.8083,6.8083,6.8083,6.8083,6.8655,6.9035,6.9035,6.9725,7.0173,7.0173,7.0829,7.1256,7.1256,7.1864,7.2278,7.245,7.245,7.2329,7.2072,7.205,7.1854,7.1468,7.1401,7.1379,7.1379,7.1334,7.1289,7.1289,7.1356,7.1356,7.1289,7.1289,7.1289,7.1289,7.1289,7.1434,7.1666,7.1622,7.1776,7.2029,7.1776,7.1644,7.1578,0.0,0.0,0.0,0.0,0.0,0.0,0.0,0.0,0.0,0.0,0.0,0.0,0.0,0.0,0.0,0.0,0.0,0.0,0.0,0.0,5.2839,5.3222,5.3162,5.3321,5.3798,5.3077,5.2874,5.3182,5.3803,5.3977,5.3773,5.4286,5.4445,5.4313,5.4878,5.5083,5.4992,5.4915,5.4884,5.4919,5.4792,5.4941,5.5189,5.5268,0.0,0.0,5.5761,0.0,0.0,0.0,0.0,0.0,0.0,0.0,5.8892,5.8351,5.8663,5.9287,5.9872,6.041,6.1275,6.3194,6.4191,6.4876,6.5635,6.6117,6.6654,6.7359,6.7275,6.7241,6.7945,6.8083,6.8083,6.8083,6.8428,6.867,6.867,6.9345,6.9828,6.9828,7.0484,7.0912,7.0912,7.1622,7.2071,7.2071,7.245,7.2692,7.2692,7.2586,7.2352,7.2007,7.1985,7.181,7.1457,7.1434,7.1434,7.1434,7.1356,7.1289,7.1289,7.1289,7.1289,7.1289,7.1289,7.1289,7.1289,7.1289,7.1412,7.16,7.1501,7.1612,7.1776,7.1644,7.16,7.16,0.0,0.0,0.0,0.0,0.0,0.0,0.0,0.0,0.0,0.0,0.0,0.0,0.0,0.0,0.0,0.0,0.0,0.0,0.0,0.0,0.0,5.3862,5.3548,5.3478,5.3723,5.2934,5.2934,5.3818,5.3848,5.3766,5.3598,5.4421,5.4795,5.4749,5.4884,5.4946,5.49,5.4811,5.4749,5.4733,5.4576,5.4858,5.5409,5.5409,5.5892,5.6529,5.5996,5.6322,5.7012,5.715,0.0,0.0,0.0,0.0,5.8788,5.7661,5.8113,5.9099,5.9529,6.0635,6.2186,6.4186,6.4807,6.5255,6.6689,6.7103,6.7359,6.798,6.7601,6.7359,6.798,6.8221,6.829,6.829,6.8862,6.9345,6.9483,7.0035,7.0415,7.0415,7.1132,7.1573,7.147,7.218,7.2628,7.2628,7.2671,7.2671,7.2628,7.2437,7.2202,7.1942,7.192,7.181,7.1534,7.1534,7.1534,7.1534,7.1367,7.1289,7.1289,7.1289,7.1289,7.1289,7.1289,7.1289,7.1289,7.1289,7.139,7.1534,7.139,7.1457,7.16,7.1644,7.1666,7.1688,0.0,0.0,0.0,0.0,0.0,0.0,0.0,0.0,0.0,0.0,5.0002,5.0043,0.0,0.0,0.0,0.0,0.0,0.0,5.1136,0.0,0.0,5.4335,5.3111,5.2731,5.3452,5.2814,5.2829,5.3452,5.3571,5.3887,5.4356,5.4788,5.4807,5.456,5.4749,5.4733,5.4557,5.4526,5.4526,5.456,5.4494,5.4547,5.4651,5.4651,5.5099,5.5823,5.6426,5.7116,5.784,5.8495,5.8754,0.0,0.0,0.0,5.8978,5.8788,5.884,5.9288,6.0651,6.2135,6.3531,6.4462,6.5221,6.5964,6.6827,6.7497,6.798,6.8083,6.8014,6.798,6.8083,6.869,6.9138,6.9138,6.9242,6.9518,7.0173,7.0346,7.0415,7.0415,7.1469,7.194,7.1288,7.1927,7.2352,7.2352,7.2565,7.2607,7.2373,7.2331,7.2081,7.1666,7.1644,7.1568,7.1356,7.1356,7.1356,7.1356,7.1312,7.1289,7.1289,7.1289,7.1289,7.1289,7.1289,7.1289,7.1289,7.1289,7.1312,7.1356,7.1523,7.1578,7.1622,7.1876,7.1942,7.1942,0.0,0.0,0.0,0.0,0.0,0.0,0.0,0.0,0.0,0.0,0.0,4.9737,0.0,0.0,0.0,5.0048,5.0443,5.0764,5.0911,5.1255,5.1943,5.3044,5.2502,5.2375,5.272,5.2486,5.2451,5.272,5.3261,5.3625,5.3908,5.4479,5.4636,5.4494,5.4608,5.4592,5.4478,5.4478,5.4478,5.4478,5.4478,5.5223,5.6209,5.5894,5.6688,5.7946,5.7548,5.7909,5.8478,5.8409,5.8668,5.8995,5.8995,0.0,0.0,0.0,5.8995,5.934,6.0875,6.2737,6.4393,6.5186,6.5964,6.6723,6.7448,6.7876,6.8221,6.869,6.8793,6.8793,6.8793,6.9414,6.9932,6.9932,7.0277,7.0656,7.0967,7.1015,7.1015,7.1015,7.1393,7.1554,7.1211,7.1863,7.2266,7.2137,7.2352,7.2373,7.2137,7.1973,7.182,7.16,7.1501,7.1367,7.1289,7.1289,7.1289,7.1289,7.1289,7.1289,7.1289,7.1289,7.1289,7.1289,7.1289,7.1289,7.1289,7.1289,7.1379,7.1479,7.1556,7.1688,7.1854,7.2094,7.2094,7.2007,0.0,0.0,0.0,0.0,0.0,0.0,0.0,0.0,0.0,0.0,0.0,0.0,0.0,0.0,0.0,0.0,5.0405,5.065,5.0594,5.08,5.1302,5.2229,5.2027,5.2069,5.2513,5.2104,5.2088,5.2513,5.3115,5.3494,5.3701,5.4237,5.4478,5.4478,5.4478,5.4478,5.4478,5.4478,5.4616,5.4789,5.4948,5.6055,5.7535,5.6965,5.7809,5.9183,5.8031,5.8099,5.8651,5.8306,5.8564,5.8995,5.8995,5.8995,0.0,0.0,0.0,5.9564,6.0703,6.253,6.4358,6.5302,6.6114,6.6945,6.7817,6.8044,6.8325,6.9138,6.9449,6.9656,6.9828,7.0311,7.0691,7.0691,7.1139,7.1567,7.1795,7.1463,7.1291,7.1463,7.1248,7.1113,7.1177,7.182,7.218,7.2072,7.2288,7.2309,7.2072,7.1854,7.1666,7.16,7.139,7.1289,7.1289,7.1289,7.1289,7.1289,7.1289,7.1289,7.1289,7.1289,7.1289,7.1289,7.1289,7.1289,7.1289,7.1289,7.1367,7.1512,7.1578,7.171,7.192,7.2159,7.2137,7.2007,0.0,0.0,0.0,0.0,0.0,0.0,0.0,0.0,0.0,0.0,0.0,0.0,5.0533,4.9812,4.9646,5.048,4.9964,4.9876,5.056,5.08,5.1543,5.2985,5.173,0.0,5.3306,5.1771,5.1771,5.3356,5.3391,5.377,5.4444,5.4478,5.4478,5.4478,5.4478,5.4478,5.4478,5.4478,5.4892,5.56,5.6159,5.6883,5.7535,5.678,5.702,5.7655,5.7049,5.7322,5.8081,5.872,5.8961,5.8995,5.8995,5.8995,5.8995,0.0,0.0,0.0,6.022,6.141,6.2908,6.4183,6.5226,6.6286,6.7516,6.7945,6.8325,6.9138,6.9863,7.0553,7.1256,7.1394,7.1429,7.1429,7.1463,7.1795,7.2519,7.1381,7.0725,7.1394,7.11,7.0909,7.119,7.167,7.2094,7.2288,7.2523,7.2565,7.2309,7.2094,7.1876,7.16,7.139,7.1289,7.1289,7.1289,7.1289,7.1289,7.1289,7.1289,7.1289,7.1289,7.1289,7.1289,7.1289,7.1289,7.1289,7.1289,7.1312,7.1334,7.1512,7.16,7.1644,7.192,7.2007,7.1985,0.0,0.0,0.0,0.0,0.0,0.0,0.0,0.0,0.0,0.0,0.0,0.0,0.0,5.028,5.0401,4.9767,4.9475,4.9362,4.9542,5.0206,5.081,5.1322,5.1381,5.1744,5.2478,5.2398,5.2685,5.3391,5.3873,5.419,5.4303,5.4303,5.453,5.4879,5.4624,5.4741,5.5092,5.5154,5.5586,5.6245,5.6934,5.7895,5.8818,5.817,5.8615,5.9469,5.8548,5.8081,5.7943,5.8202,5.8288,5.8288,5.8288,5.8616,5.8995,5.8995,5.9564,6.0185,6.0185,6.1668,6.3305,6.3748,6.5497,6.7163,6.7276,6.7974,6.8868,6.9822,7.0242,7.0794,7.2036,7.2278,7.2278,7.2278,7.2278,7.2209,7.1967,7.107,7.0457,7.0567,7.0309,7.0311,7.0875,7.1584,7.1963,7.1864,7.2115,7.2072,7.1656,7.1602,7.1513,7.1412,7.1356,7.1289,7.1289,7.1289,7.1289,7.1289,7.1289,7.1289,7.1289,7.1289,7.1289,7.1289,7.1289,7.1289,7.1289,7.1289,7.1401,7.1523,7.1556,7.1688,7.1876,7.1963,7.1898,7.18,0.0,0.0,0.0,0.0,0.0,0.0,0.0,0.0,0.0,0.0,0.0,0.0,0.0,0.0,5.0715,4.9937,4.9869,4.9822,4.9729,5.0394,5.0861,5.1133,5.1482,5.1965,5.2651,5.2827,5.3165,5.3598,5.4079,5.4255,5.4143,5.4143,5.4489,5.5091,5.4825,5.5063,5.5685,5.5832,5.6124,5.6591,5.7792,5.8784,5.9565,5.9161,5.9571,6.0182,5.903,5.8444,5.8255,5.8772,5.9064,5.9167,5.8996,5.8978,5.8995,5.8995,5.9392,5.9806,5.9806,6.1289,6.2857,6.3059,6.4774,6.649,6.6828,6.7389,6.8386,7.0063,7.0415,7.0863,7.2416,7.2628,7.2607,7.2671,7.2485,7.2105,7.1567,7.0863,7.0457,7.0567,7.0275,7.0379,7.1217,7.1634,7.1832,7.1732,7.1898,7.1854,7.1557,7.1434,7.1379,7.1289,7.1289,7.1289,7.1289,7.1289,7.1289,7.1289,7.1289,7.1289,7.1289,7.1289,7.1289,7.1289,7.1289,7.1289,7.1289,7.1289,7.1401,7.1523,7.1523,7.1612,7.1778,7.2051,7.203,7.1965,0.0,0.0,0.0,0.0,0.0,0.0,0.0,0.0,0.0,5.0419,0.0,0.0,0.0,0.0,0.0,5.1133,5.1201,5.1201,5.1201,5.1412,5.1847,5.2579,5.1949,5.2318,5.3946,5.3085,5.3085,5.3997,5.3997,5.4031,5.4014,5.4014,5.4424,5.5143,5.5143,5.5552,5.6252,5.6439,5.6523,5.6712,5.8817,5.9599,5.9565,5.9634,5.965,5.9499,5.8376,5.8307,5.8994,6.0469,6.1302,6.1618,6.1083,6.0026,5.8978,5.8978,5.8978,5.8978,0.0,0.0,0.0,6.1895,6.2814,6.4111,6.6088,6.6204,6.6738,6.9704,7.036,7.0843,7.2416,7.248,7.2395,7.2615,7.2015,7.1498,7.1498,7.0843,7.0691,7.1394,7.11,7.1195,7.2185,7.1886,7.171,7.1963,7.1985,7.1985,7.1963,7.171,7.1523,7.1312,7.1289,7.1289,7.1289,7.1289,7.1289,7.1289,7.1289,7.1289,7.1289,7.1289,7.1289,7.1289,7.1289,7.1289,7.1289,7.1289,7.1289,7.1289,7.1323,7.1323,7.1424,7.2157,7.2428,7.2529,0.0,0.0,0.0,0.0,0.0,0.0,5.0413,5.0749,5.0977,0.0,0.0,0.0,5.1235,5.0998,5.0964,5.1167,5.1201,5.1201,5.1201,5.1757,5.2162,5.2365,5.2738,5.3194,5.3783,5.353,5.3596,5.3997,5.3997,5.4204,5.4583,5.4583,5.5213,5.6331,5.6331,5.6738,5.7418,5.7329,5.7295,5.7484,5.9569,5.9808,5.9043,6.003,6.0727,6.1055,5.9976,5.9907,6.0384,6.0389,6.0078,5.9575,5.928,5.8956,5.8648,5.8648,5.8648,5.8751,5.9282,0.0,0.0,0.0,0.0,0.0,6.3197,6.4795,6.669,6.8278,6.9432,7.0629,7.2141,7.2223,7.1987,7.1652,7.1419,7.1282,7.1282,7.0774,7.0609,7.12,7.1156,7.1358,7.2025,7.1963,7.1854,7.171,7.1898,7.1832,7.1513,7.1424,7.1379,7.1289,7.1289,7.1289,7.1289,7.1289,7.1289,7.1289,7.1289,7.1289,7.1289,7.1289,7.1289,7.1289,7.1289,7.1289,7.1289,7.1289,7.1289,7.1357,7.1887,7.209,7.2191,7.2902,7.3195,7.3308,0.0,0.0,0.0,0.0,0.0,5.0606,5.0701,5.0995,5.1201,0.0,0.0,0.0,5.1674,5.1945,5.2148,5.2148,5.2148,5.2148,5.2148,5.257,5.2807,5.2807,5.3247,5.3534,5.3601,5.3635,5.382,5.4243,5.4243,5.4567,5.5195,5.5195,5.5601,5.6341,5.6341,5.6649,5.7095,5.6969,5.6936,5.7124,5.9254,5.9308,5.8357,6.0387,6.1294,6.1405,6.0872,6.1008,6.1517,6.1507,6.0866,6.0086,6.0194,5.9461,5.8508,5.8508,5.8508,5.8593,5.9037,5.9378,5.9704,6.013,0.0,0.0,6.2981,6.4181,6.567,6.8138,6.9337,7.0296,7.1495,7.178,7.1637,7.1016,7.0661,7.0562,7.0856,7.0526,7.0526,7.1242,7.1515,7.1786,7.2103,7.1963,7.1788,7.1622,7.1678,7.1602,7.1312,7.1289,7.1289,7.1289,7.1289,7.1289,7.1289,7.1289,7.1289,7.1289,7.1289,7.1289,7.1289,7.1289,7.1289,7.1289,7.1289,7.1289,7.1323,7.165,7.1751,7.1819,7.2225,7.2597,7.2935,7.368,7.395,7.4052,0.0,0.0,5.1067,5.1169,5.1236,5.1304,5.1304,5.1388,5.1472,0.0,5.1472,5.1708,5.2367,5.3078,5.3551,0.0,5.3551,5.3551,5.3619,5.3551,5.3518,5.3518,5.3518,5.3518,5.3518,5.3585,5.3923,5.4617,5.4668,5.5108,5.5834,5.5834,5.5834,5.5834,5.5902,5.5939,5.5961,5.6063,5.6063,5.6199,5.8341,5.8518,5.7791,6.0627,6.1505,6.1277,6.139,6.1887,6.2528,6.3028,6.2604,6.1987,6.224,6.0746,5.8881,5.8539,5.8539,5.8676,5.8573,5.8983,5.9427,5.9495,5.9529,0.0,6.364,6.3591,6.4005,6.8063,6.9053,6.9428,7.0337,7.0745,7.0728,7.0083,6.9437,6.9309,7.0196,7.0189,7.0409,7.125,7.1887,7.2275,7.215,7.183,7.16,7.16,7.1412,7.1312,7.1334,7.1312,7.1289,7.1289,7.1289,7.1289,7.1289,7.1289,7.1289,7.1289,7.1289,7.1289,7.1289,7.1289,7.1289,7.1289,7.1289,7.1289,7.1357,7.209,7.2394,7.2428,7.2597,7.3037,7.3713,7.4458,7.4705,7.483,0.0,5.0177,5.0283,5.0939,5.1512,5.1899,5.1899,5.2572,5.3027,5.3027,5.3027,5.3112,5.3247,5.3416,5.3754,0.0,5.3856,5.3754,5.4329,5.3822,5.3518,5.3518,5.3518,5.3518,5.3518,5.4093,5.4482,5.4617,5.5209,5.5868,5.6596,5.6596,5.6596,5.663,5.7205,5.6817,5.5803,5.6378,5.6383,5.6166,5.794,5.8665,5.8841,6.0538,6.1874,6.2806,6.2389,6.2988,6.3798,6.2771,6.2573,6.2415,6.0557,6.0748,6.1162,5.8721,5.8856,5.9651,5.9075,5.8567,5.8382,5.8973,5.9143,0.0,5.9297,6.0649,6.2293,6.3757,6.5017,6.6256,6.7651,6.7348,6.6837,6.6867,6.6628,6.7233,6.9499,6.9982,7.0175,7.0354,7.1494,7.2005,7.1251,7.1414,7.16,7.16,7.1412,7.1379,7.1512,7.1367,7.1289,7.1289,7.1289,7.1289,7.1289,7.1289,7.1289,7.1289,7.1289,7.1289,7.1289,7.1289,7.1289,7.1289,7.1289,7.1289,7.1357,7.209,7.2394,7.2529,7.3713,7.4255,7.4492,7.5202,7.5473,7.5506,5.1573,5.1711,5.1763,5.2184,5.2539,5.2809,5.2809,5.318,5.3619,5.3991,5.4363,5.4465,5.4093,5.4059,5.4059,5.4059,0.0,0.0,0.0,5.3602,5.3568,5.4025,5.394,5.4125,5.4583,5.4972,5.5344,5.5683,5.6089,5.6461,5.6799,5.7171,5.6765,5.575,5.6867,5.6528,5.5209,5.5936,5.6804,5.7713,5.8569,5.8886,5.9133,6.1329,6.2465,6.2919,6.3011,6.3475,6.3983,6.3889,6.3479,6.2981,6.2717,6.2775,6.2516,6.025,6.0114,6.0385,5.8863,5.8186,5.8032,5.8699,5.8653,0.0,0.0,6.0404,6.1302,6.2775,6.369,6.4436,6.5217,6.5237,6.5196,6.5298,6.5541,6.6193,6.7658,6.8726,6.955,7.0051,7.0751,7.1113,7.0913,7.0983,7.1182,7.1423,7.1379,7.1356,7.1434,7.1356,7.1289,7.1289,7.1289,7.1289,7.1289,7.1289,7.1289,7.1289,7.1289,7.1289,7.1289,7.1289,7.1289,7.1289,7.1289,7.1515,7.1921,7.2631,7.3172,7.3578,7.4299,7.483,7.5202,7.5574,7.5709,7.5709,5.291,5.3146,5.3163,5.3281,5.3314,5.3399,5.3568,5.3636,5.394,5.4702,5.5174,5.5258,5.4871,5.4651,5.4498,5.4363,5.4228,0.0,5.4278,5.4005,5.4072,5.4665,5.4577,5.4863,5.5576,5.5764,5.6135,5.6691,5.6826,5.6894,5.6928,5.7502,5.6759,5.4969,5.6491,5.6272,5.4819,5.6072,5.7636,5.9343,5.9824,5.9923,6.0056,6.237,6.3065,6.2903,6.3489,6.3902,6.4209,6.4755,6.4341,6.3757,6.4767,6.4634,6.3714,6.1612,6.1308,6.1105,5.8499,5.7873,5.8073,5.8377,5.8317,5.8714,0.0,0.0,0.0,6.2201,6.2572,6.2606,6.2741,6.3167,6.3471,6.3471,6.412,6.4695,6.4896,6.6391,6.7974,6.9392,6.979,7.0083,7.0371,7.0314,7.0573,7.1244,7.1154,7.1142,7.1289,7.1289,7.1289,7.1289,7.1289,7.1289,7.1289,7.1289,7.1289,7.1289,7.1289,7.1289,7.1289,7.1289,7.1289,7.1289,7.1424,7.1853,7.2462,7.3341,7.4052,7.4603,7.4739,7.5168,7.5709,7.5709,7.5709,7.5709,5.1933,5.1864,5.1927,5.2594,5.2694,5.2998,5.3827,5.4085,5.4545,5.5445,5.4917,5.4747,5.5478,5.4816,5.5169,5.7239,5.6799,5.6626,5.7104,5.6495,5.5799,5.5082,5.5192,5.5226,5.5183,5.5967,5.6355,5.6273,5.6929,5.723,5.723,5.7331,5.6895,5.6072,5.7734,5.7303,5.5503,5.8567,5.9664,5.9497,6.171,6.2947,6.3444,6.3136,6.3395,6.3927,6.3995,6.4884,6.5684,6.3699,6.418,6.5188,6.2634,6.3943,6.5587,6.122,6.1397,6.2165,5.8394,5.7867,5.8184,5.7614,5.8418,5.9055,5.805,0.0,5.8919,5.9189,0.0,5.9424,6.0083,0.0,0.0,5.9357,6.0135,6.0833,6.108,6.241,6.4404,6.7195,6.868,6.9238,6.8638,6.9161,7.0018,7.121,7.0703,7.0601,7.1255,7.1289,7.1289,7.1289,7.1289,7.1289,7.1289,7.1289,7.1289,7.1289,7.1289,7.1289,7.1289,7.1289,7.1289,7.1323,7.1988,7.2326,7.2496,7.3916,7.4525,7.4637,7.5337,7.5642,7.5709,7.5709,7.5709,7.5709,5.2383,5.2366,5.2414,5.2731,5.3131,5.3567,5.3923,5.4798,5.5559,5.5934,5.5644,5.5541,5.5934,5.5348,5.5503,5.6975,5.6896,5.6898,5.713,5.6624,5.6212,5.5928,5.5749,5.5895,5.6385,5.6761,5.6914,5.6854,5.7156,5.7089,5.6687,5.7089,5.6687,5.5664,5.7745,5.8014,5.6995,5.9291,6.0642,6.1348,6.228,6.3348,6.4353,6.384,6.3815,6.4176,6.4586,6.5406,6.6137,6.5122,6.5615,6.6514,6.5637,6.5636,6.5462,6.2749,6.1848,6.1098,5.8249,5.8686,5.9568,5.8112,5.9064,5.9918,5.8146,5.784,5.789,5.789,0.0,0.0,0.0,0.0,0.0,0.0,5.9209,5.9944,6.0512,6.1509,6.2761,6.4407,6.5127,6.6208,6.7896,6.9536,7.0712,7.1278,7.1007,7.0804,7.0669,7.1075,7.1289,7.1289,7.1289,7.1289,7.1289,7.1289,7.1289,7.1289,7.1289,7.1289,7.1289,7.1289,7.1289,7.1323,7.209,7.2631,7.3105,7.4187,7.4864,7.527,7.5574,7.5709,7.5709,7.5709,7.5709,7.5709,5.2961,5.3047,5.3047,5.3047,5.3463,5.3848,5.3902,5.5226,5.62,5.62,5.6163,5.6211,5.6467,5.5977,5.6019,5.6997,5.7468,5.7593,5.7335,5.7431,5.7368,5.7024,5.6746,5.6867,5.7515,5.7315,5.7195,5.7139,5.7139,5.6872,5.6352,5.6961,5.6627,5.5725,5.7704,5.8515,5.8518,6.0061,6.1579,6.2969,6.3244,6.3997,6.4857,6.4393,6.4341,6.4614,6.5125,6.5942,6.6657,6.5949,6.631,6.7043,6.7171,6.6542,6.5509,6.412,6.2912,6.1515,5.9362,5.9761,6.0415,5.8817,5.9248,5.97,5.8086,5.7463,5.7214,5.7214,5.7214,0.0,0.0,0.0,5.7315,5.7663,0.0,5.9016,5.9418,6.0108,6.1023,6.2285,6.2445,6.3517,6.626,6.7824,6.9129,7.0208,7.0107,7.0129,7.0466,7.1007,7.1289,7.1289,7.1289,7.1289,7.1289,7.1289,7.1289,7.1289,7.1289,7.1289,7.1289,7.1289,7.1391,7.1627,7.2394,7.3105,7.3849,7.4593,7.5236,7.5709,7.5709,7.5709,7.5709,7.5709,7.5709,7.5709,5.3235,5.3367,5.3367,5.3367,5.34,5.3473,5.3672,5.512,5.62,5.62,5.6033,5.6263,5.7189,5.662,5.6828,5.8511,5.946,5.9633,5.8717,6.0011,6.0102,5.8414,5.8327,5.8265,5.8072,5.7372,5.6911,5.6719,5.6719,5.6719,5.6685,5.6911,5.6973,5.6992,5.7983,5.8878,5.9847,6.1593,6.2753,6.3619,6.5223,6.5814,6.5581,6.4871,6.504,6.567,6.567,6.663,6.7489,6.5151,6.5449,6.6534,6.4928,6.5496,6.6411,6.4759,6.4731,6.4723,6.23,6.1006,6.0124,5.9358,5.8534,5.7713,5.6898,5.6886,5.7006,5.7006,5.7006,5.7006,5.7006,5.7006,0.0,0.0,5.6757,0.0,0.0,5.6988,5.8533,6.1488,6.1823,6.2159,6.2976,6.2474,6.365,6.7425,6.7055,6.8017,7.112,7.1289,7.1289,7.1289,7.1289,7.1289,7.1289,7.1289,7.1289,7.1289,7.1289,7.1289,7.1289,7.1289,7.1684,7.2394,7.3138,7.3883,7.4603,7.5371,7.5676,7.5709,7.5709,7.5709,7.5709,7.5709,7.5709,7.5709,5.3349,5.4177,5.4707,5.421,5.4541,5.5024,5.5615,5.6189,5.673,5.7363,5.6958,5.7182,5.8595,5.8245,5.856,6.0078,6.0642,6.0752,6.0458,6.0762,6.0496,5.9377,5.8739,5.8298,5.8086,5.7372,5.6911,5.6699,5.6699,5.6757,5.6891,5.6968,5.7082,5.7229,5.8021,5.931,6.0849,6.1784,6.3071,6.4375,6.384,6.4086,6.4868,6.5735,6.5899,6.5784,6.6237,6.7049,6.7726,6.639,6.6648,6.7332,6.6289,6.5584,6.507,6.4626,6.3788,6.2864,6.2186,6.3187,6.3567,6.0071,6.0552,6.0998,5.7506,5.6757,5.71,5.8219,5.7556,5.7133,5.8253,5.7556,0.0,0.0,0.0,5.6844,0.0,5.6758,5.7276,5.8294,5.9984,6.1348,6.2085,6.4745,6.699,6.8301,7.0085,7.1177,7.1289,7.1751,7.1796,7.1323,7.1289,7.1289,7.1289,7.1289,7.1289,7.1289,7.1289,7.1289,7.1289,7.1289,7.1447,7.1751,7.2969,7.3612,7.395,7.5202,7.5709,7.5709,7.5709,7.5709,7.5709,7.5709,7.5709,7.5709,5.378,5.4773,5.5468,5.4972,5.5303,5.5667,5.5885,5.6425,5.7019,5.7634,5.7597,5.7926,5.8997,5.8906,5.9155,6.0078,6.0878,6.1197,6.0892,6.1283,6.1138,6.0362,5.9698,5.9256,5.912,5.7983,5.7329,5.7194,5.687,5.6757,5.6891,5.7044,5.7139,5.7229,5.7773,5.9343,6.1607,6.1882,6.3255,6.5087,6.3997,6.387,6.4482,6.6154,6.6276,6.5694,6.65,6.7117,6.7455,6.696,6.7117,6.7421,6.6927,6.6065,6.5226,6.535,6.4531,6.3626,6.3748,6.4705,6.495,6.1796,6.2111,6.2412,5.9238,5.8493,5.8799,5.9924,5.8766,5.785,5.8705,5.7684,5.6633,0.0,0.0,0.0,0.0,5.6699,5.6699,5.6699,5.8247,5.981,6.118,6.3237,6.5219,6.6981,6.9221,7.049,7.0422,7.1672,7.2191,7.1718,7.1447,7.1289,7.1289,7.1289,7.1289,7.1289,7.1289,7.1289,7.1289,7.1289,7.1594,7.2157,7.3094,7.3804,7.4356,7.5303,7.5709,7.5709,7.5709,7.5709,7.5709,7.5709,7.5709,7.5709,5.4541,5.5137,5.5667,5.5667,5.5667,5.5421,5.4725,5.6008,5.7092,5.7125,5.7964,5.8547,5.8581,5.8753,5.8867,5.8867,6.0405,6.1028,6.025,6.1569,6.2076,6.14,6.1157,6.1007,6.1007,5.9173,5.8172,5.8153,5.726,5.6799,5.6785,5.7168,5.7229,5.7025,5.7214,5.9031,6.1983,6.1783,6.3168,6.5527,6.5527,6.4998,6.4394,6.6086,6.6158,6.5539,6.6458,6.6825,6.6859,6.6859,6.6859,6.6893,6.6893,6.6893,6.6893,6.6893,6.6893,6.6893,6.6859,6.5753,6.4529,6.436,6.3174,6.1971,6.1837,6.1803,6.1837,6.1924,6.0572,5.9178,5.8497,5.757,5.66,0.0,0.0,0.0,5.6699,5.6699,5.6699,5.6699,5.6699,5.7639,6.0004,5.8229,5.894,6.376,6.4774,6.6323,6.8963,7.1098,7.2326,7.2394,7.1718,7.1323,7.1289,7.1289,7.1289,7.1289,7.1289,7.1289,7.1289,7.1289,7.209,7.3466,7.35,7.4346,7.5642,7.5676,7.5709,7.5709,7.5709,7.5709,7.5709,7.5709,7.5709,7.5709,5.5336,5.5899,5.6415,5.6415,5.6549,5.6578,5.6378,5.7315,5.8275,5.8998,5.9814,6.0617,6.1312,6.1438,6.1457,6.1457,6.1854,6.2028,6.1806,6.2178,6.2333,6.211,6.1564,6.1143,6.1007,5.9914,5.9198,5.8919,5.8693,5.8274,5.7742,5.7858,5.7654,5.7214,5.712,5.8308,6.0381,6.0029,6.1099,6.3026,6.3026,6.3222,6.3619,6.4735,6.5247,6.5539,6.6458,6.7151,6.7624,6.7624,6.803,6.8504,6.8504,6.8504,6.8504,6.8504,6.8504,6.8368,6.7793,6.8123,6.7957,6.5021,6.479,6.4673,6.2347,6.1803,6.2145,6.3396,6.2749,6.1736,6.102,6.0104,5.8787,5.6752,5.66,5.6699,5.6699,5.6699,5.6699,5.6699,5.6699,5.6951,5.7573,5.9239,6.1753,6.5356,6.5813,6.8035,7.2854,7.1491,7.1109,7.236,7.2225,7.1853,7.1289,7.1289,7.1289,7.1289,7.1289,7.1289,7.1289,7.1289,7.1819,7.2699,7.3263,7.4018,7.4931,7.5473,7.5709,7.5709,7.5709,7.5709,7.5709,7.5709,7.5709,7.5709,5.5667,5.5932,5.6316,5.6633,5.7196,5.7601,5.7472,5.8279,5.9208,6.0194,6.0815,6.1331,6.1873,6.1907,6.2042,6.2367,6.24,6.2516,6.2854,6.2584,6.24,6.24,6.2009,6.1733,6.1616,6.0776,5.999,5.9323,5.8925,5.8313,5.7504,5.7581,5.7406,5.7044,5.7006,5.8121,6.0128,6.1729,6.2393,6.2589,6.4051,6.4254,0.0,6.5444,6.6221,6.661,6.748,6.7861,6.7963,6.8301,6.8741,6.9113,6.9113,6.9113,6.9113,6.9113,6.9113,6.9011,6.8538,6.9045,6.9192,6.6956,6.7015,6.7162,6.5404,6.4992,6.527,6.6217,6.5363,6.414,0.0,6.2131,6.0672,5.8202,5.7188,5.6699,5.6699,5.734,5.7526,5.6799,5.734,5.7493,5.6766,5.8362,6.0604,6.3467,6.4258,6.5871,6.8718,6.9491,7.0131,7.0805,7.1537,7.1718,7.1289,7.1289,7.1289,7.1289,7.1289,7.1289,7.1289,7.1289,7.1887,7.2902,7.3331,7.4086,7.51,7.554,7.5709,7.5709,7.5709,7.5709,7.5709,7.5709,7.5709,7.5709,5.5866,5.5733,5.5932,5.6581,5.7606,5.8332,5.8278,5.9106,6.0043,6.0906,6.1283,6.1434,6.1434,6.1434,6.1704,6.2347,6.2482,6.2787,6.3308,6.2854,6.2502,6.24,6.24,6.24,6.24,6.1616,6.0693,5.9653,5.8822,5.7875,5.6865,5.7005,5.6972,5.6699,5.6972,5.8333,6.0678,6.4233,6.4652,6.3185,6.6238,6.6247,6.4726,6.702,6.7963,6.8166,6.8944,6.8808,6.8301,6.9011,6.9316,6.9383,6.9383,6.9383,6.9383,6.9383,6.9383,6.9383,6.9282,6.9316,6.935,6.9147,6.918,6.9214,6.9113,6.9113,6.9113,6.9113,6.7947,6.647,6.4899,6.3737,6.2291,6.0071,5.854,5.7592,5.7407,5.8779,5.9238,5.7578,5.8746,0.0,5.7526,5.697,5.7911,6.0798,6.1832,6.2541,6.3024,6.7263,6.9547,6.9288,7.0659,7.1391,7.1289,7.1289,7.1289,7.1289,7.1289,7.1289,7.1289,7.1289,7.209,7.35,7.35,7.4346,7.5709,7.5709,7.5709,7.5709,7.5709,7.5709,7.5709,7.5709,7.5709,7.5709,5.6514,5.6514,5.6547,5.6699,5.7523,5.8383,5.914,6.0261,6.1033,6.1206,6.182,6.2231,6.2231,6.2231,6.2265,6.24,6.2956,6.3125,6.2618,6.3057,6.3057,6.2434,6.24,6.24,6.24,6.226,6.1571,6.0403,6.023,5.9297,5.7608,5.7647,5.7315,5.6732,5.7368,5.896,6.1224,6.1501,6.224,6.3235,6.4448,6.5125,6.5621,6.7286,6.8301,6.8977,6.9722,6.9913,6.9845,6.9958,7.0398,7.0917,7.0917,7.0917,7.0917,7.0917,7.0917,7.0804,7.0161,7.0466,7.0613,6.9417,6.9553,6.9857,6.9248,6.9113,6.9113,6.9113,6.9328,6.8857,6.6537,6.4867,6.3458,6.2412,6.2505,6.2304,6.108,6.2191,6.2613,6.11,6.1722,6.189,6.0979,5.8341,5.882,6.3886,6.2115,6.3898,7.1019,6.985,6.9838,7.1706,7.2033,7.1921,7.1289,7.1289,7.1289,7.1289,7.1289,7.1289,7.1289,7.1289,7.209,7.35,7.35,7.4346,7.5709,7.5709,7.5709,7.5709,7.5709,7.5709,7.5709,7.5709,7.5709,7.5709,5.6699,5.6699,5.6851,5.7332,5.8191,5.9173,6.0125,6.1172,6.1873,6.1873,6.2178,6.24,6.24,6.24,6.255,6.2956,6.2956,6.2956,6.2956,6.2956,6.2753,6.2434,6.24,6.24,6.24,6.24,6.1812,6.0604,6.0222,5.927,5.7773,5.7428,5.7243,5.7362,5.9338,6.0669,6.1524,6.3425,6.427,6.4441,6.5678,6.6424,6.6948,6.8098,6.9011,6.9755,7.05,7.077,7.077,7.077,7.1007,7.1289,7.1289,7.1289,7.1289,7.1289,7.1289,7.1222,7.0872,7.1041,7.112,7.0432,7.05,7.0669,7.0331,7.0263,7.0263,7.0263,7.0534,7.0308,6.8712,6.6718,0.0,6.5324,6.4904,6.4472,6.4116,6.5462,6.5606,6.3232,6.3998,6.3642,6.0739,5.8952,5.9638,6.3659,6.2048,6.3166,6.8279,6.8671,6.912,6.9871,7.1143,7.1661,7.1289,7.1289,7.1289,7.1289,7.1289,7.1289,7.1289,7.1289,7.209,7.35,7.35,7.4346,7.5709,7.5709,7.5473,7.5168,7.554,7.5709,7.5709,7.5709,7.5709,7.5709,5.7299,5.7299,5.7537,5.8258,5.9173,6.0072,6.0886,6.179,6.24,6.24,6.24,6.24,6.24,6.24,6.2685,6.3443,6.2956,6.2888,6.3443,6.2956,6.255,6.24,6.24,6.2448,6.2618,6.2618,6.2136,6.1153,6.0342,5.9323,5.8084,5.7481,5.768,5.8648,6.1176,6.2366,6.2703,6.5807,6.6684,6.604,6.7357,6.7996,6.8233,6.9011,6.9789,7.05,7.1086,7.1289,7.1289,7.1289,7.1289,7.1289,7.1289,7.1289,7.1289,7.1289,7.1289,7.1289,7.1289,7.1289,7.1289,7.1289,7.1289,7.1289,7.1289,7.1289,7.1289,7.1289,7.1289,7.112,7.0534,6.8847,0.0,6.8063,6.7158,6.6513,6.6781,6.8257,6.8323,6.5627,6.6473,6.5846,6.2124,6.0679,6.1086,6.3688,6.2678,6.2945,6.5181,6.7841,6.9007,6.84,7.0276,7.1289,7.1289,7.1289,7.1289,7.1289,7.1289,7.1289,7.1289,7.1289,7.2022,7.3274,7.3432,7.4346,7.5709,7.5709,7.5371,7.4897,7.5473,7.5709,7.5709,7.5709,7.5709,7.5709,5.9226,5.9226,5.926,5.9346,6.0192,6.0867,6.1007,6.179,6.24,6.24,6.24,6.24,6.24,6.24,6.2685,6.3443,6.3443,6.3409,6.3511,6.3443,6.3091,6.2434,6.24,6.2719,6.3376,6.3376,6.3242,6.2953,6.1964,6.0658,5.9052,5.8801,5.9551,6.1063,6.135,6.3166,6.6014,6.5733,6.6399,6.7671,6.7861,6.8335,6.9079,6.9789,7.0534,7.1188,7.1255,7.1289,7.1289,7.1289,7.1289,7.1289,7.1289,7.1289,7.1289,7.1289,7.1289,7.1289,7.1289,7.1289,7.1289,7.1289,7.1289,7.1289,7.1289,7.1289,7.1289,7.1289,7.1289,7.1289,7.1188,7.1019,7.0658,0.0,7.0388,7.0264,6.9014,7.0117,7.0692,6.9745,6.9767,6.9914,7.014,6.5547,6.3822,6.6911,6.506,6.5471,6.9419,7.0523,7.103,7.0962,7.1188,7.1289,7.1289,7.1289,7.1289,7.1289,7.1289,7.1289,7.1289,7.1289,7.1751,7.2529,7.3229,7.4346,7.5709,7.5709,7.5676,7.5608,7.5676,7.5709,7.5709,7.5709,7.5709,7.5709,5.9485,5.9485,5.9692,6.0279,6.0712,6.1181,6.1736,6.2172,6.24,6.24,6.24,6.24,6.24,6.24,6.2516,6.2821,6.2854,6.2854,6.2854,6.2854,6.2922,6.3057,6.3057,6.3429,6.414,6.4174,6.4072,6.3868,6.2421,6.1294,6.0504,6.0423,6.1304,6.2999,6.3994,6.498,6.5889,6.6588,6.7269,6.7895,6.7895,6.8639,6.9789,7.0116,7.0669,7.1289,7.1289,7.1289,7.1289,7.1289,7.1289,7.1289,7.1289,7.1289,7.1289,7.1289,7.1289,7.1289,7.1289,7.1289,7.1289,7.1289,7.1289,7.1289,7.1289,7.1289,7.1289,7.1289,7.0973,7.077,7.1222,7.0939,7.0838,7.1413,7.1785,7.1751,7.1176,7.1954,7.147,6.8331,6.8364,6.8186,6.7045,6.3123,6.2184,6.5832,6.3831,6.363,6.6351,6.8985,6.9995,6.9107,7.094,7.1751,7.1289,7.1289,7.1289,7.1289,7.1289,7.1289,7.1289,7.1289,7.1718,7.2462,7.3646,7.4255,7.4424,7.5337,7.5439,7.51,7.554,7.5709,7.5709,7.5709,7.5709,7.5709,6.0351,6.0533,6.0895,6.1604,6.1894,6.229,6.2936,6.3024,6.3024,6.3024,6.3024,6.2874,6.2468,6.24,6.257,6.299,6.2854,6.2888,6.3348,6.3159,6.3294,6.3781,6.3815,6.4174,6.4918,6.4918,6.4958,6.505,6.351,6.2587,6.2256,6.1948,6.2752,6.4468,6.5657,6.6044,6.5872,6.7087,6.7692,6.7929,6.8166,6.9011,7.0195,7.0432,7.0838,7.1289,7.1289,7.1289,7.1289,7.1289,7.1289,7.1289,7.1289,7.1289,7.1289,7.1289,7.1289,7.1289,7.1289,7.1289,7.1289,7.1289,7.1289,7.1289,7.1289,7.1289,7.1289,7.1289,7.0906,7.0669,7.1188,7.0872,7.0872,7.1921,0.0,7.1988,7.1785,7.2394,7.1537,6.8005,6.8073,6.7873,6.6577,6.358,6.2994,6.628,6.4425,6.3781,6.5307,6.7776,6.9131,6.8995,7.1008,7.1853,7.1289,7.1289,7.1289,7.1289,7.1289,7.1289,7.1289,7.1289,7.1718,7.2462,7.351,7.3916,7.3883,7.4965,7.5202,7.4999,7.5506,7.5709,7.5709,7.5709,7.5709,7.5709,6.2347,6.2936,6.3477,6.3477,6.4052,6.4546,6.458,6.458,6.458,6.458,6.458,6.4005,6.257,6.24,6.299,6.4444,6.3903,6.4106,6.5581,6.4986,6.458,6.458,6.458,6.4918,6.5683,6.5683,6.6034,6.6757,6.5804,6.4979,6.4239,6.3327,6.3763,6.5363,6.5396,6.5927,6.6791,6.6791,6.7231,6.7963,6.8774,6.9519,7.0285,7.1007,7.1289,7.1289,7.1289,7.1289,7.1289,7.1289,7.1289,7.1289,7.1289,7.1289,7.1289,7.1289,7.1289,7.1289,7.1289,7.1289,7.1289,7.1289,7.1289,7.1289,7.1289,7.1289,7.1289,7.1289,7.1289,7.1289,7.1289,7.1289,7.1289,7.1289,0.0,7.1075,7.0331,7.0872,7.1041,7.0229,7.0161,7.0737,7.2157,6.941,6.8132,6.9704,6.8237,6.7656,6.8582,6.7998,6.9085,7.2259,7.1661,0.0,7.1289,7.1289,7.1289,7.1289,7.1289,7.1289,7.1289,7.1289,7.1718,7.2394,7.2428,7.324,7.4593,7.4627,7.5033,7.5676,7.5709,7.5709,7.5709,7.5709,7.5709,7.5709,6.3159,6.3734,6.4241,6.4241,6.4444,6.4613,6.4613,6.4613,6.4613,6.4613,6.4613,6.441,6.3937,6.3903,6.4072,6.4546,6.4377,6.4444,6.4918,6.4715,6.4816,6.5324,6.5358,6.5696,6.644,6.6948,6.7083,6.6791,6.6365,6.6023,6.5788,6.4984,6.5505,6.7078,6.6572,6.6525,6.6825,6.7354,6.7996,6.8774,6.9553,7.0297,7.0973,7.1188,7.1289,7.1289,7.1289,7.1289,7.1289,7.1289,7.1289,7.1289,7.1289,7.1289,7.1289,7.1289,7.1289,7.1289,7.1289,7.1289,7.1289,7.1289,7.1289,7.1289,7.1289,7.1289,7.1289,7.1289,7.0906,7.0703,7.1188,7.0906,7.0703,7.1222,7.1289,0.0,7.0297,7.0838,7.0399,6.7972,6.814,6.8815,6.9861,6.7036,6.6467,6.9592,6.5335,6.389,6.6839,6.8841,6.9929,0.0,7.1312,0.0,7.1289,7.1289,7.1289,7.1289,7.1289,7.1289,7.1289,7.1289,7.1424,7.1684,7.2191,7.2935,7.3883,7.439,7.5033,7.5709,7.5709,7.5709,7.5709,7.5709,7.5709,7.5709,6.3849,6.4512,6.4918,6.4647,6.5053,6.5324,6.5053,6.5256,6.5425,6.5425,6.5425,6.5425,6.5425,6.5425,6.5425,6.5425,6.5425,6.5662,6.6271,6.6,6.6034,6.6508,6.6508,6.6609,6.6791,6.7523,6.7557,6.6791,6.6665,6.6622,6.6622,6.6129,6.6483,6.7489,6.7015,6.6791,6.6859,6.759,6.8368,6.918,6.9891,7.0635,7.1289,7.1289,7.1289,7.1289,7.1289,7.1289,7.1289,7.1289,7.1289,7.1289,7.1289,7.1289,7.1289,7.1289,7.1289,7.1289,7.1289,7.1289,7.1289,7.1289,7.1289,7.1289,7.1289,7.1289,7.1289,7.1289,7.0939,7.0737,7.1222,7.0939,7.077,7.1244,7.1289,7.1041,7.0297,7.0838,7.0332,6.7791,6.8106,6.8769,6.9275,6.7762,6.7875,7.058,6.7396,6.639,6.8807,6.8583,6.8897,7.0097,7.1346,7.1785,7.1289,7.1289,7.1289,7.1289,7.1289,7.1289,7.1289,7.1289,7.1289,7.1323,7.1785,7.2394,7.3138,7.3883,7.4627,7.5303,7.5574,7.5709,7.5709,7.5709,7.5709,7.5709,6.4377,6.5121,6.5412,6.4715,6.5797,6.6508,6.5797,6.6339,6.6791,6.6791,6.6825,6.6859,6.6859,6.6927,6.696,6.696,6.6859,6.7421,6.8842,6.8233,6.7827,6.7827,6.7827,6.7489,6.6791,6.7523,6.7557,6.6859,6.6825,6.6791,6.6791,6.6791,6.6791,6.6791,6.6791,6.6825,6.6927,6.7658,6.8436,6.9248,6.9958,7.0703,7.1289,7.1289,7.1289,7.1289,7.1289,7.1289,7.1289,7.1289,7.1289,7.1289,7.1289,7.1289,7.1289,7.1289,7.1289,7.1289,7.1289,7.1289,7.1289,7.1289,7.1289,7.1289,7.1289,7.1289,7.1289,7.1289,7.1289,7.1289,7.1289,7.1289,7.1289,7.1289,7.1289,7.1075,7.0364,7.0872,7.0782,6.9417,6.9857,7.0285,7.0285,7.0906,7.156,7.2259,7.28,7.3172,7.3364,6.7584,6.6767,7.2236,7.1684,7.1289,7.1289,7.1289,7.1289,7.1289,7.1289,7.1289,7.1289,7.1289,7.1289,7.1289,7.1289,7.1718,7.2462,7.3161,7.3849,7.4593,7.527,7.554,7.554,7.554,7.554,7.554,6.3714,6.4343,6.4816,6.4647,6.5358,6.5899,6.5751,6.6339,6.6791,6.6791,6.7286,6.7658,6.7658,6.8199,6.8571,6.8571,6.7489,6.696,6.732,6.7184,6.7083,6.7083,6.7083,6.696,6.6791,6.7523,6.7793,6.7658,6.7083,6.6791,6.6791,6.6791,6.6791,6.6791,6.6791,6.7117,6.7692,6.847,6.9248,6.9992,7.0737,7.112,7.1289,7.1289,7.1289,7.1289,7.1289,7.1289,7.1289,7.1289,7.1289,7.1289,7.1289,7.1289,7.1289,7.1289,7.1289,7.1289,7.1289,7.1289,7.1289,7.1289,7.1289,7.1289,7.1289,7.1289,7.1289,7.1289,7.1289,7.1289,7.1289,7.1289,7.1289,7.1289,7.1289,7.1222,7.1075,7.1188,7.1154,7.0816,7.0917,7.1041,7.1041,7.121,7.1357,7.1548,6.9961,6.9837,7.1695,6.8602,6.8479,7.2293,7.1684,7.1289,7.1289,7.1289,7.1289,7.1289,7.1289,7.1289,7.1289,7.1289,7.1289,7.1289,7.1289,7.1718,7.2428,7.2597,7.3071,7.3781,7.395,7.4018,7.4018,7.4018,7.4018,7.4065,6.4931,6.5324,6.5493,6.5155,6.5696,6.6102,6.5751,6.6339,6.6927,6.7252,6.7658,6.803,6.8402,6.8842,6.9113,6.9113,6.8639,6.8199,6.7873,6.7861,6.7692,6.732,6.732,6.7151,6.6791,6.7523,6.7726,6.7421,6.6994,6.6791,6.6791,6.6791,6.6791,6.6791,6.6791,6.7218,6.7963,6.8774,6.9519,7.0263,7.1007,7.1289,7.1289,7.1289,7.1289,7.1289,7.1289,7.1289,7.1289,7.1289,7.1289,7.1289,7.1289,7.1289,7.1289,7.1289,7.1289,7.1289,7.1289,7.1289,7.1289,7.1289,7.1289,7.1289,7.1289,7.1289,7.1289,7.1289,7.1289,7.1289,7.1289,7.1289,7.1289,7.1289,7.1289,7.1289,7.1289,7.1289,7.1289,7.1289,7.1289,7.1289,7.1289,7.1289,7.1289,7.1289,7.0051,6.9882,7.1222,7.0017,7.0084,7.1853,7.1515,7.1289,7.1289,7.1289,7.1289,7.1289,7.1289,7.1289,7.1289,7.1289,7.1289,7.1289,7.1289,7.1548,7.1921,7.2259,7.2631,7.3003,7.3364,7.35,7.35,7.35,7.35,7.3523,6.6318,6.6474,6.6271,6.5628,6.6136,6.644,6.5818,6.6339,6.7083,6.7793,6.7996,6.8368,6.918,6.9383,6.9383,6.9282,6.9925,6.9958,6.8977,6.891,6.8571,6.776,6.7726,6.7455,6.6791,6.7421,6.7421,6.6791,6.6791,6.6791,6.6791,6.6791,6.6791,6.6791,6.6914,6.7387,6.8132,6.8944,6.9688,7.0398,7.1075,7.1289,7.1289,7.1289,7.1289,7.1289,7.1289,7.1289,7.1289,7.1289,7.1289,7.1289,7.1289,7.1289,7.1289,7.1289,7.1289,7.1289,7.1289,7.1289,7.1289,7.1289,7.1289,7.1289,7.1289,7.1289,7.1289,7.1289,7.1289,7.1289,7.1289,7.1289,7.1289,7.1289,7.0974,7.0839,7.1255,7.094,7.085,7.1255,7.1289,7.1289,7.1289,7.1289,7.1289,7.1289,7.1289,7.1289,7.1289,7.1289,7.1289,7.1289,7.1289,7.1289,7.1289,7.1289,7.1289,7.1289,7.1289,7.1289,7.1289,7.1289,7.1289,7.1289,7.1289,7.1289,7.1357,7.1988,7.2225,7.2293,7.2902,7.3172,7.3172,7.3172,7.3172,7.3218,6.4918,6.4952,6.4918,6.4783,6.5358,6.5852,6.5717,6.6339,6.7083,6.7793,6.8504,6.9214,6.9947,7.0601,7.0703,7.006,7.0703,7.0263,6.8233,6.8098,6.776,6.6994,6.696,6.6914,6.6791,6.6893,6.6893,6.6791,6.6791,6.6791,6.6791,6.6791,6.6791,6.6825,6.7455,6.8166,6.8977,6.9688,7.0432,7.112,7.1255,7.1289,7.1289,7.1289,7.1289,7.1289,7.1289,7.1289,7.1289,7.1289,7.1289,7.1289,7.1289,7.1289,7.1289,7.1289,7.1289,7.1289,7.1289,7.1289,7.1289,7.1289,7.1289,7.1289,7.1289,7.1289,7.1289,7.1289,7.1289,7.1289,7.1289,7.1289,7.1289,7.1289,6.9401,6.8684,7.0974,6.9367,6.8773,7.103,7.1289,7.1289,7.1289,7.1289,7.1289,7.1289,7.1289,7.1289,7.1289,7.1289,7.1289,7.1289,7.1289,7.1289,7.1289,7.1289,7.1289,7.1289,7.1289,7.1289,7.1289,7.1289,7.1289,7.1289,7.1289,7.1289,7.1289,7.1424,7.1458,7.1458,7.1616,7.1627,7.1627,7.1627,7.1627,7.1672,6.5797,6.5797,6.5797,6.5797,6.6068,6.6305,6.6305,6.6576,6.7083,6.7793,6.8233,6.8741,6.9519,6.9925,6.9992,6.962,6.9925,6.9485,6.7996,6.8301,6.803,6.6859,6.6791,6.6791,6.6791,6.6791,6.6791,6.6791,6.6791,6.6791,6.6791,6.6791,6.6994,6.7421,6.776,6.8571,6.9722,7.0082,7.0635,7.1289,7.1289,7.1289,7.1289,7.1289,7.1289,7.1289,7.1289,7.1289,7.1289,7.1289,7.1289,7.1289,7.1289,7.1289,7.1289,7.1289,7.1289,7.1289,7.1289,7.1289,7.1289,7.1289,7.1289,7.1289,7.1289,7.1289,7.1289,7.1289,7.1289,7.1289,7.1289,7.1289,7.1289,7.1289,7.0276,6.9872,7.1131,7.0243,6.9906,7.1131,7.1289,7.1289,7.1289,7.1289,7.1289,7.1289,7.1289,7.1289,7.1289,7.1289,7.1289,7.1289,7.1289,7.1289,7.1289,7.1289,7.1289,7.1289,7.1289,7.1289,7.1289,7.1289,7.1289,7.1289,7.1289,7.1289,7.1289,7.1289,7.1289,7.1289,7.1289,7.1289,7.1289,7.1289,7.1289,7.1334,6.6791,6.6791,6.6791,6.6791,6.6791,6.6791,6.6791,6.6791,6.7083,6.7793,6.7895,6.8199,6.9011,6.9113,6.9113,6.9113,6.9113,6.8774,6.7963,6.847,6.8233,6.6859,6.6791,6.6791,6.6791,6.6791,6.6791,6.6791,6.6791,6.6791,6.6791,6.696,6.7354,6.7929,6.8267,6.9079,7.0217,7.0364,7.077,7.1289,7.1289,7.1289,7.1289,7.1289,7.1289,7.1289,7.1289,7.1289,7.1289,7.1289,7.1289,7.1289,7.1289,7.1289,7.1289,7.1289,7.1289,7.1289,7.1289,7.1289,7.1289,7.1289,7.1289,7.1289,7.1289,7.1289,7.1289,7.1289,7.1289,7.1289,7.1289,7.1289,7.1289,7.1289,0.0,7.0591,7.1222,7.0749,7.0591,7.1222,7.1289,7.1289,7.1289,7.1289,7.1289,7.1289,7.1289,7.1289,7.1289,7.1289,7.1289,7.1289,7.1289,7.1289,7.1289,7.1289,7.1289,7.1289,7.1289,7.1289,7.1289,7.1289,7.1289,7.1289,7.1289,7.1289,7.1289,7.1289,7.1289,7.1289,7.1289,7.1289,7.1289,7.1289,7.1289,7.1334,6.6791,6.6791,6.6791,6.6791,6.6791,6.6791,6.6791,6.6791,6.7083,6.7793,6.7895,6.8199,6.9011,6.9113,6.9113,6.9113,6.9113,6.8774,6.7963,6.7963,6.7624,6.6825,6.6791,6.6791,6.6791,6.6791,6.6791,6.6791,6.6791,6.6791,6.6791,6.7489,6.7861,6.7963,6.9383,7.0116,7.0229,7.0939,7.1255,7.1289,7.1289,7.1289,7.1289,7.1289,7.1289,7.1289,7.1289,7.1289,7.1289,7.1289,7.1289,7.1289,7.1289,7.1289,7.1289,7.1289,7.1289,7.1289,7.1289,7.1289,7.1289,7.1289,7.1289,7.1289,7.1289,7.1289,7.1289,7.1289,7.1289,7.1289,7.1289,7.1289,7.1289,7.1289,0.0,6.846,7.094,6.9154,6.8527,7.1008,7.1289,7.1289,7.1289,7.1289,7.1289,7.1289,7.1289,7.1289,7.1289,7.1289,7.1289,7.1289,7.1289,7.1289,7.1289,7.1289,7.1289,7.1289,7.1289,7.1289,7.1289,7.1289,7.1289,7.1289,7.1289,7.1289,7.1289,7.1289,7.1289,7.1289,7.1289,7.1289,7.1289,7.1289,7.1289,7.1289,6.6791,6.6791,6.6791,6.6791,6.6791,6.6791,6.6791,6.6791,6.6893,6.7184,6.7218,6.7332,6.7658,6.7692,6.7692,6.7692,6.7692,6.7535,6.7252,6.7218,6.7096,6.6791,6.6791,6.6791,6.6791,6.6791,6.6791,6.6791,6.6791,6.6791,6.6791,6.7096,6.7455,6.7963,6.9011,6.9755,7.0251,7.1007,7.1289,7.1289,7.1289,7.1289,7.1289,7.1289,7.1289,7.1289,7.1289,7.1289,7.1289,7.1289,7.1289,7.1289,7.1289,7.1289,7.1289,7.1289,7.1289,7.1289,7.1289,7.1289,7.1289,7.1289,7.1289,7.1289,7.1289,7.1289,7.1289,7.1289,7.1289,7.1289,7.1289,7.1289,7.1289,7.1289,0.0,7.0153,7.1154,7.0434,7.0153,7.1188,7.1289,7.1289,7.1289,7.1289,7.1289,7.1289,7.1289,7.1289,7.1289,7.1289,7.1289,7.1289,7.1289,7.1289,7.1289,7.1289,7.1289,7.1289,7.1289,7.1289,7.1289,7.1289,7.1289,7.1289,7.1289,7.1289,7.1289,7.1289,7.1289,7.1289,7.1289,7.1289,7.1289,7.1289,7.1289,7.1289,6.6791,6.6791,6.6791,6.6791,6.6791,6.6791,6.6791,6.6791,6.6791,6.6791,6.6791,6.6791,6.6791,6.6791,6.6791,6.6791,6.6791,6.6791,6.6791,6.6791,6.6791,6.6791,6.6791,6.6791,6.6791,6.6791,6.6791,6.6791,6.6791,6.6791,6.6791,6.7028,6.7421,6.7963,6.8977,6.9722,7.0251,7.1007,7.1289,7.1289,7.1289,7.1289,7.1289,7.1289,7.1289,7.1289,7.1289,7.1289,7.1289,7.1289,7.1289,7.1289,7.1289,7.1289,7.1289,7.1289,7.1289,7.1289,7.1289,7.1289,7.1289,7.1289,7.1289,7.1289,7.1289,7.1289,7.1289,7.1289,7.1289,7.1289,7.1289,7.1289,7.1289,7.1289,7.1289,7.1289,7.1289,7.1289,7.1289,7.1289,7.1289,7.1289,7.1289,7.1289,7.1289,7.1289,7.1289,7.1289,7.1289,7.1289,7.1289,7.1289,7.1289,7.1289,7.1289,7.1289,7.1289,7.1289,7.1289,7.1289,7.1289,7.1289,7.1289,7.1289,7.1289,7.1289,7.1289,7.1289,7.1289,7.1289,7.1289,7.1289,7.1289,7.1289,7.1289,7.1312,6.6791,6.6791,6.6791,6.6791,6.6791,6.6791,6.6791,6.6791,6.6791,6.6791,6.6791,6.6791,6.6791,6.6791,6.6791,6.6791,6.6791,6.6791,6.6791,6.6791,6.6791,6.6791,6.6791,6.6791,6.6791,6.6791,6.6791,6.6791,6.6791,6.6791,6.6825,6.7557,6.7895,6.7963,6.9507,7.0184,7.0251,7.0973,7.1289,7.1289,7.1289,7.1289,7.1289,7.1289,7.1289,7.1289,7.1289,7.1289,7.1289,7.1289,7.1289,7.1289,7.1289,7.1289,7.1289,7.1289,7.1289,7.1289,7.1289,7.1289,7.1289,7.1289,7.1289,7.1289,7.1289,7.1289,7.1289,7.1289,7.1289,7.1289,7.1289,7.1289,7.1289,7.1289,7.1289,7.1289,7.1289,7.1289,7.1289,7.1289,7.1289,7.1289,7.1289,7.1289,7.1289,7.1289,7.1289,7.1289,7.1289,7.1289,7.1289,7.1289,7.1289,7.1289,7.1289,7.1289,7.1289,7.1289,7.1289,7.1289,7.1289,7.1289,7.1289,7.1289,7.1289,7.1289,7.1289,7.1289,7.1289,7.1289,7.1289,7.1312,7.1312,7.1312,7.1312,7.1334,6.6791,6.6791,6.6791,6.6791,6.6791,6.6791,6.6791,6.6791,6.6791,6.6791,6.6791,6.6791,6.6791,6.6791,6.6791,6.6791,6.6791,6.6791,6.6791,6.6791,6.6791,6.6791,6.6791,6.6791,6.6791,6.6791,6.6791,6.6791,6.6791,6.6791,6.6791,6.7049,6.7151,6.7184,6.8166,6.8571,6.8639,6.9417,7.006,7.0534,7.0534,7.0838,7.1289,7.1289,7.1289,7.1289,7.1289,7.1289,7.1289,7.1289,7.1289,7.1289,7.1289,7.1289,7.1289,7.1289,7.1289,7.1289,7.1289,7.1289,7.1289,7.1289,7.1289,7.1289,7.1289,7.1289,7.1289,7.1289,7.1289,7.1289,7.1289,7.1289,7.1289,7.1289,7.1289,7.1289,7.1289,7.1289,7.1289,7.1289,7.1289,7.1289,7.1289,7.1289,7.1289,7.1289,7.1289,7.1289,7.1289,7.1289,7.1289,7.1289,7.1289,7.1289,7.1289,7.1289,7.1289,7.1289,7.1289,7.1289,7.1289,7.1289,7.1289,7.1289,7.1289,7.1289,7.1289,7.1289,7.1289,7.1312,7.1457,7.1523,7.1512,7.1722,7.1766,7.1788,6.6791,6.6791,6.6791,6.6791,6.6791,6.6791,6.6791,6.6791,6.6791,6.6791,6.6791,6.6791,6.6791,6.6791,6.6791,6.6791,6.6791,6.6791,6.6791,6.6791,6.6791,6.6791,6.6791,6.6791,6.6791,6.6791,6.6791,6.6791,6.6791,6.6791,6.6791,6.6791,6.6791,6.6825,6.7557,6.7895,6.7963,6.8774,6.935,6.9789,7.006,7.0466,7.0906,7.1188,7.1289,7.1289,7.1289,7.1289,7.1289,7.1289,7.1289,7.1289,7.1289,7.1289,7.1289,7.1289,7.1289,7.1289,7.1289,7.1289,7.1289,7.1289,7.1289,7.1289,7.1289,7.1289,7.1289,7.1289,7.1289,7.1289,7.1289,7.1289,7.1289,7.1289,7.1289,7.1289,7.1289,7.1289,7.1289,7.1289,7.1289,7.1289,7.1289,7.1289,7.1289,7.1289,7.1289,7.1289,7.1289,7.1289,7.1289,7.1289,7.1289,7.1289,7.1289,7.1289,7.1289,7.1289,7.1289,7.1289,7.1289,7.1289,7.1289,7.1289,7.1289,7.1289,7.1312,7.1401,7.1412,7.1434,7.1678,7.1754,7.1754,7.1942,7.1985,7.2007,6.6791,6.6791,6.6791,6.6791,6.6791,6.6791,6.6791,6.6791,6.6791,6.6791,6.6791,6.6791,6.6791,6.6791,6.6791,6.6791,6.6791,6.6791,6.6791,6.6791,6.6791,6.6791,6.6791,6.6791,6.6791,6.6791,6.6791,6.6791,6.6791,6.6791,6.6791,6.6791,6.6791,6.6825,6.7489,6.7793,6.7861,6.8571,6.8944,6.9045,6.9722,7.0048,7.0161,7.0939,7.1188,7.1188,7.1255,7.1289,7.1289,7.1289,7.1289,7.1289,7.1289,7.1289,7.1289,7.1289,7.1289,7.1289,7.1289,7.1289,7.1289,7.1289,7.1289,7.1289,7.1289,7.1289,7.1289,7.1289,7.1289,7.1289,7.1289,7.1289,7.1289,7.1289,7.1289,7.1289,7.1289,7.1289,7.1289,7.1289,7.1289,7.1289,7.1289,7.1289,7.1289,7.1289,7.1289,7.1289,7.1289,7.1289,7.1289,7.1289,7.1289,7.1289,7.1289,7.1289,7.1289,7.1289,7.1289,7.1289,7.1289,7.1289,7.1289,7.1289,7.1289,7.1289,7.1312,7.1501,7.1578,7.1622,7.1898,7.2007,7.2029,7.205,7.205,7.2072,6.6791,6.6791,6.6791,6.6791,6.6791,6.6791,6.6791,6.6791,6.6791,6.6791,6.6791,6.6791,6.6791,6.6791,6.6791,6.6791,6.6791,6.6791,6.6791,6.6791,6.6791,6.6791,6.6791,6.6791,6.6791,6.6791,6.6791,6.6791,6.6791,6.6791,6.6791,6.6791,6.6791,6.6791,6.696,6.7028,6.7028,6.7197,6.7624,6.8166,6.8335,6.8774,6.9417,7.0161,7.0432,7.05,7.1086,7.1289,7.1289,7.1289,7.1289,7.1289,7.1289,7.1289,7.1289,7.1289,7.1289,7.1289,7.1289,7.1289,7.1289,7.1289,7.1289,7.1289,7.1289,7.1289,7.1289,7.1289,7.1289,7.1289,7.1289,7.1289,7.1289,7.1289,7.1289,7.1289,7.1289,7.1289,7.1289,7.1289,7.1289,7.1289,7.1289,7.1289,7.1289,7.1289,7.1289,7.1289,7.1289,7.1289,7.1289,7.1289,7.1289,7.1289,7.1289,7.1289,7.1289,7.1289,7.1289,7.1289,7.1289,7.1289,7.1289,7.1289,7.1289,7.1289,7.1312,7.1356,7.1457,7.1622,7.1898,7.2094,7.2266,7.2459,7.2544,7.2544,6.6791,6.6791,6.6791,6.6791,6.6791,6.6791,6.6791,6.6791,6.6791,6.6791,6.6791,6.6791,6.6791,6.6791,6.6791,6.6791,6.6791,6.6791,6.6791,6.6791,6.6791,6.6791,6.6791,6.6791,6.6791,6.6791,6.6791,6.6791,6.6791,6.6791,6.6791,6.6791,6.6791,6.6791,6.6791,6.6791,6.6791,6.6791,6.6994,6.7421,6.776,6.8166,6.8605,6.9383,6.9688,6.9722,7.0128,7.05,7.077,7.077,7.1007,7.1289,7.1289,7.1289,7.1289,7.1289,7.1289,7.1289,7.1289,7.1289,7.1289,7.1289,7.1289,7.1289,7.1289,7.1289,7.1289,7.1289,7.1289,7.1289,7.1289,7.1289,7.1289,7.1289,7.1289,7.1289,7.1289,7.1289,7.1289,7.1289,7.1289,7.1289,7.1289,7.1289,7.1289,7.1289,7.1289,7.1289,7.1289,7.1289,7.1289,7.1289,7.1289,7.1289,7.1289,7.1289,7.1289,7.1289,7.1289,7.1289,7.1289,7.1289,7.1289,7.1289,7.1289,7.1289,7.1312,7.139,7.159,7.1798,7.205,7.2288,7.2501,7.2649,7.2692,7.2692,6.6791,6.6791,6.6791,6.6791,6.6791,6.6791,6.6791,6.6791,6.6791,6.6791,6.6791,6.6791,6.6791,6.6791,6.6791,6.6791,6.6791,6.6791,6.6791,6.6791,6.6791,6.6791,6.6791,6.6791,6.6791,6.6791,6.6791,6.6791,6.6791,6.6791,6.6791,6.6791,6.6791,6.6791,6.6791,6.6791,6.6791,6.6791,6.6791,6.6859,6.7489,6.7726,6.7793,6.8605,6.8876,6.891,6.9045,6.9485,6.9992,6.9992,7.05,7.1109,7.1109,7.1188,7.1289,7.1289,7.1289,7.1289,7.1289,7.1289,7.1289,7.1289,7.1289,7.1289,7.1289,7.1289,7.1289,7.1289,7.1289,7.1289,7.1289,7.1289,7.1289,7.1289,7.1289,7.1289,7.1289,7.1289,7.1289,7.1289,7.1289,7.1289,7.1289,7.1289,7.1289,7.1289,7.1289,7.1289,7.1289,7.1289,7.1289,7.1289,7.1289,7.1289,7.1289,7.1289,7.1289,7.1289,7.1289,7.1289,7.1289,7.1289,7.1289,7.1289,7.1289,7.1289,7.1312,7.1479,7.1722,7.1942,7.218,7.2416,7.2628,7.2671,7.2692,7.2692,6.6791,6.6791,6.6791,6.6791,6.6791,6.6791,6.6791,6.6791,6.6791,6.6791,6.6791,6.6791,6.6791,6.6791,6.6791,6.6791,6.6791,6.6791,6.6791,6.6791,6.6791,6.6791,6.6791,6.6791,6.6791,6.6791,6.6791,6.6791,6.6791,6.6791,6.6791,6.6791,6.6791,6.6791,6.6791,6.6791,6.6791,6.6791,6.6791,6.6791,6.6893,6.6927,6.7028,6.7793,6.8064,6.8166,6.8842,6.9147,6.9248,6.9248,6.9722,7.0353,7.0353,7.0804,7.1289,7.1289,7.1289,7.1289,7.1289,7.1289,7.1289,7.1289,7.1289,7.1289,7.1289,7.1289,7.1289,7.1289,7.1289,7.1289,7.1289,7.1289,7.1289,7.1289,7.1289,7.1289,7.1289,7.1289,7.1289,7.1289,7.1289,7.1289,7.1289,7.1289,7.1289,7.1289,7.1289,7.1289,7.1289,7.1289,7.1289,7.1289,7.1289,7.1289,7.1289,7.1289,7.1289,7.1289,7.1289,7.1289,7.1289,7.1289,7.1289,7.1289,7.1289,7.1289,7.1289,7.1334,7.1457,7.1666,7.1942,7.2159,7.2395,7.2607,7.2692,7.2692,6.6791,6.6791,6.6791,6.6791,6.6791,6.6791,6.6791,6.6791,6.6791,6.6791,6.6791,6.6791,6.6791,6.6791,6.6791,6.6791,6.6791,6.6791,6.6791,6.6791,6.6791,6.6791,6.6791,6.6791,6.6791,6.6791,6.6791,6.6791,6.6791,6.6791,6.6791,6.6791,6.6791,6.6791,6.6791,6.6791,6.6791,6.6791,6.6791,6.6791,6.6791,6.6791,6.6825,6.7163,6.7286,6.7354,6.7692,6.8098,6.8436,6.8436,6.8944,6.9586,6.9586,7.0094,7.0703,7.0703,7.0973,7.1289,7.1289,7.1289,7.1289,7.1289,7.1289,7.1289,7.1289,7.1289,7.1289,7.1289,7.1289,7.1289,7.1289,7.1289,7.1289,7.1289,7.1289,7.1289,7.1289,7.1289,7.1289,7.1289,7.1289,7.1289,7.1289,7.1289,7.1289,7.1289,7.1289,7.1289,7.1289,7.1289,7.1289,7.1289,7.1289,7.1289,7.1289,7.1289,7.1289,7.1289,7.1289,7.1289,7.1289,7.1289,7.1289,7.1289,7.1289,7.1289,7.1289,7.1289,7.1412,7.1622,7.1898,7.2202,7.2544,7.2649,7.2692,7.2692]}]]